<?xml version="1.0" encoding="UTF-8" standalone="no" ?>
<gpx xmlns="http://www.topografix.com/GPX/1/1" xmlns:xsi="http://www.w3.org/2001/XMLSchema-instance" xsi:schemaLocation="http://www.topografix.com/GPX/1/1 http://www.topografix.com/GPX/1/1/gpx.xsd" version="1.1" creator="VisuGPX - https://www.visugpx.com">
  <metadata>
    <name>Le Sternsee depuis le Belacker</name>
    <desc><![CDATA[Trace AlpineQuest 06/03/2014 10:42:20]]></desc>
  </metadata>
  <trk>
    <name><![CDATA[belacker sternsee]]></name>
    <trkseg>
      <trkpt lat="47.82456" lon="6.95015">
        <ele>562</ele>
        <time>2014-03-06T09:42:20Z</time>
      </trkpt>
      <trkpt lat="47.82446" lon="6.95005">
        <ele>561</ele>
        <time>2014-03-06T09:42:32Z</time>
      </trkpt>
      <trkpt lat="47.82448" lon="6.9501">
        <ele>562</ele>
        <time>2014-03-06T09:43:31Z</time>
      </trkpt>
      <trkpt lat="47.82463" lon="6.95013">
        <ele>562</ele>
        <time>2014-03-06T09:43:40Z</time>
      </trkpt>
      <trkpt lat="47.82474" lon="6.95019">
        <ele>563</ele>
        <time>2014-03-06T09:43:50Z</time>
      </trkpt>
      <trkpt lat="47.8248" lon="6.95017">
        <ele>563</ele>
        <time>2014-03-06T09:44:00Z</time>
      </trkpt>
      <trkpt lat="47.82491" lon="6.95021">
        <ele>563</ele>
        <time>2014-03-06T09:44:07Z</time>
      </trkpt>
      <trkpt lat="47.82499" lon="6.95025">
        <ele>563</ele>
        <time>2014-03-06T09:44:11Z</time>
      </trkpt>
      <trkpt lat="47.82505" lon="6.95028">
        <ele>566</ele>
        <time>2014-03-06T09:44:13Z</time>
      </trkpt>
      <trkpt lat="47.82513" lon="6.95037">
        <ele>566</ele>
        <time>2014-03-06T09:44:25Z</time>
      </trkpt>
      <trkpt lat="47.82515" lon="6.95039">
        <ele>566</ele>
        <time>2014-03-06T09:44:27Z</time>
      </trkpt>
      <trkpt lat="47.82523" lon="6.95047">
        <ele>566</ele>
        <time>2014-03-06T09:44:36Z</time>
      </trkpt>
      <trkpt lat="47.82525" lon="6.9505">
        <ele>566</ele>
        <time>2014-03-06T09:44:39Z</time>
      </trkpt>
      <trkpt lat="47.82532" lon="6.95053">
        <ele>566</ele>
        <time>2014-03-06T09:44:43Z</time>
      </trkpt>
      <trkpt lat="47.82536" lon="6.95054">
        <ele>566</ele>
        <time>2014-03-06T09:44:45Z</time>
      </trkpt>
      <trkpt lat="47.8254" lon="6.95056">
        <ele>566</ele>
        <time>2014-03-06T09:44:47Z</time>
      </trkpt>
      <trkpt lat="47.82551" lon="6.95061">
        <ele>567</ele>
        <time>2014-03-06T09:44:53Z</time>
      </trkpt>
      <trkpt lat="47.82566" lon="6.95074">
        <ele>567</ele>
        <time>2014-03-06T09:45:03Z</time>
      </trkpt>
      <trkpt lat="47.82576" lon="6.95078">
        <ele>566</ele>
        <time>2014-03-06T09:45:08Z</time>
      </trkpt>
      <trkpt lat="47.8258" lon="6.95081">
        <ele>566</ele>
        <time>2014-03-06T09:45:11Z</time>
      </trkpt>
      <trkpt lat="47.82583" lon="6.95084">
        <ele>566</ele>
        <time>2014-03-06T09:45:13Z</time>
      </trkpt>
      <trkpt lat="47.82593" lon="6.95098">
        <ele>567</ele>
        <time>2014-03-06T09:45:23Z</time>
      </trkpt>
      <trkpt lat="47.82596" lon="6.95106">
        <ele>567</ele>
        <time>2014-03-06T09:45:30Z</time>
      </trkpt>
      <trkpt lat="47.82603" lon="6.95115">
        <ele>568</ele>
        <time>2014-03-06T09:45:37Z</time>
      </trkpt>
      <trkpt lat="47.82609" lon="6.95125">
        <ele>567</ele>
        <time>2014-03-06T09:45:49Z</time>
      </trkpt>
      <trkpt lat="47.82612" lon="6.95125">
        <ele>568</ele>
        <time>2014-03-06T09:45:51Z</time>
      </trkpt>
      <trkpt lat="47.82616" lon="6.95126">
        <ele>568</ele>
        <time>2014-03-06T09:45:54Z</time>
      </trkpt>
      <trkpt lat="47.82637" lon="6.95134">
        <ele>568</ele>
        <time>2014-03-06T09:46:04Z</time>
      </trkpt>
      <trkpt lat="47.8265" lon="6.9514">
        <ele>568</ele>
        <time>2014-03-06T09:46:12Z</time>
      </trkpt>
      <trkpt lat="47.82661" lon="6.95142">
        <ele>568</ele>
        <time>2014-03-06T09:46:23Z</time>
      </trkpt>
      <trkpt lat="47.8267" lon="6.95142">
        <ele>574</ele>
        <time>2014-03-06T09:46:37Z</time>
      </trkpt>
      <trkpt lat="47.82673" lon="6.95142">
        <ele>574</ele>
        <time>2014-03-06T09:46:47Z</time>
      </trkpt>
      <trkpt lat="47.82699" lon="6.95145">
        <ele>576</ele>
        <time>2014-03-06T09:46:56Z</time>
      </trkpt>
      <trkpt lat="47.82722" lon="6.95149">
        <ele>577</ele>
        <time>2014-03-06T09:47:06Z</time>
      </trkpt>
      <trkpt lat="47.82725" lon="6.9515">
        <ele>577</ele>
        <time>2014-03-06T09:47:08Z</time>
      </trkpt>
      <trkpt lat="47.82729" lon="6.95152">
        <ele>578</ele>
        <time>2014-03-06T09:47:12Z</time>
      </trkpt>
      <trkpt lat="47.82735" lon="6.9515">
        <ele>578</ele>
        <time>2014-03-06T09:47:26Z</time>
      </trkpt>
      <trkpt lat="47.82747" lon="6.95154">
        <ele>578</ele>
        <time>2014-03-06T09:47:36Z</time>
      </trkpt>
      <trkpt lat="47.82761" lon="6.95157">
        <ele>581</ele>
        <time>2014-03-06T09:47:47Z</time>
      </trkpt>
      <trkpt lat="47.82778" lon="6.95154">
        <ele>583</ele>
        <time>2014-03-06T09:47:58Z</time>
      </trkpt>
      <trkpt lat="47.82781" lon="6.95154">
        <ele>583</ele>
        <time>2014-03-06T09:48:00Z</time>
      </trkpt>
      <trkpt lat="47.82791" lon="6.95163">
        <ele>583</ele>
        <time>2014-03-06T09:48:17Z</time>
      </trkpt>
      <trkpt lat="47.82795" lon="6.95165">
        <ele>583</ele>
        <time>2014-03-06T09:48:18Z</time>
      </trkpt>
      <trkpt lat="47.82802" lon="6.95168">
        <ele>580</ele>
        <time>2014-03-06T09:48:22Z</time>
      </trkpt>
      <trkpt lat="47.8281" lon="6.95174">
        <ele>580</ele>
        <time>2014-03-06T09:48:28Z</time>
      </trkpt>
      <trkpt lat="47.82819" lon="6.95182">
        <ele>581</ele>
        <time>2014-03-06T09:48:33Z</time>
      </trkpt>
      <trkpt lat="47.82835" lon="6.95191">
        <ele>583</ele>
        <time>2014-03-06T09:48:41Z</time>
      </trkpt>
      <trkpt lat="47.82841" lon="6.95195">
        <ele>583</ele>
        <time>2014-03-06T09:48:46Z</time>
      </trkpt>
      <trkpt lat="47.82854" lon="6.95209">
        <ele>583</ele>
        <time>2014-03-06T09:48:57Z</time>
      </trkpt>
      <trkpt lat="47.82868" lon="6.95219">
        <ele>583</ele>
        <time>2014-03-06T09:49:06Z</time>
      </trkpt>
      <trkpt lat="47.82873" lon="6.95222">
        <ele>583</ele>
        <time>2014-03-06T09:49:17Z</time>
      </trkpt>
      <trkpt lat="47.82876" lon="6.95224">
        <ele>583</ele>
        <time>2014-03-06T09:49:30Z</time>
      </trkpt>
      <trkpt lat="47.82887" lon="6.95239">
        <ele>583</ele>
        <time>2014-03-06T09:49:36Z</time>
      </trkpt>
      <trkpt lat="47.82895" lon="6.95246">
        <ele>583</ele>
        <time>2014-03-06T09:49:40Z</time>
      </trkpt>
      <trkpt lat="47.82907" lon="6.95259">
        <ele>582</ele>
        <time>2014-03-06T09:49:52Z</time>
      </trkpt>
      <trkpt lat="47.82919" lon="6.95277">
        <ele>583</ele>
        <time>2014-03-06T09:50:02Z</time>
      </trkpt>
      <trkpt lat="47.8292" lon="6.95287">
        <ele>583</ele>
        <time>2014-03-06T09:50:14Z</time>
      </trkpt>
      <trkpt lat="47.82918" lon="6.95292">
        <ele>582</ele>
        <time>2014-03-06T09:50:17Z</time>
      </trkpt>
      <trkpt lat="47.82918" lon="6.95307">
        <ele>582</ele>
        <time>2014-03-06T09:50:29Z</time>
      </trkpt>
      <trkpt lat="47.82925" lon="6.95318">
        <ele>581</ele>
        <time>2014-03-06T09:50:35Z</time>
      </trkpt>
      <trkpt lat="47.82928" lon="6.9532">
        <ele>581</ele>
        <time>2014-03-06T09:50:38Z</time>
      </trkpt>
      <trkpt lat="47.82931" lon="6.95322">
        <ele>581</ele>
        <time>2014-03-06T09:50:40Z</time>
      </trkpt>
      <trkpt lat="47.82941" lon="6.95335">
        <ele>585</ele>
        <time>2014-03-06T09:50:51Z</time>
      </trkpt>
      <trkpt lat="47.82948" lon="6.9534">
        <ele>586</ele>
        <time>2014-03-06T09:50:55Z</time>
      </trkpt>
      <trkpt lat="47.82951" lon="6.95343">
        <ele>586</ele>
        <time>2014-03-06T09:50:58Z</time>
      </trkpt>
      <trkpt lat="47.82954" lon="6.95344">
        <ele>587</ele>
        <time>2014-03-06T09:51:00Z</time>
      </trkpt>
      <trkpt lat="47.82957" lon="6.95346">
        <ele>587</ele>
        <time>2014-03-06T09:51:02Z</time>
      </trkpt>
      <trkpt lat="47.8296" lon="6.95349">
        <ele>587</ele>
        <time>2014-03-06T09:51:05Z</time>
      </trkpt>
      <trkpt lat="47.82969" lon="6.95361">
        <ele>589</ele>
        <time>2014-03-06T09:51:17Z</time>
      </trkpt>
      <trkpt lat="47.82972" lon="6.95364">
        <ele>589</ele>
        <time>2014-03-06T09:51:20Z</time>
      </trkpt>
      <trkpt lat="47.82983" lon="6.95373">
        <ele>590</ele>
        <time>2014-03-06T09:51:32Z</time>
      </trkpt>
      <trkpt lat="47.83" lon="6.95372">
        <ele>590</ele>
        <time>2014-03-06T09:51:43Z</time>
      </trkpt>
      <trkpt lat="47.83006" lon="6.95373">
        <ele>593</ele>
        <time>2014-03-06T09:51:49Z</time>
      </trkpt>
      <trkpt lat="47.83014" lon="6.95375">
        <ele>593</ele>
        <time>2014-03-06T09:51:55Z</time>
      </trkpt>
      <trkpt lat="47.83023" lon="6.95376">
        <ele>593</ele>
        <time>2014-03-06T09:52:03Z</time>
      </trkpt>
      <trkpt lat="47.83027" lon="6.95377">
        <ele>593</ele>
        <time>2014-03-06T09:52:07Z</time>
      </trkpt>
      <trkpt lat="47.8303" lon="6.95379">
        <ele>594</ele>
        <time>2014-03-06T09:52:10Z</time>
      </trkpt>
      <trkpt lat="47.83047" lon="6.95385">
        <ele>594</ele>
        <time>2014-03-06T09:52:21Z</time>
      </trkpt>
      <trkpt lat="47.8305" lon="6.95386">
        <ele>594</ele>
        <time>2014-03-06T09:52:23Z</time>
      </trkpt>
      <trkpt lat="47.8306" lon="6.95396">
        <ele>595</ele>
        <time>2014-03-06T09:52:39Z</time>
      </trkpt>
      <trkpt lat="47.8307" lon="6.95407">
        <ele>597</ele>
        <time>2014-03-06T09:52:49Z</time>
      </trkpt>
      <trkpt lat="47.83087" lon="6.95415">
        <ele>598</ele>
        <time>2014-03-06T09:53:00Z</time>
      </trkpt>
      <trkpt lat="47.83098" lon="6.95426">
        <ele>603</ele>
        <time>2014-03-06T09:53:09Z</time>
      </trkpt>
      <trkpt lat="47.83107" lon="6.95433">
        <ele>605</ele>
        <time>2014-03-06T09:53:17Z</time>
      </trkpt>
      <trkpt lat="47.83114" lon="6.95436">
        <ele>605</ele>
        <time>2014-03-06T09:53:23Z</time>
      </trkpt>
      <trkpt lat="47.83117" lon="6.95438">
        <ele>605</ele>
        <time>2014-03-06T09:53:25Z</time>
      </trkpt>
      <trkpt lat="47.83125" lon="6.95445">
        <ele>605</ele>
        <time>2014-03-06T09:53:34Z</time>
      </trkpt>
      <trkpt lat="47.83139" lon="6.95456">
        <ele>605</ele>
        <time>2014-03-06T09:53:45Z</time>
      </trkpt>
      <trkpt lat="47.83153" lon="6.9547">
        <ele>606</ele>
        <time>2014-03-06T09:53:56Z</time>
      </trkpt>
      <trkpt lat="47.83158" lon="6.95486">
        <ele>606</ele>
        <time>2014-03-06T09:54:07Z</time>
      </trkpt>
      <trkpt lat="47.83169" lon="6.95505">
        <ele>606</ele>
        <time>2014-03-06T09:54:17Z</time>
      </trkpt>
      <trkpt lat="47.83176" lon="6.95521">
        <ele>610</ele>
        <time>2014-03-06T09:54:34Z</time>
      </trkpt>
      <trkpt lat="47.83182" lon="6.95534">
        <ele>612</ele>
        <time>2014-03-06T09:54:43Z</time>
      </trkpt>
      <trkpt lat="47.83194" lon="6.95542">
        <ele>613</ele>
        <time>2014-03-06T09:54:59Z</time>
      </trkpt>
      <trkpt lat="47.83195" lon="6.9555">
        <ele>614</ele>
        <time>2014-03-06T09:55:18Z</time>
      </trkpt>
      <trkpt lat="47.83195" lon="6.95551">
        <ele>614</ele>
        <time>2014-03-06T09:56:14Z</time>
      </trkpt>
      <trkpt lat="47.83197" lon="6.95554">
        <ele>615</ele>
        <time>2014-03-06T09:56:31Z</time>
      </trkpt>
      <trkpt lat="47.83209" lon="6.95566">
        <ele>614</ele>
        <time>2014-03-06T09:56:43Z</time>
      </trkpt>
      <trkpt lat="47.83216" lon="6.95569">
        <ele>613</ele>
        <time>2014-03-06T09:56:47Z</time>
      </trkpt>
      <trkpt lat="47.83219" lon="6.95573">
        <ele>613</ele>
        <time>2014-03-06T09:56:50Z</time>
      </trkpt>
      <trkpt lat="47.83225" lon="6.95578">
        <ele>612</ele>
        <time>2014-03-06T09:56:54Z</time>
      </trkpt>
      <trkpt lat="47.83234" lon="6.95591">
        <ele>620</ele>
        <time>2014-03-06T09:57:05Z</time>
      </trkpt>
      <trkpt lat="47.83235" lon="6.95596">
        <ele>621</ele>
        <time>2014-03-06T09:57:11Z</time>
      </trkpt>
      <trkpt lat="47.83235" lon="6.95602">
        <ele>623</ele>
        <time>2014-03-06T09:57:21Z</time>
      </trkpt>
      <trkpt lat="47.83236" lon="6.95605">
        <ele>624</ele>
        <time>2014-03-06T09:57:24Z</time>
      </trkpt>
      <trkpt lat="47.83248" lon="6.95623">
        <ele>626</ele>
        <time>2014-03-06T09:57:35Z</time>
      </trkpt>
      <trkpt lat="47.83256" lon="6.95637">
        <ele>615</ele>
        <time>2014-03-06T09:57:49Z</time>
      </trkpt>
      <trkpt lat="47.8326" lon="6.95645">
        <ele>617</ele>
        <time>2014-03-06T09:57:53Z</time>
      </trkpt>
      <trkpt lat="47.83267" lon="6.95662">
        <ele>618</ele>
        <time>2014-03-06T09:58:04Z</time>
      </trkpt>
      <trkpt lat="47.83271" lon="6.95676">
        <ele>623</ele>
        <time>2014-03-06T09:58:08Z</time>
      </trkpt>
      <trkpt lat="47.83273" lon="6.95679">
        <ele>623</ele>
        <time>2014-03-06T09:58:10Z</time>
      </trkpt>
      <trkpt lat="47.83275" lon="6.95684">
        <ele>623</ele>
        <time>2014-03-06T09:58:12Z</time>
      </trkpt>
      <trkpt lat="47.83279" lon="6.95692">
        <ele>623</ele>
        <time>2014-03-06T09:58:17Z</time>
      </trkpt>
      <trkpt lat="47.83283" lon="6.95704">
        <ele>623</ele>
        <time>2014-03-06T09:58:26Z</time>
      </trkpt>
      <trkpt lat="47.83296" lon="6.95728">
        <ele>623</ele>
        <time>2014-03-06T09:58:36Z</time>
      </trkpt>
      <trkpt lat="47.83301" lon="6.95738">
        <ele>622</ele>
        <time>2014-03-06T09:58:41Z</time>
      </trkpt>
      <trkpt lat="47.83303" lon="6.95742">
        <ele>621</ele>
        <time>2014-03-06T09:58:43Z</time>
      </trkpt>
      <trkpt lat="47.83303" lon="6.95763">
        <ele>629</ele>
        <time>2014-03-06T09:58:52Z</time>
      </trkpt>
      <trkpt lat="47.83305" lon="6.95775">
        <ele>629</ele>
        <time>2014-03-06T09:58:56Z</time>
      </trkpt>
      <trkpt lat="47.83305" lon="6.95787">
        <ele>630</ele>
        <time>2014-03-06T09:59:03Z</time>
      </trkpt>
      <trkpt lat="47.83305" lon="6.95805">
        <ele>631</ele>
        <time>2014-03-06T09:59:15Z</time>
      </trkpt>
      <trkpt lat="47.8331" lon="6.95817">
        <ele>630</ele>
        <time>2014-03-06T09:59:25Z</time>
      </trkpt>
      <trkpt lat="47.83315" lon="6.95827">
        <ele>628</ele>
        <time>2014-03-06T09:59:28Z</time>
      </trkpt>
      <trkpt lat="47.83316" lon="6.95833">
        <ele>628</ele>
        <time>2014-03-06T09:59:30Z</time>
      </trkpt>
      <trkpt lat="47.83316" lon="6.95838">
        <ele>632</ele>
        <time>2014-03-06T09:59:32Z</time>
      </trkpt>
      <trkpt lat="47.83314" lon="6.95861">
        <ele>637</ele>
        <time>2014-03-06T09:59:43Z</time>
      </trkpt>
      <trkpt lat="47.83318" lon="6.95871">
        <ele>637</ele>
        <time>2014-03-06T09:59:46Z</time>
      </trkpt>
      <trkpt lat="47.8332" lon="6.95875">
        <ele>637</ele>
        <time>2014-03-06T09:59:48Z</time>
      </trkpt>
      <trkpt lat="47.83321" lon="6.9588">
        <ele>637</ele>
        <time>2014-03-06T09:59:51Z</time>
      </trkpt>
      <trkpt lat="47.83326" lon="6.95902">
        <ele>634</ele>
        <time>2014-03-06T10:00:04Z</time>
      </trkpt>
      <trkpt lat="47.83327" lon="6.95907">
        <ele>633</ele>
        <time>2014-03-06T10:00:06Z</time>
      </trkpt>
      <trkpt lat="47.83323" lon="6.95928">
        <ele>638</ele>
        <time>2014-03-06T10:00:16Z</time>
      </trkpt>
      <trkpt lat="47.83322" lon="6.95932">
        <ele>640</ele>
        <time>2014-03-06T10:00:18Z</time>
      </trkpt>
      <trkpt lat="47.83323" lon="6.9594">
        <ele>642</ele>
        <time>2014-03-06T10:00:24Z</time>
      </trkpt>
      <trkpt lat="47.83338" lon="6.95962">
        <ele>637</ele>
        <time>2014-03-06T10:00:35Z</time>
      </trkpt>
      <trkpt lat="47.83341" lon="6.9598">
        <ele>638</ele>
        <time>2014-03-06T10:00:44Z</time>
      </trkpt>
      <trkpt lat="47.83341" lon="6.96004">
        <ele>639</ele>
        <time>2014-03-06T10:00:55Z</time>
      </trkpt>
      <trkpt lat="47.83342" lon="6.96008">
        <ele>640</ele>
        <time>2014-03-06T10:00:58Z</time>
      </trkpt>
      <trkpt lat="47.83348" lon="6.96031">
        <ele>643</ele>
        <time>2014-03-06T10:01:09Z</time>
      </trkpt>
      <trkpt lat="47.83349" lon="6.96052">
        <ele>644</ele>
        <time>2014-03-06T10:01:18Z</time>
      </trkpt>
      <trkpt lat="47.83347" lon="6.96057">
        <ele>644</ele>
        <time>2014-03-06T10:01:21Z</time>
      </trkpt>
      <trkpt lat="47.83341" lon="6.96072">
        <ele>644</ele>
        <time>2014-03-06T10:01:31Z</time>
      </trkpt>
      <trkpt lat="47.83337" lon="6.96083">
        <ele>643</ele>
        <time>2014-03-06T10:01:37Z</time>
      </trkpt>
      <trkpt lat="47.83342" lon="6.96106">
        <ele>647</ele>
        <time>2014-03-06T10:01:47Z</time>
      </trkpt>
      <trkpt lat="47.83347" lon="6.96127">
        <ele>647</ele>
        <time>2014-03-06T10:01:57Z</time>
      </trkpt>
      <trkpt lat="47.83346" lon="6.96142">
        <ele>647</ele>
        <time>2014-03-06T10:02:05Z</time>
      </trkpt>
      <trkpt lat="47.83352" lon="6.96169">
        <ele>646</ele>
        <time>2014-03-06T10:02:15Z</time>
      </trkpt>
      <trkpt lat="47.83349" lon="6.96192">
        <ele>647</ele>
        <time>2014-03-06T10:02:25Z</time>
      </trkpt>
      <trkpt lat="47.83348" lon="6.96198">
        <ele>647</ele>
        <time>2014-03-06T10:02:28Z</time>
      </trkpt>
      <trkpt lat="47.83344" lon="6.96216">
        <ele>646</ele>
        <time>2014-03-06T10:02:38Z</time>
      </trkpt>
      <trkpt lat="47.83341" lon="6.9623">
        <ele>645</ele>
        <time>2014-03-06T10:02:49Z</time>
      </trkpt>
      <trkpt lat="47.83337" lon="6.96251">
        <ele>642</ele>
        <time>2014-03-06T10:03:00Z</time>
      </trkpt>
      <trkpt lat="47.83336" lon="6.96256">
        <ele>642</ele>
        <time>2014-03-06T10:03:03Z</time>
      </trkpt>
      <trkpt lat="47.83334" lon="6.96272">
        <ele>643</ele>
        <time>2014-03-06T10:03:11Z</time>
      </trkpt>
      <trkpt lat="47.83333" lon="6.96276">
        <ele>651</ele>
        <time>2014-03-06T10:03:13Z</time>
      </trkpt>
      <trkpt lat="47.83332" lon="6.96289">
        <ele>652</ele>
        <time>2014-03-06T10:03:23Z</time>
      </trkpt>
      <trkpt lat="47.83328" lon="6.96306">
        <ele>651</ele>
        <time>2014-03-06T10:03:31Z</time>
      </trkpt>
      <trkpt lat="47.83327" lon="6.96333">
        <ele>644</ele>
        <time>2014-03-06T10:03:41Z</time>
      </trkpt>
      <trkpt lat="47.83326" lon="6.96339">
        <ele>646</ele>
        <time>2014-03-06T10:03:44Z</time>
      </trkpt>
      <trkpt lat="47.83323" lon="6.9635">
        <ele>651</ele>
        <time>2014-03-06T10:03:51Z</time>
      </trkpt>
      <trkpt lat="47.83322" lon="6.96364">
        <ele>654</ele>
        <time>2014-03-06T10:03:58Z</time>
      </trkpt>
      <trkpt lat="47.83321" lon="6.96368">
        <ele>654</ele>
        <time>2014-03-06T10:04:00Z</time>
      </trkpt>
      <trkpt lat="47.8332" lon="6.96372">
        <ele>655</ele>
        <time>2014-03-06T10:04:02Z</time>
      </trkpt>
      <trkpt lat="47.83318" lon="6.96392">
        <ele>655</ele>
        <time>2014-03-06T10:04:14Z</time>
      </trkpt>
      <trkpt lat="47.83316" lon="6.964">
        <ele>654</ele>
        <time>2014-03-06T10:04:18Z</time>
      </trkpt>
      <trkpt lat="47.83317" lon="6.96415">
        <ele>653</ele>
        <time>2014-03-06T10:04:25Z</time>
      </trkpt>
      <trkpt lat="47.83311" lon="6.96433">
        <ele>658</ele>
        <time>2014-03-06T10:04:37Z</time>
      </trkpt>
      <trkpt lat="47.8331" lon="6.96459">
        <ele>661</ele>
        <time>2014-03-06T10:04:47Z</time>
      </trkpt>
      <trkpt lat="47.8331" lon="6.96463">
        <ele>661</ele>
        <time>2014-03-06T10:04:49Z</time>
      </trkpt>
      <trkpt lat="47.83308" lon="6.96487">
        <ele>661</ele>
        <time>2014-03-06T10:05:00Z</time>
      </trkpt>
      <trkpt lat="47.83308" lon="6.96503">
        <ele>662</ele>
        <time>2014-03-06T10:05:07Z</time>
      </trkpt>
      <trkpt lat="47.83303" lon="6.96515">
        <ele>663</ele>
        <time>2014-03-06T10:05:14Z</time>
      </trkpt>
      <trkpt lat="47.83301" lon="6.96541">
        <ele>664</ele>
        <time>2014-03-06T10:05:26Z</time>
      </trkpt>
      <trkpt lat="47.833" lon="6.96545">
        <ele>665</ele>
        <time>2014-03-06T10:05:28Z</time>
      </trkpt>
      <trkpt lat="47.83295" lon="6.96558">
        <ele>665</ele>
        <time>2014-03-06T10:05:35Z</time>
      </trkpt>
      <trkpt lat="47.83291" lon="6.96567">
        <ele>665</ele>
        <time>2014-03-06T10:05:41Z</time>
      </trkpt>
      <trkpt lat="47.83289" lon="6.96569">
        <ele>666</ele>
        <time>2014-03-06T10:05:43Z</time>
      </trkpt>
      <trkpt lat="47.83282" lon="6.96583">
        <ele>666</ele>
        <time>2014-03-06T10:05:51Z</time>
      </trkpt>
      <trkpt lat="47.83285" lon="6.96593">
        <ele>667</ele>
        <time>2014-03-06T10:05:56Z</time>
      </trkpt>
      <trkpt lat="47.83286" lon="6.96613">
        <ele>667</ele>
        <time>2014-03-06T10:06:07Z</time>
      </trkpt>
      <trkpt lat="47.83286" lon="6.96617">
        <ele>667</ele>
        <time>2014-03-06T10:06:09Z</time>
      </trkpt>
      <trkpt lat="47.83291" lon="6.96647">
        <ele>667</ele>
        <time>2014-03-06T10:06:22Z</time>
      </trkpt>
      <trkpt lat="47.83294" lon="6.96657">
        <ele>667</ele>
        <time>2014-03-06T10:06:27Z</time>
      </trkpt>
      <trkpt lat="47.83294" lon="6.96667">
        <ele>669</ele>
        <time>2014-03-06T10:06:33Z</time>
      </trkpt>
      <trkpt lat="47.83296" lon="6.96688">
        <ele>670</ele>
        <time>2014-03-06T10:06:44Z</time>
      </trkpt>
      <trkpt lat="47.83296" lon="6.96699">
        <ele>670</ele>
        <time>2014-03-06T10:06:50Z</time>
      </trkpt>
      <trkpt lat="47.83295" lon="6.96704">
        <ele>670</ele>
        <time>2014-03-06T10:06:53Z</time>
      </trkpt>
      <trkpt lat="47.83295" lon="6.96723">
        <ele>670</ele>
        <time>2014-03-06T10:07:03Z</time>
      </trkpt>
      <trkpt lat="47.83295" lon="6.96728">
        <ele>670</ele>
        <time>2014-03-06T10:07:05Z</time>
      </trkpt>
      <trkpt lat="47.83295" lon="6.96737">
        <ele>670</ele>
        <time>2014-03-06T10:07:10Z</time>
      </trkpt>
      <trkpt lat="47.83296" lon="6.96752">
        <ele>670</ele>
        <time>2014-03-06T10:07:19Z</time>
      </trkpt>
      <trkpt lat="47.83294" lon="6.96768">
        <ele>670</ele>
        <time>2014-03-06T10:07:27Z</time>
      </trkpt>
      <trkpt lat="47.83287" lon="6.96789">
        <ele>670</ele>
        <time>2014-03-06T10:07:37Z</time>
      </trkpt>
      <trkpt lat="47.83285" lon="6.96797">
        <ele>670</ele>
        <time>2014-03-06T10:07:41Z</time>
      </trkpt>
      <trkpt lat="47.83284" lon="6.96802">
        <ele>670</ele>
        <time>2014-03-06T10:07:43Z</time>
      </trkpt>
      <trkpt lat="47.83281" lon="6.96816">
        <ele>670</ele>
        <time>2014-03-06T10:07:50Z</time>
      </trkpt>
      <trkpt lat="47.8328" lon="6.96819">
        <ele>670</ele>
        <time>2014-03-06T10:07:52Z</time>
      </trkpt>
      <trkpt lat="47.83274" lon="6.96841">
        <ele>669</ele>
        <time>2014-03-06T10:08:05Z</time>
      </trkpt>
      <trkpt lat="47.83273" lon="6.96861">
        <ele>669</ele>
        <time>2014-03-06T10:08:16Z</time>
      </trkpt>
      <trkpt lat="47.83273" lon="6.96865">
        <ele>669</ele>
        <time>2014-03-06T10:08:19Z</time>
      </trkpt>
      <trkpt lat="47.83275" lon="6.96873">
        <ele>669</ele>
        <time>2014-03-06T10:08:25Z</time>
      </trkpt>
      <trkpt lat="47.83277" lon="6.96892">
        <ele>669</ele>
        <time>2014-03-06T10:08:36Z</time>
      </trkpt>
      <trkpt lat="47.83277" lon="6.96898">
        <ele>669</ele>
        <time>2014-03-06T10:08:39Z</time>
      </trkpt>
      <trkpt lat="47.83279" lon="6.96903">
        <ele>669</ele>
        <time>2014-03-06T10:08:42Z</time>
      </trkpt>
      <trkpt lat="47.83283" lon="6.96926">
        <ele>669</ele>
        <time>2014-03-06T10:08:53Z</time>
      </trkpt>
      <trkpt lat="47.83281" lon="6.96931">
        <ele>668</ele>
        <time>2014-03-06T10:08:55Z</time>
      </trkpt>
      <trkpt lat="47.83281" lon="6.96953">
        <ele>668</ele>
        <time>2014-03-06T10:09:06Z</time>
      </trkpt>
      <trkpt lat="47.83279" lon="6.96962">
        <ele>668</ele>
        <time>2014-03-06T10:09:12Z</time>
      </trkpt>
      <trkpt lat="47.8327" lon="6.96985">
        <ele>668</ele>
        <time>2014-03-06T10:09:22Z</time>
      </trkpt>
      <trkpt lat="47.83269" lon="6.96989">
        <ele>668</ele>
        <time>2014-03-06T10:09:25Z</time>
      </trkpt>
      <trkpt lat="47.83279" lon="6.97007">
        <ele>667</ele>
        <time>2014-03-06T10:09:36Z</time>
      </trkpt>
      <trkpt lat="47.83281" lon="6.97011">
        <ele>667</ele>
        <time>2014-03-06T10:09:38Z</time>
      </trkpt>
      <trkpt lat="47.83281" lon="6.97017">
        <ele>667</ele>
        <time>2014-03-06T10:09:41Z</time>
      </trkpt>
      <trkpt lat="47.83278" lon="6.97026">
        <ele>667</ele>
        <time>2014-03-06T10:09:47Z</time>
      </trkpt>
      <trkpt lat="47.83274" lon="6.97046">
        <ele>667</ele>
        <time>2014-03-06T10:09:58Z</time>
      </trkpt>
      <trkpt lat="47.8327" lon="6.97072">
        <ele>668</ele>
        <time>2014-03-06T10:10:10Z</time>
      </trkpt>
      <trkpt lat="47.8327" lon="6.97082">
        <ele>668</ele>
        <time>2014-03-06T10:10:15Z</time>
      </trkpt>
      <trkpt lat="47.83277" lon="6.97086">
        <ele>669</ele>
        <time>2014-03-06T10:10:32Z</time>
      </trkpt>
      <trkpt lat="47.83294" lon="6.97091">
        <ele>668</ele>
        <time>2014-03-06T10:10:42Z</time>
      </trkpt>
      <trkpt lat="47.83297" lon="6.97106">
        <ele>668</ele>
        <time>2014-03-06T10:10:54Z</time>
      </trkpt>
      <trkpt lat="47.83299" lon="6.97126">
        <ele>670</ele>
        <time>2014-03-06T10:11:04Z</time>
      </trkpt>
      <trkpt lat="47.83301" lon="6.97131">
        <ele>670</ele>
        <time>2014-03-06T10:11:06Z</time>
      </trkpt>
      <trkpt lat="47.83306" lon="6.97152">
        <ele>670</ele>
        <time>2014-03-06T10:11:17Z</time>
      </trkpt>
      <trkpt lat="47.83318" lon="6.97166">
        <ele>670</ele>
        <time>2014-03-06T10:11:25Z</time>
      </trkpt>
      <trkpt lat="47.83328" lon="6.97167">
        <ele>672</ele>
        <time>2014-03-06T10:11:32Z</time>
      </trkpt>
      <trkpt lat="47.83334" lon="6.97172">
        <ele>672</ele>
        <time>2014-03-06T10:11:42Z</time>
      </trkpt>
      <trkpt lat="47.83336" lon="6.97175">
        <ele>673</ele>
        <time>2014-03-06T10:11:44Z</time>
      </trkpt>
      <trkpt lat="47.83344" lon="6.97182">
        <ele>675</ele>
        <time>2014-03-06T10:11:53Z</time>
      </trkpt>
      <trkpt lat="47.8336" lon="6.97186">
        <ele>677</ele>
        <time>2014-03-06T10:12:07Z</time>
      </trkpt>
      <trkpt lat="47.83364" lon="6.97188">
        <ele>677</ele>
        <time>2014-03-06T10:12:11Z</time>
      </trkpt>
      <trkpt lat="47.83378" lon="6.97193">
        <ele>679</ele>
        <time>2014-03-06T10:12:20Z</time>
      </trkpt>
      <trkpt lat="47.83384" lon="6.97195">
        <ele>679</ele>
        <time>2014-03-06T10:12:25Z</time>
      </trkpt>
      <trkpt lat="47.8339" lon="6.97206">
        <ele>679</ele>
        <time>2014-03-06T10:12:35Z</time>
      </trkpt>
      <trkpt lat="47.83402" lon="6.9722">
        <ele>680</ele>
        <time>2014-03-06T10:12:46Z</time>
      </trkpt>
      <trkpt lat="47.8341" lon="6.97238">
        <ele>681</ele>
        <time>2014-03-06T10:12:58Z</time>
      </trkpt>
      <trkpt lat="47.83416" lon="6.97252">
        <ele>682</ele>
        <time>2014-03-06T10:13:08Z</time>
      </trkpt>
      <trkpt lat="47.83418" lon="6.97256">
        <ele>685</ele>
        <time>2014-03-06T10:13:11Z</time>
      </trkpt>
      <trkpt lat="47.83425" lon="6.97271">
        <ele>689</ele>
        <time>2014-03-06T10:13:22Z</time>
      </trkpt>
      <trkpt lat="47.83426" lon="6.97275">
        <ele>689</ele>
        <time>2014-03-06T10:13:24Z</time>
      </trkpt>
      <trkpt lat="47.83427" lon="6.97296">
        <ele>690</ele>
        <time>2014-03-06T10:13:35Z</time>
      </trkpt>
      <trkpt lat="47.83429" lon="6.97306">
        <ele>690</ele>
        <time>2014-03-06T10:13:41Z</time>
      </trkpt>
      <trkpt lat="47.83429" lon="6.9731">
        <ele>690</ele>
        <time>2014-03-06T10:13:43Z</time>
      </trkpt>
      <trkpt lat="47.83436" lon="6.97332">
        <ele>690</ele>
        <time>2014-03-06T10:13:54Z</time>
      </trkpt>
      <trkpt lat="47.83439" lon="6.97355">
        <ele>693</ele>
        <time>2014-03-06T10:14:05Z</time>
      </trkpt>
      <trkpt lat="47.8344" lon="6.97359">
        <ele>694</ele>
        <time>2014-03-06T10:14:08Z</time>
      </trkpt>
      <trkpt lat="47.83445" lon="6.97373">
        <ele>695</ele>
        <time>2014-03-06T10:14:21Z</time>
      </trkpt>
      <trkpt lat="47.83449" lon="6.97393">
        <ele>696</ele>
        <time>2014-03-06T10:14:30Z</time>
      </trkpt>
      <trkpt lat="47.83451" lon="6.97407">
        <ele>696</ele>
        <time>2014-03-06T10:14:37Z</time>
      </trkpt>
      <trkpt lat="47.83455" lon="6.97416">
        <ele>696</ele>
        <time>2014-03-06T10:14:42Z</time>
      </trkpt>
      <trkpt lat="47.83459" lon="6.97428">
        <ele>700</ele>
        <time>2014-03-06T10:14:52Z</time>
      </trkpt>
      <trkpt lat="47.8346" lon="6.97433">
        <ele>700</ele>
        <time>2014-03-06T10:14:55Z</time>
      </trkpt>
      <trkpt lat="47.83463" lon="6.97446">
        <ele>701</ele>
        <time>2014-03-06T10:15:05Z</time>
      </trkpt>
      <trkpt lat="47.83466" lon="6.9745">
        <ele>701</ele>
        <time>2014-03-06T10:15:08Z</time>
      </trkpt>
      <trkpt lat="47.83468" lon="6.97453">
        <ele>701</ele>
        <time>2014-03-06T10:15:10Z</time>
      </trkpt>
      <trkpt lat="47.83475" lon="6.97473">
        <ele>701</ele>
        <time>2014-03-06T10:15:30Z</time>
      </trkpt>
      <trkpt lat="47.83474" lon="6.97477">
        <ele>701</ele>
        <time>2014-03-06T10:15:33Z</time>
      </trkpt>
      <trkpt lat="47.83478" lon="6.97491">
        <ele>700</ele>
        <time>2014-03-06T10:15:40Z</time>
      </trkpt>
      <trkpt lat="47.8348" lon="6.97495">
        <ele>700</ele>
        <time>2014-03-06T10:15:43Z</time>
      </trkpt>
      <trkpt lat="47.83491" lon="6.97505">
        <ele>702</ele>
        <time>2014-03-06T10:15:55Z</time>
      </trkpt>
      <trkpt lat="47.83499" lon="6.97518">
        <ele>705</ele>
        <time>2014-03-06T10:16:06Z</time>
      </trkpt>
      <trkpt lat="47.83503" lon="6.97526">
        <ele>706</ele>
        <time>2014-03-06T10:16:13Z</time>
      </trkpt>
      <trkpt lat="47.83508" lon="6.97539">
        <ele>708</ele>
        <time>2014-03-06T10:16:22Z</time>
      </trkpt>
      <trkpt lat="47.83517" lon="6.97547">
        <ele>709</ele>
        <time>2014-03-06T10:16:31Z</time>
      </trkpt>
      <trkpt lat="47.83526" lon="6.97553">
        <ele>710</ele>
        <time>2014-03-06T10:16:41Z</time>
      </trkpt>
      <trkpt lat="47.83527" lon="6.97548">
        <ele>710</ele>
        <time>2014-03-06T10:17:50Z</time>
      </trkpt>
      <trkpt lat="47.83525" lon="6.9755">
        <ele>710</ele>
        <time>2014-03-06T10:18:43Z</time>
      </trkpt>
      <trkpt lat="47.83527" lon="6.97551">
        <ele>710</ele>
        <time>2014-03-06T10:19:37Z</time>
      </trkpt>
      <trkpt lat="47.83536" lon="6.97555">
        <ele>711</ele>
        <time>2014-03-06T10:19:48Z</time>
      </trkpt>
      <trkpt lat="47.83539" lon="6.97558">
        <ele>711</ele>
        <time>2014-03-06T10:19:50Z</time>
      </trkpt>
      <trkpt lat="47.83546" lon="6.97569">
        <ele>711</ele>
        <time>2014-03-06T10:20:00Z</time>
      </trkpt>
      <trkpt lat="47.83553" lon="6.97576">
        <ele>711</ele>
        <time>2014-03-06T10:20:12Z</time>
      </trkpt>
      <trkpt lat="47.83556" lon="6.97576">
        <ele>711</ele>
        <time>2014-03-06T10:20:14Z</time>
      </trkpt>
      <trkpt lat="47.83559" lon="6.97578">
        <ele>712</ele>
        <time>2014-03-06T10:20:16Z</time>
      </trkpt>
      <trkpt lat="47.83565" lon="6.97577">
        <ele>712</ele>
        <time>2014-03-06T10:20:20Z</time>
      </trkpt>
      <trkpt lat="47.83572" lon="6.97575">
        <ele>712</ele>
        <time>2014-03-06T10:20:25Z</time>
      </trkpt>
      <trkpt lat="47.83584" lon="6.97585">
        <ele>713</ele>
        <time>2014-03-06T10:20:37Z</time>
      </trkpt>
      <trkpt lat="47.83587" lon="6.97587">
        <ele>715</ele>
        <time>2014-03-06T10:20:42Z</time>
      </trkpt>
      <trkpt lat="47.83593" lon="6.97589">
        <ele>718</ele>
        <time>2014-03-06T10:20:50Z</time>
      </trkpt>
      <trkpt lat="47.83598" lon="6.97594">
        <ele>721</ele>
        <time>2014-03-06T10:21:00Z</time>
      </trkpt>
      <trkpt lat="47.83609" lon="6.97604">
        <ele>725</ele>
        <time>2014-03-06T10:21:10Z</time>
      </trkpt>
      <trkpt lat="47.83616" lon="6.97612">
        <ele>727</ele>
        <time>2014-03-06T10:21:17Z</time>
      </trkpt>
      <trkpt lat="47.83625" lon="6.9762">
        <ele>728</ele>
        <time>2014-03-06T10:21:26Z</time>
      </trkpt>
      <trkpt lat="47.83631" lon="6.97624">
        <ele>729</ele>
        <time>2014-03-06T10:21:36Z</time>
      </trkpt>
      <trkpt lat="47.83634" lon="6.97632">
        <ele>729</ele>
        <time>2014-03-06T10:21:46Z</time>
      </trkpt>
      <trkpt lat="47.83637" lon="6.97635">
        <ele>729</ele>
        <time>2014-03-06T10:21:50Z</time>
      </trkpt>
      <trkpt lat="47.83644" lon="6.97643">
        <ele>729</ele>
        <time>2014-03-06T10:21:58Z</time>
      </trkpt>
      <trkpt lat="47.83656" lon="6.97653">
        <ele>729</ele>
        <time>2014-03-06T10:22:09Z</time>
      </trkpt>
      <trkpt lat="47.83658" lon="6.97656">
        <ele>729</ele>
        <time>2014-03-06T10:22:12Z</time>
      </trkpt>
      <trkpt lat="47.83661" lon="6.97659">
        <ele>729</ele>
        <time>2014-03-06T10:22:15Z</time>
      </trkpt>
      <trkpt lat="47.83665" lon="6.97665">
        <ele>729</ele>
        <time>2014-03-06T10:22:21Z</time>
      </trkpt>
      <trkpt lat="47.83677" lon="6.97672">
        <ele>735</ele>
        <time>2014-03-06T10:22:32Z</time>
      </trkpt>
      <trkpt lat="47.83685" lon="6.97681">
        <ele>738</ele>
        <time>2014-03-06T10:22:42Z</time>
      </trkpt>
      <trkpt lat="47.83686" lon="6.97685">
        <ele>739</ele>
        <time>2014-03-06T10:22:49Z</time>
      </trkpt>
      <trkpt lat="47.83697" lon="6.97706">
        <ele>742</ele>
        <time>2014-03-06T10:23:01Z</time>
      </trkpt>
      <trkpt lat="47.83697" lon="6.97718">
        <ele>742</ele>
        <time>2014-03-06T10:23:10Z</time>
      </trkpt>
      <trkpt lat="47.83691" lon="6.97723">
        <ele>742</ele>
        <time>2014-03-06T10:23:32Z</time>
      </trkpt>
      <trkpt lat="47.83693" lon="6.97733">
        <ele>742</ele>
        <time>2014-03-06T10:23:41Z</time>
      </trkpt>
      <trkpt lat="47.83692" lon="6.97742">
        <ele>742</ele>
        <time>2014-03-06T10:23:47Z</time>
      </trkpt>
      <trkpt lat="47.83697" lon="6.97754">
        <ele>747</ele>
        <time>2014-03-06T10:23:57Z</time>
      </trkpt>
      <trkpt lat="47.83702" lon="6.97773">
        <ele>749</ele>
        <time>2014-03-06T10:24:08Z</time>
      </trkpt>
      <trkpt lat="47.8371" lon="6.97787">
        <ele>750</ele>
        <time>2014-03-06T10:24:20Z</time>
      </trkpt>
      <trkpt lat="47.83713" lon="6.97791">
        <ele>750</ele>
        <time>2014-03-06T10:24:23Z</time>
      </trkpt>
      <trkpt lat="47.83715" lon="6.97794">
        <ele>750</ele>
        <time>2014-03-06T10:24:27Z</time>
      </trkpt>
      <trkpt lat="47.83716" lon="6.97798">
        <ele>751</ele>
        <time>2014-03-06T10:24:31Z</time>
      </trkpt>
      <trkpt lat="47.8372" lon="6.97811">
        <ele>751</ele>
        <time>2014-03-06T10:24:41Z</time>
      </trkpt>
      <trkpt lat="47.83722" lon="6.97815">
        <ele>751</ele>
        <time>2014-03-06T10:24:43Z</time>
      </trkpt>
      <trkpt lat="47.83723" lon="6.97833">
        <ele>752</ele>
        <time>2014-03-06T10:24:55Z</time>
      </trkpt>
      <trkpt lat="47.83723" lon="6.97851">
        <ele>761</ele>
        <time>2014-03-06T10:25:08Z</time>
      </trkpt>
      <trkpt lat="47.83723" lon="6.97869">
        <ele>763</ele>
        <time>2014-03-06T10:25:20Z</time>
      </trkpt>
      <trkpt lat="47.83719" lon="6.97882">
        <ele>765</ele>
        <time>2014-03-06T10:25:29Z</time>
      </trkpt>
      <trkpt lat="47.83721" lon="6.97886">
        <ele>765</ele>
        <time>2014-03-06T10:25:32Z</time>
      </trkpt>
      <trkpt lat="47.83722" lon="6.979">
        <ele>765</ele>
        <time>2014-03-06T10:25:41Z</time>
      </trkpt>
      <trkpt lat="47.83724" lon="6.97909">
        <ele>765</ele>
        <time>2014-03-06T10:25:48Z</time>
      </trkpt>
      <trkpt lat="47.83727" lon="6.97909">
        <ele>764</ele>
        <time>2014-03-06T10:25:58Z</time>
      </trkpt>
      <trkpt lat="47.8373" lon="6.97909">
        <ele>764</ele>
        <time>2014-03-06T10:26:09Z</time>
      </trkpt>
      <trkpt lat="47.83732" lon="6.97906">
        <ele>764</ele>
        <time>2014-03-06T10:26:16Z</time>
      </trkpt>
      <trkpt lat="47.83729" lon="6.97907">
        <ele>764</ele>
        <time>2014-03-06T10:26:34Z</time>
      </trkpt>
      <trkpt lat="47.83726" lon="6.97908">
        <ele>765</ele>
        <time>2014-03-06T10:26:36Z</time>
      </trkpt>
      <trkpt lat="47.83724" lon="6.97909">
        <ele>765</ele>
        <time>2014-03-06T10:26:39Z</time>
      </trkpt>
      <trkpt lat="47.83725" lon="6.97914">
        <ele>765</ele>
        <time>2014-03-06T10:27:15Z</time>
      </trkpt>
      <trkpt lat="47.83725" lon="6.97931">
        <ele>772</ele>
        <time>2014-03-06T10:27:27Z</time>
      </trkpt>
      <trkpt lat="47.83723" lon="6.97936">
        <ele>773</ele>
        <time>2014-03-06T10:27:31Z</time>
      </trkpt>
      <trkpt lat="47.83716" lon="6.97951">
        <ele>776</ele>
        <time>2014-03-06T10:27:41Z</time>
      </trkpt>
      <trkpt lat="47.83712" lon="6.97971">
        <ele>777</ele>
        <time>2014-03-06T10:27:53Z</time>
      </trkpt>
      <trkpt lat="47.83711" lon="6.97975">
        <ele>777</ele>
        <time>2014-03-06T10:27:57Z</time>
      </trkpt>
      <trkpt lat="47.8371" lon="6.9798">
        <ele>778</ele>
        <time>2014-03-06T10:28:01Z</time>
      </trkpt>
      <trkpt lat="47.83705" lon="6.97997">
        <ele>779</ele>
        <time>2014-03-06T10:28:13Z</time>
      </trkpt>
      <trkpt lat="47.83702" lon="6.98011">
        <ele>783</ele>
        <time>2014-03-06T10:28:25Z</time>
      </trkpt>
      <trkpt lat="47.83701" lon="6.98016">
        <ele>783</ele>
        <time>2014-03-06T10:28:38Z</time>
      </trkpt>
      <trkpt lat="47.837" lon="6.98021">
        <ele>783</ele>
        <time>2014-03-06T10:28:41Z</time>
      </trkpt>
      <trkpt lat="47.83701" lon="6.9803">
        <ele>783</ele>
        <time>2014-03-06T10:28:47Z</time>
      </trkpt>
      <trkpt lat="47.83701" lon="6.98042">
        <ele>783</ele>
        <time>2014-03-06T10:29:00Z</time>
      </trkpt>
      <trkpt lat="47.83705" lon="6.9805">
        <ele>783</ele>
        <time>2014-03-06T10:29:10Z</time>
      </trkpt>
      <trkpt lat="47.83712" lon="6.98071">
        <ele>784</ele>
        <time>2014-03-06T10:29:18Z</time>
      </trkpt>
      <trkpt lat="47.83713" lon="6.98075">
        <ele>784</ele>
        <time>2014-03-06T10:29:21Z</time>
      </trkpt>
      <trkpt lat="47.83711" lon="6.98078">
        <ele>784</ele>
        <time>2014-03-06T10:29:24Z</time>
      </trkpt>
      <trkpt lat="47.83712" lon="6.98088">
        <ele>788</ele>
        <time>2014-03-06T10:29:40Z</time>
      </trkpt>
      <trkpt lat="47.83708" lon="6.98087">
        <ele>788</ele>
        <time>2014-03-06T10:29:43Z</time>
      </trkpt>
      <trkpt lat="47.83702" lon="6.98088">
        <ele>787</ele>
        <time>2014-03-06T10:29:58Z</time>
      </trkpt>
      <trkpt lat="47.83699" lon="6.98088">
        <ele>787</ele>
        <time>2014-03-06T10:30:01Z</time>
      </trkpt>
      <trkpt lat="47.83695" lon="6.98101">
        <ele>788</ele>
        <time>2014-03-06T10:30:12Z</time>
      </trkpt>
      <trkpt lat="47.83695" lon="6.98106">
        <ele>788</ele>
        <time>2014-03-06T10:30:16Z</time>
      </trkpt>
      <trkpt lat="47.8369" lon="6.98111">
        <ele>788</ele>
        <time>2014-03-06T10:30:27Z</time>
      </trkpt>
      <trkpt lat="47.83689" lon="6.98115">
        <ele>788</ele>
        <time>2014-03-06T10:30:31Z</time>
      </trkpt>
      <trkpt lat="47.83683" lon="6.98115">
        <ele>788</ele>
        <time>2014-03-06T10:30:41Z</time>
      </trkpt>
      <trkpt lat="47.8368" lon="6.98113">
        <ele>788</ele>
        <time>2014-03-06T10:30:44Z</time>
      </trkpt>
      <trkpt lat="47.83678" lon="6.98117">
        <ele>788</ele>
        <time>2014-03-06T10:30:49Z</time>
      </trkpt>
      <trkpt lat="47.83679" lon="6.98125">
        <ele>789</ele>
        <time>2014-03-06T10:30:59Z</time>
      </trkpt>
      <trkpt lat="47.83676" lon="6.98129">
        <ele>789</ele>
        <time>2014-03-06T10:32:42Z</time>
      </trkpt>
      <trkpt lat="47.83674" lon="6.98137">
        <ele>790</ele>
        <time>2014-03-06T10:32:52Z</time>
      </trkpt>
      <trkpt lat="47.83673" lon="6.98144">
        <ele>790</ele>
        <time>2014-03-06T10:33:04Z</time>
      </trkpt>
      <trkpt lat="47.83672" lon="6.98149">
        <ele>790</ele>
        <time>2014-03-06T10:33:25Z</time>
      </trkpt>
      <trkpt lat="47.83668" lon="6.98159">
        <ele>791</ele>
        <time>2014-03-06T10:33:37Z</time>
      </trkpt>
      <trkpt lat="47.8367" lon="6.98173">
        <ele>794</ele>
        <time>2014-03-06T10:33:50Z</time>
      </trkpt>
      <trkpt lat="47.8367" lon="6.98181">
        <ele>795</ele>
        <time>2014-03-06T10:33:56Z</time>
      </trkpt>
      <trkpt lat="47.83664" lon="6.98186">
        <ele>799</ele>
        <time>2014-03-06T10:34:08Z</time>
      </trkpt>
      <trkpt lat="47.83662" lon="6.98189">
        <ele>799</ele>
        <time>2014-03-06T10:34:13Z</time>
      </trkpt>
      <trkpt lat="47.8366" lon="6.98197">
        <ele>801</ele>
        <time>2014-03-06T10:34:21Z</time>
      </trkpt>
      <trkpt lat="47.83658" lon="6.98209">
        <ele>803</ele>
        <time>2014-03-06T10:34:32Z</time>
      </trkpt>
      <trkpt lat="47.83657" lon="6.98214">
        <ele>803</ele>
        <time>2014-03-06T10:34:38Z</time>
      </trkpt>
      <trkpt lat="47.83658" lon="6.98217">
        <ele>804</ele>
        <time>2014-03-06T10:34:49Z</time>
      </trkpt>
      <trkpt lat="47.83657" lon="6.98214">
        <ele>803</ele>
        <time>2014-03-06T10:35:00Z</time>
      </trkpt>
      <trkpt lat="47.83657" lon="6.98218">
        <ele>804</ele>
        <time>2014-03-06T10:35:12Z</time>
      </trkpt>
      <trkpt lat="47.83655" lon="6.98222">
        <ele>804</ele>
        <time>2014-03-06T10:35:27Z</time>
      </trkpt>
      <trkpt lat="47.83654" lon="6.98227">
        <ele>805</ele>
        <time>2014-03-06T10:35:30Z</time>
      </trkpt>
      <trkpt lat="47.83657" lon="6.98235">
        <ele>805</ele>
        <time>2014-03-06T10:35:45Z</time>
      </trkpt>
      <trkpt lat="47.83659" lon="6.98245">
        <ele>806</ele>
        <time>2014-03-06T10:35:55Z</time>
      </trkpt>
      <trkpt lat="47.83659" lon="6.9825">
        <ele>810</ele>
        <time>2014-03-06T10:36:05Z</time>
      </trkpt>
      <trkpt lat="47.83658" lon="6.9826">
        <ele>812</ele>
        <time>2014-03-06T10:36:14Z</time>
      </trkpt>
      <trkpt lat="47.83659" lon="6.98268">
        <ele>815</ele>
        <time>2014-03-06T10:36:22Z</time>
      </trkpt>
      <trkpt lat="47.83658" lon="6.98274">
        <ele>816</ele>
        <time>2014-03-06T10:36:26Z</time>
      </trkpt>
      <trkpt lat="47.83657" lon="6.98285">
        <ele>818</ele>
        <time>2014-03-06T10:36:33Z</time>
      </trkpt>
      <trkpt lat="47.83658" lon="6.98297">
        <ele>821</ele>
        <time>2014-03-06T10:36:47Z</time>
      </trkpt>
      <trkpt lat="47.8366" lon="6.98293">
        <ele>820</ele>
        <time>2014-03-06T10:37:12Z</time>
      </trkpt>
      <trkpt lat="47.83662" lon="6.98297">
        <ele>820</ele>
        <time>2014-03-06T10:37:46Z</time>
      </trkpt>
      <trkpt lat="47.8366" lon="6.98308">
        <ele>822</ele>
        <time>2014-03-06T10:38:03Z</time>
      </trkpt>
      <trkpt lat="47.83659" lon="6.98321">
        <ele>824</ele>
        <time>2014-03-06T10:38:13Z</time>
      </trkpt>
      <trkpt lat="47.83661" lon="6.98336">
        <ele>831</ele>
        <time>2014-03-06T10:38:24Z</time>
      </trkpt>
      <trkpt lat="47.8366" lon="6.9834">
        <ele>833</ele>
        <time>2014-03-06T10:38:28Z</time>
      </trkpt>
      <trkpt lat="47.83657" lon="6.98347">
        <ele>836</ele>
        <time>2014-03-06T10:38:49Z</time>
      </trkpt>
      <trkpt lat="47.83659" lon="6.98351">
        <ele>837</ele>
        <time>2014-03-06T10:38:54Z</time>
      </trkpt>
      <trkpt lat="47.83659" lon="6.98358">
        <ele>840</ele>
        <time>2014-03-06T10:39:16Z</time>
      </trkpt>
      <trkpt lat="47.83662" lon="6.98359">
        <ele>840</ele>
        <time>2014-03-06T10:40:32Z</time>
      </trkpt>
      <trkpt lat="47.83663" lon="6.98364">
        <ele>841</ele>
        <time>2014-03-06T10:40:36Z</time>
      </trkpt>
      <trkpt lat="47.83664" lon="6.98385">
        <ele>847</ele>
        <time>2014-03-06T10:40:48Z</time>
      </trkpt>
      <trkpt lat="47.83667" lon="6.98387">
        <ele>848</ele>
        <time>2014-03-06T10:40:51Z</time>
      </trkpt>
      <trkpt lat="47.83668" lon="6.98391">
        <ele>843</ele>
        <time>2014-03-06T10:40:54Z</time>
      </trkpt>
      <trkpt lat="47.83673" lon="6.98405">
        <ele>848</ele>
        <time>2014-03-06T10:41:04Z</time>
      </trkpt>
      <trkpt lat="47.83682" lon="6.98426">
        <ele>862</ele>
        <time>2014-03-06T10:41:15Z</time>
      </trkpt>
      <trkpt lat="47.83691" lon="6.98444">
        <ele>866</ele>
        <time>2014-03-06T10:41:25Z</time>
      </trkpt>
      <trkpt lat="47.83698" lon="6.98455">
        <ele>868</ele>
        <time>2014-03-06T10:41:37Z</time>
      </trkpt>
      <trkpt lat="47.837" lon="6.98459">
        <ele>868</ele>
        <time>2014-03-06T10:41:40Z</time>
      </trkpt>
      <trkpt lat="47.83702" lon="6.98463">
        <ele>869</ele>
        <time>2014-03-06T10:41:53Z</time>
      </trkpt>
      <trkpt lat="47.83705" lon="6.9847">
        <ele>870</ele>
        <time>2014-03-06T10:42:14Z</time>
      </trkpt>
      <trkpt lat="47.83708" lon="6.98478">
        <ele>871</ele>
        <time>2014-03-06T10:43:26Z</time>
      </trkpt>
      <trkpt lat="47.83713" lon="6.98488">
        <ele>873</ele>
        <time>2014-03-06T10:43:45Z</time>
      </trkpt>
      <trkpt lat="47.83718" lon="6.98492">
        <ele>873</ele>
        <time>2014-03-06T10:43:57Z</time>
      </trkpt>
      <trkpt lat="47.83722" lon="6.98501">
        <ele>892</ele>
        <time>2014-03-06T10:44:08Z</time>
      </trkpt>
      <trkpt lat="47.83725" lon="6.98512">
        <ele>893</ele>
        <time>2014-03-06T10:44:18Z</time>
      </trkpt>
      <trkpt lat="47.83728" lon="6.98519">
        <ele>894</ele>
        <time>2014-03-06T10:44:25Z</time>
      </trkpt>
      <trkpt lat="47.83731" lon="6.98522">
        <ele>894</ele>
        <time>2014-03-06T10:44:33Z</time>
      </trkpt>
      <trkpt lat="47.83742" lon="6.9854">
        <ele>899</ele>
        <time>2014-03-06T10:44:43Z</time>
      </trkpt>
      <trkpt lat="47.83746" lon="6.98547">
        <ele>900</ele>
        <time>2014-03-06T10:44:55Z</time>
      </trkpt>
      <trkpt lat="47.83748" lon="6.98551">
        <ele>902</ele>
        <time>2014-03-06T10:45:00Z</time>
      </trkpt>
      <trkpt lat="47.8375" lon="6.98553">
        <ele>897</ele>
        <time>2014-03-06T10:45:04Z</time>
      </trkpt>
      <trkpt lat="47.83754" lon="6.98559">
        <ele>899</ele>
        <time>2014-03-06T10:45:13Z</time>
      </trkpt>
      <trkpt lat="47.83763" lon="6.98567">
        <ele>901</ele>
        <time>2014-03-06T10:45:24Z</time>
      </trkpt>
      <trkpt lat="47.83766" lon="6.98567">
        <ele>900</ele>
        <time>2014-03-06T10:45:34Z</time>
      </trkpt>
      <trkpt lat="47.83771" lon="6.98568">
        <ele>899</ele>
        <time>2014-03-06T10:45:47Z</time>
      </trkpt>
      <trkpt lat="47.83773" lon="6.98575">
        <ele>900</ele>
        <time>2014-03-06T10:45:57Z</time>
      </trkpt>
      <trkpt lat="47.83776" lon="6.98576">
        <ele>900</ele>
        <time>2014-03-06T10:46:08Z</time>
      </trkpt>
      <trkpt lat="47.83778" lon="6.9858">
        <ele>900</ele>
        <time>2014-03-06T10:46:24Z</time>
      </trkpt>
      <trkpt lat="47.83782" lon="6.98589">
        <ele>920</ele>
        <time>2014-03-06T10:46:36Z</time>
      </trkpt>
      <trkpt lat="47.83785" lon="6.98591">
        <ele>920</ele>
        <time>2014-03-06T10:46:51Z</time>
      </trkpt>
      <trkpt lat="47.83788" lon="6.98592">
        <ele>920</ele>
        <time>2014-03-06T10:46:56Z</time>
      </trkpt>
      <trkpt lat="47.83792" lon="6.986">
        <ele>921</ele>
        <time>2014-03-06T10:47:04Z</time>
      </trkpt>
      <trkpt lat="47.83793" lon="6.98604">
        <ele>922</ele>
        <time>2014-03-06T10:47:09Z</time>
      </trkpt>
      <trkpt lat="47.83797" lon="6.9861">
        <ele>922</ele>
        <time>2014-03-06T10:47:26Z</time>
      </trkpt>
      <trkpt lat="47.838" lon="6.98612">
        <ele>922</ele>
        <time>2014-03-06T10:47:34Z</time>
      </trkpt>
      <trkpt lat="47.83802" lon="6.98612">
        <ele>922</ele>
        <time>2014-03-06T10:47:38Z</time>
      </trkpt>
      <trkpt lat="47.83805" lon="6.98614">
        <ele>922</ele>
        <time>2014-03-06T10:47:48Z</time>
      </trkpt>
      <trkpt lat="47.83808" lon="6.98621">
        <ele>924</ele>
        <time>2014-03-06T10:48:01Z</time>
      </trkpt>
      <trkpt lat="47.83811" lon="6.98624">
        <ele>924</ele>
        <time>2014-03-06T10:48:06Z</time>
      </trkpt>
      <trkpt lat="47.83815" lon="6.98632">
        <ele>926</ele>
        <time>2014-03-06T10:48:16Z</time>
      </trkpt>
      <trkpt lat="47.83819" lon="6.98638">
        <ele>927</ele>
        <time>2014-03-06T10:48:30Z</time>
      </trkpt>
      <trkpt lat="47.83822" lon="6.9864">
        <ele>927</ele>
        <time>2014-03-06T10:48:38Z</time>
      </trkpt>
      <trkpt lat="47.83833" lon="6.98647">
        <ele>929</ele>
        <time>2014-03-06T10:48:51Z</time>
      </trkpt>
      <trkpt lat="47.83844" lon="6.98656">
        <ele>927</ele>
        <time>2014-03-06T10:49:00Z</time>
      </trkpt>
      <trkpt lat="47.83845" lon="6.9866">
        <ele>928</ele>
        <time>2014-03-06T10:49:04Z</time>
      </trkpt>
      <trkpt lat="47.83849" lon="6.98666">
        <ele>927</ele>
        <time>2014-03-06T10:49:17Z</time>
      </trkpt>
      <trkpt lat="47.83852" lon="6.98668">
        <ele>941</ele>
        <time>2014-03-06T10:49:26Z</time>
      </trkpt>
      <trkpt lat="47.83856" lon="6.98675">
        <ele>942</ele>
        <time>2014-03-06T10:49:39Z</time>
      </trkpt>
      <trkpt lat="47.83863" lon="6.98684">
        <ele>943</ele>
        <time>2014-03-06T10:49:51Z</time>
      </trkpt>
      <trkpt lat="47.83869" lon="6.98695">
        <ele>945</ele>
        <time>2014-03-06T10:50:02Z</time>
      </trkpt>
      <trkpt lat="47.83871" lon="6.98699">
        <ele>946</ele>
        <time>2014-03-06T10:50:05Z</time>
      </trkpt>
      <trkpt lat="47.83874" lon="6.98702">
        <ele>946</ele>
        <time>2014-03-06T10:50:08Z</time>
      </trkpt>
      <trkpt lat="47.83883" lon="6.98708">
        <ele>947</ele>
        <time>2014-03-06T10:50:20Z</time>
      </trkpt>
      <trkpt lat="47.83892" lon="6.98715">
        <ele>948</ele>
        <time>2014-03-06T10:50:30Z</time>
      </trkpt>
      <trkpt lat="47.83895" lon="6.98717">
        <ele>949</ele>
        <time>2014-03-06T10:50:33Z</time>
      </trkpt>
      <trkpt lat="47.83899" lon="6.98722">
        <ele>950</ele>
        <time>2014-03-06T10:50:38Z</time>
      </trkpt>
      <trkpt lat="47.83902" lon="6.98724">
        <ele>951</ele>
        <time>2014-03-06T10:50:50Z</time>
      </trkpt>
      <trkpt lat="47.83908" lon="6.98726">
        <ele>952</ele>
        <time>2014-03-06T10:51:00Z</time>
      </trkpt>
      <trkpt lat="47.83911" lon="6.98729">
        <ele>953</ele>
        <time>2014-03-06T10:51:03Z</time>
      </trkpt>
      <trkpt lat="47.83915" lon="6.98733">
        <ele>954</ele>
        <time>2014-03-06T10:51:14Z</time>
      </trkpt>
      <trkpt lat="47.83923" lon="6.98742">
        <ele>955</ele>
        <time>2014-03-06T10:51:25Z</time>
      </trkpt>
      <trkpt lat="47.83927" lon="6.98749">
        <ele>955</ele>
        <time>2014-03-06T10:51:31Z</time>
      </trkpt>
      <trkpt lat="47.83933" lon="6.98756">
        <ele>963</ele>
        <time>2014-03-06T10:51:37Z</time>
      </trkpt>
      <trkpt lat="47.83942" lon="6.98771">
        <ele>964</ele>
        <time>2014-03-06T10:51:56Z</time>
      </trkpt>
      <trkpt lat="47.83953" lon="6.9879">
        <ele>965</ele>
        <time>2014-03-06T10:52:07Z</time>
      </trkpt>
      <trkpt lat="47.83965" lon="6.98804">
        <ele>966</ele>
        <time>2014-03-06T10:52:18Z</time>
      </trkpt>
      <trkpt lat="47.83973" lon="6.98814">
        <ele>967</ele>
        <time>2014-03-06T10:52:27Z</time>
      </trkpt>
      <trkpt lat="47.83986" lon="6.98826">
        <ele>968</ele>
        <time>2014-03-06T10:52:38Z</time>
      </trkpt>
      <trkpt lat="47.83992" lon="6.98831">
        <ele>969</ele>
        <time>2014-03-06T10:52:44Z</time>
      </trkpt>
      <trkpt lat="47.84005" lon="6.98842">
        <ele>974</ele>
        <time>2014-03-06T10:52:55Z</time>
      </trkpt>
      <trkpt lat="47.84018" lon="6.98848">
        <ele>976</ele>
        <time>2014-03-06T10:53:05Z</time>
      </trkpt>
      <trkpt lat="47.84028" lon="6.98848">
        <ele>977</ele>
        <time>2014-03-06T10:53:15Z</time>
      </trkpt>
      <trkpt lat="47.84031" lon="6.98859">
        <ele>978</ele>
        <time>2014-03-06T10:53:26Z</time>
      </trkpt>
      <trkpt lat="47.84032" lon="6.98863">
        <ele>978</ele>
        <time>2014-03-06T10:53:30Z</time>
      </trkpt>
      <trkpt lat="47.84036" lon="6.98868">
        <ele>979</ele>
        <time>2014-03-06T10:54:03Z</time>
      </trkpt>
      <trkpt lat="47.84034" lon="6.98872">
        <ele>979</ele>
        <time>2014-03-06T10:54:22Z</time>
      </trkpt>
      <trkpt lat="47.84032" lon="6.98874">
        <ele>979</ele>
        <time>2014-03-06T10:54:25Z</time>
      </trkpt>
      <trkpt lat="47.84032" lon="6.9888">
        <ele>979</ele>
        <time>2014-03-06T10:54:38Z</time>
      </trkpt>
      <trkpt lat="47.84032" lon="6.98886">
        <ele>979</ele>
        <time>2014-03-06T10:54:41Z</time>
      </trkpt>
      <trkpt lat="47.8403" lon="6.98891">
        <ele>979</ele>
        <time>2014-03-06T10:54:44Z</time>
      </trkpt>
      <trkpt lat="47.84029" lon="6.98906">
        <ele>980</ele>
        <time>2014-03-06T10:54:54Z</time>
      </trkpt>
      <trkpt lat="47.84025" lon="6.98925">
        <ele>980</ele>
        <time>2014-03-06T10:55:05Z</time>
      </trkpt>
      <trkpt lat="47.84017" lon="6.9894">
        <ele>980</ele>
        <time>2014-03-06T10:55:16Z</time>
      </trkpt>
      <trkpt lat="47.84007" lon="6.98953">
        <ele>979</ele>
        <time>2014-03-06T10:55:27Z</time>
      </trkpt>
      <trkpt lat="47.84" lon="6.98964">
        <ele>977</ele>
        <time>2014-03-06T10:55:40Z</time>
      </trkpt>
      <trkpt lat="47.83993" lon="6.98972">
        <ele>977</ele>
        <time>2014-03-06T10:55:51Z</time>
      </trkpt>
      <trkpt lat="47.83983" lon="6.98979">
        <ele>977</ele>
        <time>2014-03-06T10:56:02Z</time>
      </trkpt>
      <trkpt lat="47.83971" lon="6.98985">
        <ele>977</ele>
        <time>2014-03-06T10:56:11Z</time>
      </trkpt>
      <trkpt lat="47.83959" lon="6.98992">
        <ele>978</ele>
        <time>2014-03-06T10:56:21Z</time>
      </trkpt>
      <trkpt lat="47.83954" lon="6.98996">
        <ele>978</ele>
        <time>2014-03-06T10:56:44Z</time>
      </trkpt>
      <trkpt lat="47.83941" lon="6.99005">
        <ele>974</ele>
        <time>2014-03-06T10:56:56Z</time>
      </trkpt>
      <trkpt lat="47.83938" lon="6.99007">
        <ele>974</ele>
        <time>2014-03-06T10:56:59Z</time>
      </trkpt>
      <trkpt lat="47.83926" lon="6.99015">
        <ele>975</ele>
        <time>2014-03-06T10:57:11Z</time>
      </trkpt>
      <trkpt lat="47.83914" lon="6.99023">
        <ele>976</ele>
        <time>2014-03-06T10:57:22Z</time>
      </trkpt>
      <trkpt lat="47.83909" lon="6.99027">
        <ele>976</ele>
        <time>2014-03-06T10:57:28Z</time>
      </trkpt>
      <trkpt lat="47.83896" lon="6.99036">
        <ele>976</ele>
        <time>2014-03-06T10:57:40Z</time>
      </trkpt>
      <trkpt lat="47.83887" lon="6.99041">
        <ele>975</ele>
        <time>2014-03-06T10:57:52Z</time>
      </trkpt>
      <trkpt lat="47.83872" lon="6.9905">
        <ele>975</ele>
        <time>2014-03-06T10:58:04Z</time>
      </trkpt>
      <trkpt lat="47.83861" lon="6.99059">
        <ele>975</ele>
        <time>2014-03-06T10:58:14Z</time>
      </trkpt>
      <trkpt lat="47.83849" lon="6.99065">
        <ele>974</ele>
        <time>2014-03-06T10:58:24Z</time>
      </trkpt>
      <trkpt lat="47.83842" lon="6.9907">
        <ele>974</ele>
        <time>2014-03-06T10:58:30Z</time>
      </trkpt>
      <trkpt lat="47.83831" lon="6.99082">
        <ele>973</ele>
        <time>2014-03-06T10:58:43Z</time>
      </trkpt>
      <trkpt lat="47.83826" lon="6.99085">
        <ele>971</ele>
        <time>2014-03-06T10:58:56Z</time>
      </trkpt>
      <trkpt lat="47.83827" lon="6.9908">
        <ele>975</ele>
        <time>2014-03-06T10:59:11Z</time>
      </trkpt>
      <trkpt lat="47.83841" lon="6.99076">
        <ele>973</ele>
        <time>2014-03-06T12:25:31Z</time>
      </trkpt>
      <trkpt lat="47.83842" lon="6.99072">
        <ele>974</ele>
        <time>2014-03-06T12:25:43Z</time>
      </trkpt>
      <trkpt lat="47.83846" lon="6.99069">
        <ele>974</ele>
        <time>2014-03-06T12:25:48Z</time>
      </trkpt>
      <trkpt lat="47.83849" lon="6.99062">
        <ele>975</ele>
        <time>2014-03-06T12:27:03Z</time>
      </trkpt>
      <trkpt lat="47.83857" lon="6.99058">
        <ele>975</ele>
        <time>2014-03-06T12:27:13Z</time>
      </trkpt>
      <trkpt lat="47.83871" lon="6.99049">
        <ele>975</ele>
        <time>2014-03-06T12:27:25Z</time>
      </trkpt>
      <trkpt lat="47.83883" lon="6.99039">
        <ele>976</ele>
        <time>2014-03-06T12:27:37Z</time>
      </trkpt>
      <trkpt lat="47.83895" lon="6.9903">
        <ele>976</ele>
        <time>2014-03-06T12:27:49Z</time>
      </trkpt>
      <trkpt lat="47.8391" lon="6.99024">
        <ele>976</ele>
        <time>2014-03-06T12:28:01Z</time>
      </trkpt>
      <trkpt lat="47.83921" lon="6.99017">
        <ele>975</ele>
        <time>2014-03-06T12:28:13Z</time>
      </trkpt>
      <trkpt lat="47.83933" lon="6.9901">
        <ele>975</ele>
        <time>2014-03-06T12:28:23Z</time>
      </trkpt>
      <trkpt lat="47.83946" lon="6.99003">
        <ele>974</ele>
        <time>2014-03-06T12:28:33Z</time>
      </trkpt>
      <trkpt lat="47.83958" lon="6.98995">
        <ele>978</ele>
        <time>2014-03-06T12:28:43Z</time>
      </trkpt>
      <trkpt lat="47.83972" lon="6.98988">
        <ele>977</ele>
        <time>2014-03-06T12:28:55Z</time>
      </trkpt>
      <trkpt lat="47.83984" lon="6.98981">
        <ele>977</ele>
        <time>2014-03-06T12:29:07Z</time>
      </trkpt>
      <trkpt lat="47.83996" lon="6.98973">
        <ele>977</ele>
        <time>2014-03-06T12:29:18Z</time>
      </trkpt>
      <trkpt lat="47.84002" lon="6.98968">
        <ele>979</ele>
        <time>2014-03-06T12:29:32Z</time>
      </trkpt>
      <trkpt lat="47.84014" lon="6.98961">
        <ele>979</ele>
        <time>2014-03-06T12:29:42Z</time>
      </trkpt>
      <trkpt lat="47.84016" lon="6.98955">
        <ele>980</ele>
        <time>2014-03-06T12:29:44Z</time>
      </trkpt>
      <trkpt lat="47.84018" lon="6.98952">
        <ele>980</ele>
        <time>2014-03-06T12:29:46Z</time>
      </trkpt>
      <trkpt lat="47.84029" lon="6.98942">
        <ele>980</ele>
        <time>2014-03-06T12:29:56Z</time>
      </trkpt>
      <trkpt lat="47.84035" lon="6.98925">
        <ele>981</ele>
        <time>2014-03-06T12:30:07Z</time>
      </trkpt>
      <trkpt lat="47.84034" lon="6.98922">
        <ele>981</ele>
        <time>2014-03-06T12:30:10Z</time>
      </trkpt>
      <trkpt lat="47.84037" lon="6.98908">
        <ele>980</ele>
        <time>2014-03-06T12:30:20Z</time>
      </trkpt>
      <trkpt lat="47.84038" lon="6.98903">
        <ele>980</ele>
        <time>2014-03-06T12:30:23Z</time>
      </trkpt>
      <trkpt lat="47.84037" lon="6.98888">
        <ele>980</ele>
        <time>2014-03-06T12:30:32Z</time>
      </trkpt>
      <trkpt lat="47.84038" lon="6.98874">
        <ele>979</ele>
        <time>2014-03-06T12:31:16Z</time>
      </trkpt>
      <trkpt lat="47.8404" lon="6.98871">
        <ele>979</ele>
        <time>2014-03-06T12:31:19Z</time>
      </trkpt>
      <trkpt lat="47.84055" lon="6.98861">
        <ele>980</ele>
        <time>2014-03-06T12:31:30Z</time>
      </trkpt>
      <trkpt lat="47.84064" lon="6.98854">
        <ele>980</ele>
        <time>2014-03-06T12:31:40Z</time>
      </trkpt>
      <trkpt lat="47.84065" lon="6.98851">
        <ele>980</ele>
        <time>2014-03-06T12:31:55Z</time>
      </trkpt>
      <trkpt lat="47.84068" lon="6.98847">
        <ele>981</ele>
        <time>2014-03-06T12:31:58Z</time>
      </trkpt>
      <trkpt lat="47.84081" lon="6.98831">
        <ele>981</ele>
        <time>2014-03-06T12:32:09Z</time>
      </trkpt>
      <trkpt lat="47.84083" lon="6.98828">
        <ele>980</ele>
        <time>2014-03-06T12:32:11Z</time>
      </trkpt>
      <trkpt lat="47.84085" lon="6.98825">
        <ele>986</ele>
        <time>2014-03-06T12:32:13Z</time>
      </trkpt>
      <trkpt lat="47.84091" lon="6.98812">
        <ele>990</ele>
        <time>2014-03-06T12:32:24Z</time>
      </trkpt>
      <trkpt lat="47.84093" lon="6.98804">
        <ele>991</ele>
        <time>2014-03-06T12:32:30Z</time>
      </trkpt>
      <trkpt lat="47.84095" lon="6.98786">
        <ele>991</ele>
        <time>2014-03-06T12:32:42Z</time>
      </trkpt>
      <trkpt lat="47.84095" lon="6.98782">
        <ele>990</ele>
        <time>2014-03-06T12:32:44Z</time>
      </trkpt>
      <trkpt lat="47.84095" lon="6.98777">
        <ele>989</ele>
        <time>2014-03-06T12:32:46Z</time>
      </trkpt>
      <trkpt lat="47.84095" lon="6.98772">
        <ele>988</ele>
        <time>2014-03-06T12:32:48Z</time>
      </trkpt>
      <trkpt lat="47.84097" lon="6.98757">
        <ele>985</ele>
        <time>2014-03-06T12:32:55Z</time>
      </trkpt>
      <trkpt lat="47.84097" lon="6.98735">
        <ele>983</ele>
        <time>2014-03-06T12:33:05Z</time>
      </trkpt>
      <trkpt lat="47.84097" lon="6.9873">
        <ele>983</ele>
        <time>2014-03-06T12:33:07Z</time>
      </trkpt>
      <trkpt lat="47.84101" lon="6.98714">
        <ele>984</ele>
        <time>2014-03-06T12:33:22Z</time>
      </trkpt>
      <trkpt lat="47.84102" lon="6.98695">
        <ele>982</ele>
        <time>2014-03-06T12:33:31Z</time>
      </trkpt>
      <trkpt lat="47.84103" lon="6.98684">
        <ele>980</ele>
        <time>2014-03-06T12:33:37Z</time>
      </trkpt>
      <trkpt lat="47.84107" lon="6.98662">
        <ele>970</ele>
        <time>2014-03-06T12:33:49Z</time>
      </trkpt>
      <trkpt lat="47.84114" lon="6.98641">
        <ele>972</ele>
        <time>2014-03-06T12:34:02Z</time>
      </trkpt>
      <trkpt lat="47.84119" lon="6.98628">
        <ele>972</ele>
        <time>2014-03-06T12:34:09Z</time>
      </trkpt>
      <trkpt lat="47.84122" lon="6.9862">
        <ele>972</ele>
        <time>2014-03-06T12:34:28Z</time>
      </trkpt>
      <trkpt lat="47.84124" lon="6.98616">
        <ele>972</ele>
        <time>2014-03-06T12:34:42Z</time>
      </trkpt>
      <trkpt lat="47.84129" lon="6.98609">
        <ele>973</ele>
        <time>2014-03-06T12:34:46Z</time>
      </trkpt>
      <trkpt lat="47.8414" lon="6.9859">
        <ele>975</ele>
        <time>2014-03-06T12:34:56Z</time>
      </trkpt>
      <trkpt lat="47.84145" lon="6.98587">
        <ele>976</ele>
        <time>2014-03-06T12:35:00Z</time>
      </trkpt>
      <trkpt lat="47.84157" lon="6.98571">
        <ele>973</ele>
        <time>2014-03-06T12:35:12Z</time>
      </trkpt>
      <trkpt lat="47.84159" lon="6.98566">
        <ele>971</ele>
        <time>2014-03-06T12:35:15Z</time>
      </trkpt>
      <trkpt lat="47.84162" lon="6.98549">
        <ele>968</ele>
        <time>2014-03-06T12:35:25Z</time>
      </trkpt>
      <trkpt lat="47.84163" lon="6.98545">
        <ele>968</ele>
        <time>2014-03-06T12:35:30Z</time>
      </trkpt>
      <trkpt lat="47.84163" lon="6.98541">
        <ele>968</ele>
        <time>2014-03-06T12:35:34Z</time>
      </trkpt>
      <trkpt lat="47.84163" lon="6.98526">
        <ele>968</ele>
        <time>2014-03-06T12:35:45Z</time>
      </trkpt>
      <trkpt lat="47.84165" lon="6.98518">
        <ele>970</ele>
        <time>2014-03-06T12:35:53Z</time>
      </trkpt>
      <trkpt lat="47.84165" lon="6.98513">
        <ele>972</ele>
        <time>2014-03-06T12:35:56Z</time>
      </trkpt>
      <trkpt lat="47.84163" lon="6.98493">
        <ele>974</ele>
        <time>2014-03-06T12:36:06Z</time>
      </trkpt>
      <trkpt lat="47.84162" lon="6.98488">
        <ele>973</ele>
        <time>2014-03-06T12:36:09Z</time>
      </trkpt>
      <trkpt lat="47.8416" lon="6.98469">
        <ele>969</ele>
        <time>2014-03-06T12:36:19Z</time>
      </trkpt>
      <trkpt lat="47.84158" lon="6.98464">
        <ele>969</ele>
        <time>2014-03-06T12:36:21Z</time>
      </trkpt>
      <trkpt lat="47.84158" lon="6.98459">
        <ele>969</ele>
        <time>2014-03-06T12:36:23Z</time>
      </trkpt>
      <trkpt lat="47.84157" lon="6.98455">
        <ele>970</ele>
        <time>2014-03-06T12:36:25Z</time>
      </trkpt>
      <trkpt lat="47.84148" lon="6.98437">
        <ele>971</ele>
        <time>2014-03-06T12:36:35Z</time>
      </trkpt>
      <trkpt lat="47.84146" lon="6.98433">
        <ele>971</ele>
        <time>2014-03-06T12:36:38Z</time>
      </trkpt>
      <trkpt lat="47.84138" lon="6.98422">
        <ele>970</ele>
        <time>2014-03-06T12:36:46Z</time>
      </trkpt>
      <trkpt lat="47.84129" lon="6.9841">
        <ele>973</ele>
        <time>2014-03-06T12:36:58Z</time>
      </trkpt>
      <trkpt lat="47.84122" lon="6.98398">
        <ele>971</ele>
        <time>2014-03-06T12:37:10Z</time>
      </trkpt>
      <trkpt lat="47.84117" lon="6.9838">
        <ele>971</ele>
        <time>2014-03-06T12:37:24Z</time>
      </trkpt>
      <trkpt lat="47.84114" lon="6.9836">
        <ele>971</ele>
        <time>2014-03-06T12:37:37Z</time>
      </trkpt>
      <trkpt lat="47.84113" lon="6.98354">
        <ele>971</ele>
        <time>2014-03-06T12:37:40Z</time>
      </trkpt>
      <trkpt lat="47.84113" lon="6.98349">
        <ele>971</ele>
        <time>2014-03-06T12:37:43Z</time>
      </trkpt>
      <trkpt lat="47.84114" lon="6.98335">
        <ele>971</ele>
        <time>2014-03-06T12:37:51Z</time>
      </trkpt>
      <trkpt lat="47.84113" lon="6.98326">
        <ele>976</ele>
        <time>2014-03-06T12:37:56Z</time>
      </trkpt>
      <trkpt lat="47.84114" lon="6.98299">
        <ele>978</ele>
        <time>2014-03-06T12:38:09Z</time>
      </trkpt>
      <trkpt lat="47.84115" lon="6.98295">
        <ele>979</ele>
        <time>2014-03-06T12:38:13Z</time>
      </trkpt>
      <trkpt lat="47.84114" lon="6.98284">
        <ele>979</ele>
        <time>2014-03-06T12:38:18Z</time>
      </trkpt>
      <trkpt lat="47.84116" lon="6.98269">
        <ele>979</ele>
        <time>2014-03-06T12:38:26Z</time>
      </trkpt>
      <trkpt lat="47.84114" lon="6.98265">
        <ele>979</ele>
        <time>2014-03-06T12:38:36Z</time>
      </trkpt>
      <trkpt lat="47.84114" lon="6.98242">
        <ele>981</ele>
        <time>2014-03-06T12:38:48Z</time>
      </trkpt>
      <trkpt lat="47.84114" lon="6.98233">
        <ele>982</ele>
        <time>2014-03-06T12:38:54Z</time>
      </trkpt>
      <trkpt lat="47.84114" lon="6.98228">
        <ele>982</ele>
        <time>2014-03-06T12:38:57Z</time>
      </trkpt>
      <trkpt lat="47.84109" lon="6.98211">
        <ele>982</ele>
        <time>2014-03-06T12:39:09Z</time>
      </trkpt>
      <trkpt lat="47.84105" lon="6.98192">
        <ele>981</ele>
        <time>2014-03-06T12:39:19Z</time>
      </trkpt>
      <trkpt lat="47.84102" lon="6.98182">
        <ele>980</ele>
        <time>2014-03-06T12:39:23Z</time>
      </trkpt>
      <trkpt lat="47.84096" lon="6.9817">
        <ele>976</ele>
        <time>2014-03-06T12:39:33Z</time>
      </trkpt>
      <trkpt lat="47.84094" lon="6.98159">
        <ele>975</ele>
        <time>2014-03-06T12:39:37Z</time>
      </trkpt>
      <trkpt lat="47.84091" lon="6.98146">
        <ele>976</ele>
        <time>2014-03-06T12:39:44Z</time>
      </trkpt>
      <trkpt lat="47.84089" lon="6.98132">
        <ele>976</ele>
        <time>2014-03-06T12:39:55Z</time>
      </trkpt>
      <trkpt lat="47.84092" lon="6.9812">
        <ele>976</ele>
        <time>2014-03-06T12:40:07Z</time>
      </trkpt>
      <trkpt lat="47.84096" lon="6.98103">
        <ele>973</ele>
        <time>2014-03-06T12:40:19Z</time>
      </trkpt>
      <trkpt lat="47.84097" lon="6.98093">
        <ele>971</ele>
        <time>2014-03-06T12:40:23Z</time>
      </trkpt>
      <trkpt lat="47.84101" lon="6.98076">
        <ele>964</ele>
        <time>2014-03-06T12:40:34Z</time>
      </trkpt>
      <trkpt lat="47.84107" lon="6.98048">
        <ele>964</ele>
        <time>2014-03-06T12:40:44Z</time>
      </trkpt>
      <trkpt lat="47.84107" lon="6.98036">
        <ele>962</ele>
        <time>2014-03-06T12:40:48Z</time>
      </trkpt>
      <trkpt lat="47.84107" lon="6.9803">
        <ele>961</ele>
        <time>2014-03-06T12:40:50Z</time>
      </trkpt>
      <trkpt lat="47.84108" lon="6.98019">
        <ele>959</ele>
        <time>2014-03-06T12:40:54Z</time>
      </trkpt>
      <trkpt lat="47.84112" lon="6.98019">
        <ele>960</ele>
        <time>2014-03-06T12:40:57Z</time>
      </trkpt>
      <trkpt lat="47.84114" lon="6.98016">
        <ele>961</ele>
        <time>2014-03-06T12:41:00Z</time>
      </trkpt>
      <trkpt lat="47.84123" lon="6.98011">
        <ele>962</ele>
        <time>2014-03-06T12:41:10Z</time>
      </trkpt>
      <trkpt lat="47.84126" lon="6.98009">
        <ele>963</ele>
        <time>2014-03-06T12:41:13Z</time>
      </trkpt>
      <trkpt lat="47.84136" lon="6.9801">
        <ele>966</ele>
        <time>2014-03-06T12:41:21Z</time>
      </trkpt>
      <trkpt lat="47.8414" lon="6.98003">
        <ele>966</ele>
        <time>2014-03-06T12:41:26Z</time>
      </trkpt>
      <trkpt lat="47.84143" lon="6.97994">
        <ele>955</ele>
        <time>2014-03-06T12:41:36Z</time>
      </trkpt>
      <trkpt lat="47.84146" lon="6.97996">
        <ele>956</ele>
        <time>2014-03-06T12:41:49Z</time>
      </trkpt>
      <trkpt lat="47.84153" lon="6.97982">
        <ele>956</ele>
        <time>2014-03-06T12:42:01Z</time>
      </trkpt>
      <trkpt lat="47.84159" lon="6.97968">
        <ele>952</ele>
        <time>2014-03-06T12:42:11Z</time>
      </trkpt>
      <trkpt lat="47.8416" lon="6.97962">
        <ele>951</ele>
        <time>2014-03-06T12:42:13Z</time>
      </trkpt>
      <trkpt lat="47.84161" lon="6.97956">
        <ele>950</ele>
        <time>2014-03-06T12:42:15Z</time>
      </trkpt>
      <trkpt lat="47.84162" lon="6.97952">
        <ele>949</ele>
        <time>2014-03-06T12:42:17Z</time>
      </trkpt>
      <trkpt lat="47.84164" lon="6.97947">
        <ele>949</ele>
        <time>2014-03-06T12:42:19Z</time>
      </trkpt>
      <trkpt lat="47.84166" lon="6.97925">
        <ele>948</ele>
        <time>2014-03-06T12:42:29Z</time>
      </trkpt>
      <trkpt lat="47.84168" lon="6.97922">
        <ele>951</ele>
        <time>2014-03-06T12:42:33Z</time>
      </trkpt>
      <trkpt lat="47.84171" lon="6.97916">
        <ele>948</ele>
        <time>2014-03-06T12:42:42Z</time>
      </trkpt>
      <trkpt lat="47.84175" lon="6.97903">
        <ele>945</ele>
        <time>2014-03-06T12:42:54Z</time>
      </trkpt>
      <trkpt lat="47.84182" lon="6.97896">
        <ele>943</ele>
        <time>2014-03-06T12:43:05Z</time>
      </trkpt>
      <trkpt lat="47.84183" lon="6.97869">
        <ele>940</ele>
        <time>2014-03-06T12:43:16Z</time>
      </trkpt>
      <trkpt lat="47.84187" lon="6.97865">
        <ele>939</ele>
        <time>2014-03-06T12:43:21Z</time>
      </trkpt>
      <trkpt lat="47.84191" lon="6.97858">
        <ele>938</ele>
        <time>2014-03-06T12:43:31Z</time>
      </trkpt>
      <trkpt lat="47.84194" lon="6.97855">
        <ele>938</ele>
        <time>2014-03-06T12:43:36Z</time>
      </trkpt>
      <trkpt lat="47.84199" lon="6.97839">
        <ele>937</ele>
        <time>2014-03-06T12:43:49Z</time>
      </trkpt>
      <trkpt lat="47.84202" lon="6.97828">
        <ele>929</ele>
        <time>2014-03-06T12:43:58Z</time>
      </trkpt>
      <trkpt lat="47.84201" lon="6.97822">
        <ele>929</ele>
        <time>2014-03-06T12:44:00Z</time>
      </trkpt>
      <trkpt lat="47.84192" lon="6.97793">
        <ele>929</ele>
        <time>2014-03-06T12:44:10Z</time>
      </trkpt>
      <trkpt lat="47.84191" lon="6.97788">
        <ele>929</ele>
        <time>2014-03-06T12:44:12Z</time>
      </trkpt>
      <trkpt lat="47.84186" lon="6.97762">
        <ele>929</ele>
        <time>2014-03-06T12:44:22Z</time>
      </trkpt>
      <trkpt lat="47.84186" lon="6.97758">
        <ele>929</ele>
        <time>2014-03-06T12:44:24Z</time>
      </trkpt>
      <trkpt lat="47.84184" lon="6.97739">
        <ele>930</ele>
        <time>2014-03-06T12:44:32Z</time>
      </trkpt>
      <trkpt lat="47.8419" lon="6.9772">
        <ele>930</ele>
        <time>2014-03-06T12:44:42Z</time>
      </trkpt>
      <trkpt lat="47.84192" lon="6.97716">
        <ele>930</ele>
        <time>2014-03-06T12:44:45Z</time>
      </trkpt>
      <trkpt lat="47.842" lon="6.9771">
        <ele>930</ele>
        <time>2014-03-06T12:44:55Z</time>
      </trkpt>
      <trkpt lat="47.84211" lon="6.97691">
        <ele>930</ele>
        <time>2014-03-06T12:45:05Z</time>
      </trkpt>
      <trkpt lat="47.84209" lon="6.97686">
        <ele>930</ele>
        <time>2014-03-06T12:45:08Z</time>
      </trkpt>
      <trkpt lat="47.84208" lon="6.97682">
        <ele>931</ele>
        <time>2014-03-06T12:45:10Z</time>
      </trkpt>
      <trkpt lat="47.84205" lon="6.9767">
        <ele>931</ele>
        <time>2014-03-06T12:45:14Z</time>
      </trkpt>
      <trkpt lat="47.84204" lon="6.97666">
        <ele>936</ele>
        <time>2014-03-06T12:45:16Z</time>
      </trkpt>
      <trkpt lat="47.84202" lon="6.9766">
        <ele>937</ele>
        <time>2014-03-06T12:45:18Z</time>
      </trkpt>
      <trkpt lat="47.84193" lon="6.97642">
        <ele>938</ele>
        <time>2014-03-06T12:45:28Z</time>
      </trkpt>
      <trkpt lat="47.84195" lon="6.97637">
        <ele>938</ele>
        <time>2014-03-06T12:45:30Z</time>
      </trkpt>
      <trkpt lat="47.84201" lon="6.97626">
        <ele>938</ele>
        <time>2014-03-06T12:45:34Z</time>
      </trkpt>
      <trkpt lat="47.84203" lon="6.97622">
        <ele>938</ele>
        <time>2014-03-06T12:45:36Z</time>
      </trkpt>
      <trkpt lat="47.84204" lon="6.97619">
        <ele>938</ele>
        <time>2014-03-06T12:45:40Z</time>
      </trkpt>
      <trkpt lat="47.84202" lon="6.97611">
        <ele>938</ele>
        <time>2014-03-06T12:45:52Z</time>
      </trkpt>
      <trkpt lat="47.84197" lon="6.97595">
        <ele>940</ele>
        <time>2014-03-06T12:45:58Z</time>
      </trkpt>
      <trkpt lat="47.84196" lon="6.97591">
        <ele>941</ele>
        <time>2014-03-06T12:46:00Z</time>
      </trkpt>
      <trkpt lat="47.84182" lon="6.97563">
        <ele>944</ele>
        <time>2014-03-06T12:46:11Z</time>
      </trkpt>
      <trkpt lat="47.84185" lon="6.97556">
        <ele>943</ele>
        <time>2014-03-06T12:46:22Z</time>
      </trkpt>
      <trkpt lat="47.84184" lon="6.97544">
        <ele>943</ele>
        <time>2014-03-06T12:46:26Z</time>
      </trkpt>
      <trkpt lat="47.84179" lon="6.97531">
        <ele>944</ele>
        <time>2014-03-06T12:46:37Z</time>
      </trkpt>
      <trkpt lat="47.84176" lon="6.97517">
        <ele>946</ele>
        <time>2014-03-06T12:46:46Z</time>
      </trkpt>
      <trkpt lat="47.84175" lon="6.97512">
        <ele>948</ele>
        <time>2014-03-06T12:46:51Z</time>
      </trkpt>
      <trkpt lat="47.84165" lon="6.97492">
        <ele>956</ele>
        <time>2014-03-06T12:47:02Z</time>
      </trkpt>
      <trkpt lat="47.84158" lon="6.97471">
        <ele>957</ele>
        <time>2014-03-06T12:47:12Z</time>
      </trkpt>
      <trkpt lat="47.84157" lon="6.97466">
        <ele>957</ele>
        <time>2014-03-06T12:47:14Z</time>
      </trkpt>
      <trkpt lat="47.84155" lon="6.97447">
        <ele>957</ele>
        <time>2014-03-06T12:47:23Z</time>
      </trkpt>
      <trkpt lat="47.84152" lon="6.97443">
        <ele>958</ele>
        <time>2014-03-06T12:47:26Z</time>
      </trkpt>
      <trkpt lat="47.8415" lon="6.97427">
        <ele>958</ele>
        <time>2014-03-06T12:47:38Z</time>
      </trkpt>
      <trkpt lat="47.84146" lon="6.97418">
        <ele>958</ele>
        <time>2014-03-06T12:47:44Z</time>
      </trkpt>
      <trkpt lat="47.84143" lon="6.97405">
        <ele>961</ele>
        <time>2014-03-06T12:47:54Z</time>
      </trkpt>
      <trkpt lat="47.84141" lon="6.97401">
        <ele>961</ele>
        <time>2014-03-06T12:47:57Z</time>
      </trkpt>
      <trkpt lat="47.84134" lon="6.97379">
        <ele>962</ele>
        <time>2014-03-06T12:48:08Z</time>
      </trkpt>
      <trkpt lat="47.84132" lon="6.97374">
        <ele>962</ele>
        <time>2014-03-06T12:48:16Z</time>
      </trkpt>
      <trkpt lat="47.84125" lon="6.97355">
        <ele>962</ele>
        <time>2014-03-06T12:48:24Z</time>
      </trkpt>
      <trkpt lat="47.84124" lon="6.97338">
        <ele>963</ele>
        <time>2014-03-06T12:48:30Z</time>
      </trkpt>
      <trkpt lat="47.84123" lon="6.97322">
        <ele>960</ele>
        <time>2014-03-06T12:48:38Z</time>
      </trkpt>
      <trkpt lat="47.84124" lon="6.97318">
        <ele>960</ele>
        <time>2014-03-06T12:48:40Z</time>
      </trkpt>
      <trkpt lat="47.84125" lon="6.97314">
        <ele>959</ele>
        <time>2014-03-06T12:48:43Z</time>
      </trkpt>
      <trkpt lat="47.84124" lon="6.97295">
        <ele>959</ele>
        <time>2014-03-06T12:48:54Z</time>
      </trkpt>
      <trkpt lat="47.84125" lon="6.97284">
        <ele>959</ele>
        <time>2014-03-06T12:49:01Z</time>
      </trkpt>
      <trkpt lat="47.84124" lon="6.97279">
        <ele>959</ele>
        <time>2014-03-06T12:49:03Z</time>
      </trkpt>
      <trkpt lat="47.84123" lon="6.97274">
        <ele>959</ele>
        <time>2014-03-06T12:49:06Z</time>
      </trkpt>
      <trkpt lat="47.84119" lon="6.97253">
        <ele>960</ele>
        <time>2014-03-06T12:49:16Z</time>
      </trkpt>
      <trkpt lat="47.84121" lon="6.97239">
        <ele>958</ele>
        <time>2014-03-06T12:49:25Z</time>
      </trkpt>
      <trkpt lat="47.84121" lon="6.97235">
        <ele>958</ele>
        <time>2014-03-06T12:49:27Z</time>
      </trkpt>
      <trkpt lat="47.8412" lon="6.97229">
        <ele>958</ele>
        <time>2014-03-06T12:49:30Z</time>
      </trkpt>
      <trkpt lat="47.84121" lon="6.97215">
        <ele>958</ele>
        <time>2014-03-06T12:49:41Z</time>
      </trkpt>
      <trkpt lat="47.8412" lon="6.9721">
        <ele>958</ele>
        <time>2014-03-06T12:49:43Z</time>
      </trkpt>
      <trkpt lat="47.84121" lon="6.97185">
        <ele>958</ele>
        <time>2014-03-06T12:49:55Z</time>
      </trkpt>
      <trkpt lat="47.84123" lon="6.9718">
        <ele>958</ele>
        <time>2014-03-06T12:49:58Z</time>
      </trkpt>
      <trkpt lat="47.84127" lon="6.97162">
        <ele>958</ele>
        <time>2014-03-06T12:50:10Z</time>
      </trkpt>
      <trkpt lat="47.84128" lon="6.97158">
        <ele>958</ele>
        <time>2014-03-06T12:50:12Z</time>
      </trkpt>
      <trkpt lat="47.84129" lon="6.97152">
        <ele>958</ele>
        <time>2014-03-06T12:50:14Z</time>
      </trkpt>
      <trkpt lat="47.84129" lon="6.97146">
        <ele>958</ele>
        <time>2014-03-06T12:50:16Z</time>
      </trkpt>
      <trkpt lat="47.84128" lon="6.9714">
        <ele>958</ele>
        <time>2014-03-06T12:50:18Z</time>
      </trkpt>
      <trkpt lat="47.84128" lon="6.97128">
        <ele>959</ele>
        <time>2014-03-06T12:50:31Z</time>
      </trkpt>
      <trkpt lat="47.84129" lon="6.97112">
        <ele>959</ele>
        <time>2014-03-06T12:50:39Z</time>
      </trkpt>
      <trkpt lat="47.84132" lon="6.97097">
        <ele>958</ele>
        <time>2014-03-06T12:50:45Z</time>
      </trkpt>
      <trkpt lat="47.84131" lon="6.9709">
        <ele>959</ele>
        <time>2014-03-06T12:50:47Z</time>
      </trkpt>
      <trkpt lat="47.84129" lon="6.97081">
        <ele>961</ele>
        <time>2014-03-06T12:50:50Z</time>
      </trkpt>
      <trkpt lat="47.84127" lon="6.97069">
        <ele>962</ele>
        <time>2014-03-06T12:50:54Z</time>
      </trkpt>
      <trkpt lat="47.84126" lon="6.97065">
        <ele>962</ele>
        <time>2014-03-06T12:50:56Z</time>
      </trkpt>
      <trkpt lat="47.84126" lon="6.97046">
        <ele>963</ele>
        <time>2014-03-06T12:51:05Z</time>
      </trkpt>
      <trkpt lat="47.84125" lon="6.97036">
        <ele>963</ele>
        <time>2014-03-06T12:51:09Z</time>
      </trkpt>
      <trkpt lat="47.84121" lon="6.97009">
        <ele>964</ele>
        <time>2014-03-06T12:51:20Z</time>
      </trkpt>
      <trkpt lat="47.84123" lon="6.97005">
        <ele>964</ele>
        <time>2014-03-06T12:51:23Z</time>
      </trkpt>
      <trkpt lat="47.84132" lon="6.96992">
        <ele>969</ele>
        <time>2014-03-06T12:51:34Z</time>
      </trkpt>
      <trkpt lat="47.84133" lon="6.96973">
        <ele>970</ele>
        <time>2014-03-06T12:51:44Z</time>
      </trkpt>
      <trkpt lat="47.8413" lon="6.96968">
        <ele>970</ele>
        <time>2014-03-06T12:51:46Z</time>
      </trkpt>
      <trkpt lat="47.84129" lon="6.96964">
        <ele>971</ele>
        <time>2014-03-06T12:51:49Z</time>
      </trkpt>
      <trkpt lat="47.84129" lon="6.96959">
        <ele>971</ele>
        <time>2014-03-06T12:51:55Z</time>
      </trkpt>
      <trkpt lat="47.84131" lon="6.96941">
        <ele>972</ele>
        <time>2014-03-06T12:52:05Z</time>
      </trkpt>
      <trkpt lat="47.8413" lon="6.96934">
        <ele>972</ele>
        <time>2014-03-06T12:52:08Z</time>
      </trkpt>
      <trkpt lat="47.84128" lon="6.96929">
        <ele>973</ele>
        <time>2014-03-06T12:52:10Z</time>
      </trkpt>
      <trkpt lat="47.84126" lon="6.96923">
        <ele>973</ele>
        <time>2014-03-06T12:52:12Z</time>
      </trkpt>
      <trkpt lat="47.84124" lon="6.96919">
        <ele>973</ele>
        <time>2014-03-06T12:52:14Z</time>
      </trkpt>
      <trkpt lat="47.84124" lon="6.9691">
        <ele>981</ele>
        <time>2014-03-06T12:52:21Z</time>
      </trkpt>
      <trkpt lat="47.84128" lon="6.96889">
        <ele>981</ele>
        <time>2014-03-06T12:52:33Z</time>
      </trkpt>
      <trkpt lat="47.84136" lon="6.96873">
        <ele>982</ele>
        <time>2014-03-06T12:52:44Z</time>
      </trkpt>
      <trkpt lat="47.84138" lon="6.96869">
        <ele>982</ele>
        <time>2014-03-06T12:52:47Z</time>
      </trkpt>
      <trkpt lat="47.84128" lon="6.96858">
        <ele>983</ele>
        <time>2014-03-06T12:52:59Z</time>
      </trkpt>
      <trkpt lat="47.84127" lon="6.96854">
        <ele>984</ele>
        <time>2014-03-06T12:53:03Z</time>
      </trkpt>
      <trkpt lat="47.84131" lon="6.9685">
        <ele>983</ele>
        <time>2014-03-06T12:53:21Z</time>
      </trkpt>
      <trkpt lat="47.84139" lon="6.96829">
        <ele>989</ele>
        <time>2014-03-06T12:53:34Z</time>
      </trkpt>
      <trkpt lat="47.84142" lon="6.9682">
        <ele>989</ele>
        <time>2014-03-06T12:53:39Z</time>
      </trkpt>
      <trkpt lat="47.84145" lon="6.96807">
        <ele>989</ele>
        <time>2014-03-06T12:53:49Z</time>
      </trkpt>
      <trkpt lat="47.84153" lon="6.96789">
        <ele>990</ele>
        <time>2014-03-06T12:54:01Z</time>
      </trkpt>
      <trkpt lat="47.84155" lon="6.96784">
        <ele>991</ele>
        <time>2014-03-06T12:54:04Z</time>
      </trkpt>
      <trkpt lat="47.84157" lon="6.96776">
        <ele>991</ele>
        <time>2014-03-06T12:54:09Z</time>
      </trkpt>
      <trkpt lat="47.84161" lon="6.96756">
        <ele>992</ele>
        <time>2014-03-06T12:54:20Z</time>
      </trkpt>
      <trkpt lat="47.84166" lon="6.96748">
        <ele>993</ele>
        <time>2014-03-06T12:54:25Z</time>
      </trkpt>
      <trkpt lat="47.84166" lon="6.96738">
        <ele>993</ele>
        <time>2014-03-06T12:54:36Z</time>
      </trkpt>
      <trkpt lat="47.84184" lon="6.96712">
        <ele>981</ele>
        <time>2014-03-06T12:54:48Z</time>
      </trkpt>
      <trkpt lat="47.84182" lon="6.96698">
        <ele>982</ele>
        <time>2014-03-06T12:54:55Z</time>
      </trkpt>
      <trkpt lat="47.84181" lon="6.96694">
        <ele>982</ele>
        <time>2014-03-06T12:54:56Z</time>
      </trkpt>
      <trkpt lat="47.84182" lon="6.9669">
        <ele>983</ele>
        <time>2014-03-06T12:54:59Z</time>
      </trkpt>
      <trkpt lat="47.84185" lon="6.96686">
        <ele>983</ele>
        <time>2014-03-06T12:55:03Z</time>
      </trkpt>
      <trkpt lat="47.84187" lon="6.96683">
        <ele>983</ele>
        <time>2014-03-06T12:55:06Z</time>
      </trkpt>
      <trkpt lat="47.84188" lon="6.96678">
        <ele>983</ele>
        <time>2014-03-06T12:55:08Z</time>
      </trkpt>
      <trkpt lat="47.84189" lon="6.96643">
        <ele>986</ele>
        <time>2014-03-06T12:55:19Z</time>
      </trkpt>
      <trkpt lat="47.84189" lon="6.96634">
        <ele>985</ele>
        <time>2014-03-06T12:55:25Z</time>
      </trkpt>
      <trkpt lat="47.84192" lon="6.96633">
        <ele>985</ele>
        <time>2014-03-06T12:55:29Z</time>
      </trkpt>
      <trkpt lat="47.84195" lon="6.96633">
        <ele>985</ele>
        <time>2014-03-06T12:55:32Z</time>
      </trkpt>
      <trkpt lat="47.84203" lon="6.96623">
        <ele>984</ele>
        <time>2014-03-06T12:55:44Z</time>
      </trkpt>
      <trkpt lat="47.84204" lon="6.96617">
        <ele>984</ele>
        <time>2014-03-06T12:55:51Z</time>
      </trkpt>
      <trkpt lat="47.84214" lon="6.96615">
        <ele>984</ele>
        <time>2014-03-06T12:56:02Z</time>
      </trkpt>
      <trkpt lat="47.84218" lon="6.96612">
        <ele>984</ele>
        <time>2014-03-06T12:56:04Z</time>
      </trkpt>
      <trkpt lat="47.8422" lon="6.96609">
        <ele>984</ele>
        <time>2014-03-06T12:56:06Z</time>
      </trkpt>
      <trkpt lat="47.84222" lon="6.96605">
        <ele>984</ele>
        <time>2014-03-06T12:56:09Z</time>
      </trkpt>
      <trkpt lat="47.84224" lon="6.96601">
        <ele>984</ele>
        <time>2014-03-06T12:56:11Z</time>
      </trkpt>
      <trkpt lat="47.84233" lon="6.96598">
        <ele>984</ele>
        <time>2014-03-06T12:56:23Z</time>
      </trkpt>
      <trkpt lat="47.84242" lon="6.96589">
        <ele>986</ele>
        <time>2014-03-06T12:56:33Z</time>
      </trkpt>
      <trkpt lat="47.84245" lon="6.96588">
        <ele>986</ele>
        <time>2014-03-06T12:56:35Z</time>
      </trkpt>
      <trkpt lat="47.84253" lon="6.96584">
        <ele>985</ele>
        <time>2014-03-06T12:56:40Z</time>
      </trkpt>
      <trkpt lat="47.84258" lon="6.96577">
        <ele>988</ele>
        <time>2014-03-06T12:56:49Z</time>
      </trkpt>
      <trkpt lat="47.84262" lon="6.96574">
        <ele>988</ele>
        <time>2014-03-06T12:56:51Z</time>
      </trkpt>
      <trkpt lat="47.84264" lon="6.96573">
        <ele>988</ele>
        <time>2014-03-06T12:56:56Z</time>
      </trkpt>
      <trkpt lat="47.84276" lon="6.96565">
        <ele>988</ele>
        <time>2014-03-06T12:57:08Z</time>
      </trkpt>
      <trkpt lat="47.84285" lon="6.96559">
        <ele>988</ele>
        <time>2014-03-06T12:57:14Z</time>
      </trkpt>
      <trkpt lat="47.84293" lon="6.96552">
        <ele>989</ele>
        <time>2014-03-06T12:57:23Z</time>
      </trkpt>
      <trkpt lat="47.84296" lon="6.96551">
        <ele>989</ele>
        <time>2014-03-06T12:57:35Z</time>
      </trkpt>
      <trkpt lat="47.84301" lon="6.9654">
        <ele>990</ele>
        <time>2014-03-06T12:57:46Z</time>
      </trkpt>
      <trkpt lat="47.84313" lon="6.96536">
        <ele>990</ele>
        <time>2014-03-06T12:57:52Z</time>
      </trkpt>
      <trkpt lat="47.84316" lon="6.96535">
        <ele>991</ele>
        <time>2014-03-06T12:57:55Z</time>
      </trkpt>
      <trkpt lat="47.84322" lon="6.96531">
        <ele>992</ele>
        <time>2014-03-06T12:57:59Z</time>
      </trkpt>
      <trkpt lat="47.84327" lon="6.96529">
        <ele>992</ele>
        <time>2014-03-06T12:58:01Z</time>
      </trkpt>
      <trkpt lat="47.84334" lon="6.96524">
        <ele>985</ele>
        <time>2014-03-06T12:58:15Z</time>
      </trkpt>
      <trkpt lat="47.84343" lon="6.96513">
        <ele>989</ele>
        <time>2014-03-06T12:58:23Z</time>
      </trkpt>
      <trkpt lat="47.84348" lon="6.96502">
        <ele>990</ele>
        <time>2014-03-06T12:58:29Z</time>
      </trkpt>
      <trkpt lat="47.8435" lon="6.96499">
        <ele>998</ele>
        <time>2014-03-06T12:58:31Z</time>
      </trkpt>
      <trkpt lat="47.84353" lon="6.96496">
        <ele>997</ele>
        <time>2014-03-06T12:58:34Z</time>
      </trkpt>
      <trkpt lat="47.84355" lon="6.96492">
        <ele>997</ele>
        <time>2014-03-06T12:59:29Z</time>
      </trkpt>
      <trkpt lat="47.84357" lon="6.96489">
        <ele>996</ele>
        <time>2014-03-06T12:59:33Z</time>
      </trkpt>
      <trkpt lat="47.84365" lon="6.96475">
        <ele>995</ele>
        <time>2014-03-06T12:59:46Z</time>
      </trkpt>
      <trkpt lat="47.84375" lon="6.96457">
        <ele>995</ele>
        <time>2014-03-06T12:59:56Z</time>
      </trkpt>
      <trkpt lat="47.84375" lon="6.9645">
        <ele>995</ele>
        <time>2014-03-06T12:59:58Z</time>
      </trkpt>
      <trkpt lat="47.84375" lon="6.96443">
        <ele>996</ele>
        <time>2014-03-06T13:00:00Z</time>
      </trkpt>
      <trkpt lat="47.84376" lon="6.96438">
        <ele>996</ele>
        <time>2014-03-06T13:00:02Z</time>
      </trkpt>
      <trkpt lat="47.84376" lon="6.96432">
        <ele>996</ele>
        <time>2014-03-06T13:00:05Z</time>
      </trkpt>
      <trkpt lat="47.84375" lon="6.96427">
        <ele>997</ele>
        <time>2014-03-06T13:00:08Z</time>
      </trkpt>
      <trkpt lat="47.84376" lon="6.96421">
        <ele>997</ele>
        <time>2014-03-06T13:00:11Z</time>
      </trkpt>
      <trkpt lat="47.84378" lon="6.96404">
        <ele>1005</ele>
        <time>2014-03-06T13:00:23Z</time>
      </trkpt>
      <trkpt lat="47.8438" lon="6.96386">
        <ele>1006</ele>
        <time>2014-03-06T13:00:34Z</time>
      </trkpt>
      <trkpt lat="47.84391" lon="6.9637">
        <ele>1006</ele>
        <time>2014-03-06T13:00:44Z</time>
      </trkpt>
      <trkpt lat="47.84392" lon="6.96365">
        <ele>1006</ele>
        <time>2014-03-06T13:00:48Z</time>
      </trkpt>
      <trkpt lat="47.84392" lon="6.96361">
        <ele>1006</ele>
        <time>2014-03-06T13:00:51Z</time>
      </trkpt>
      <trkpt lat="47.84395" lon="6.96357">
        <ele>1006</ele>
        <time>2014-03-06T13:00:54Z</time>
      </trkpt>
      <trkpt lat="47.84394" lon="6.96352">
        <ele>1006</ele>
        <time>2014-03-06T13:01:02Z</time>
      </trkpt>
      <trkpt lat="47.84396" lon="6.96344">
        <ele>1006</ele>
        <time>2014-03-06T13:01:06Z</time>
      </trkpt>
      <trkpt lat="47.84401" lon="6.96337">
        <ele>1006</ele>
        <time>2014-03-06T13:01:17Z</time>
      </trkpt>
      <trkpt lat="47.84405" lon="6.96317">
        <ele>1014</ele>
        <time>2014-03-06T13:01:31Z</time>
      </trkpt>
      <trkpt lat="47.84404" lon="6.96313">
        <ele>1015</ele>
        <time>2014-03-06T13:01:37Z</time>
      </trkpt>
      <trkpt lat="47.84414" lon="6.96291">
        <ele>1019</ele>
        <time>2014-03-06T13:01:48Z</time>
      </trkpt>
      <trkpt lat="47.84419" lon="6.96281">
        <ele>1007</ele>
        <time>2014-03-06T13:02:03Z</time>
      </trkpt>
      <trkpt lat="47.84422" lon="6.96278">
        <ele>1007</ele>
        <time>2014-03-06T13:02:06Z</time>
      </trkpt>
      <trkpt lat="47.84434" lon="6.96265">
        <ele>1009</ele>
        <time>2014-03-06T13:02:14Z</time>
      </trkpt>
      <trkpt lat="47.84434" lon="6.9626">
        <ele>1010</ele>
        <time>2014-03-06T13:02:16Z</time>
      </trkpt>
      <trkpt lat="47.84436" lon="6.96241">
        <ele>1022</ele>
        <time>2014-03-06T13:02:26Z</time>
      </trkpt>
      <trkpt lat="47.84438" lon="6.96238">
        <ele>1022</ele>
        <time>2014-03-06T13:02:28Z</time>
      </trkpt>
      <trkpt lat="47.84443" lon="6.96223">
        <ele>1022</ele>
        <time>2014-03-06T13:02:36Z</time>
      </trkpt>
      <trkpt lat="47.84448" lon="6.96211">
        <ele>1022</ele>
        <time>2014-03-06T13:02:47Z</time>
      </trkpt>
      <trkpt lat="47.84452" lon="6.96209">
        <ele>1021</ele>
        <time>2014-03-06T13:02:49Z</time>
      </trkpt>
      <trkpt lat="47.84456" lon="6.96207">
        <ele>1021</ele>
        <time>2014-03-06T13:02:51Z</time>
      </trkpt>
      <trkpt lat="47.84459" lon="6.96194">
        <ele>1022</ele>
        <time>2014-03-06T13:03:01Z</time>
      </trkpt>
      <trkpt lat="47.84464" lon="6.96187">
        <ele>1022</ele>
        <time>2014-03-06T13:03:07Z</time>
      </trkpt>
      <trkpt lat="47.84469" lon="6.96176">
        <ele>1022</ele>
        <time>2014-03-06T13:03:20Z</time>
      </trkpt>
      <trkpt lat="47.84472" lon="6.96169">
        <ele>1021</ele>
        <time>2014-03-06T13:03:32Z</time>
      </trkpt>
      <trkpt lat="47.84479" lon="6.96159">
        <ele>1032</ele>
        <time>2014-03-06T13:03:38Z</time>
      </trkpt>
      <trkpt lat="47.84486" lon="6.96143">
        <ele>1034</ele>
        <time>2014-03-06T13:03:46Z</time>
      </trkpt>
      <trkpt lat="47.84487" lon="6.96139">
        <ele>1035</ele>
        <time>2014-03-06T13:03:48Z</time>
      </trkpt>
      <trkpt lat="47.84488" lon="6.96134">
        <ele>1036</ele>
        <time>2014-03-06T13:03:51Z</time>
      </trkpt>
      <trkpt lat="47.84489" lon="6.9613">
        <ele>1038</ele>
        <time>2014-03-06T13:03:54Z</time>
      </trkpt>
      <trkpt lat="47.8449" lon="6.96118">
        <ele>1040</ele>
        <time>2014-03-06T13:04:06Z</time>
      </trkpt>
      <trkpt lat="47.84495" lon="6.96112">
        <ele>1041</ele>
        <time>2014-03-06T13:04:20Z</time>
      </trkpt>
      <trkpt lat="47.84497" lon="6.96108">
        <ele>1042</ele>
        <time>2014-03-06T13:04:22Z</time>
      </trkpt>
      <trkpt lat="47.84499" lon="6.96103">
        <ele>1043</ele>
        <time>2014-03-06T13:04:24Z</time>
      </trkpt>
      <trkpt lat="47.84501" lon="6.96099">
        <ele>1036</ele>
        <time>2014-03-06T13:04:27Z</time>
      </trkpt>
      <trkpt lat="47.84501" lon="6.96094">
        <ele>1039</ele>
        <time>2014-03-06T13:05:03Z</time>
      </trkpt>
      <trkpt lat="47.8451" lon="6.96094">
        <ele>1036</ele>
        <time>2014-03-06T13:05:16Z</time>
      </trkpt>
      <trkpt lat="47.84513" lon="6.96097">
        <ele>1035</ele>
        <time>2014-03-06T13:05:38Z</time>
      </trkpt>
      <trkpt lat="47.84528" lon="6.96082">
        <ele>1050</ele>
        <time>2014-03-06T13:05:50Z</time>
      </trkpt>
      <trkpt lat="47.8453" lon="6.96082">
        <ele>1050</ele>
        <time>2014-03-06T13:05:54Z</time>
      </trkpt>
      <trkpt lat="47.84533" lon="6.96081">
        <ele>1050</ele>
        <time>2014-03-06T13:06:07Z</time>
      </trkpt>
      <trkpt lat="47.84537" lon="6.96082">
        <ele>1049</ele>
        <time>2014-03-06T13:06:09Z</time>
      </trkpt>
      <trkpt lat="47.8454" lon="6.96083">
        <ele>1049</ele>
        <time>2014-03-06T13:06:12Z</time>
      </trkpt>
      <trkpt lat="47.84546" lon="6.9608">
        <ele>1049</ele>
        <time>2014-03-06T13:06:26Z</time>
      </trkpt>
      <trkpt lat="47.84562" lon="6.96072">
        <ele>1046</ele>
        <time>2014-03-06T13:06:35Z</time>
      </trkpt>
      <trkpt lat="47.84565" lon="6.96069">
        <ele>1046</ele>
        <time>2014-03-06T13:06:37Z</time>
      </trkpt>
      <trkpt lat="47.84585" lon="6.96052">
        <ele>1040</ele>
        <time>2014-03-06T13:06:47Z</time>
      </trkpt>
      <trkpt lat="47.84589" lon="6.96049">
        <ele>1040</ele>
        <time>2014-03-06T13:06:49Z</time>
      </trkpt>
      <trkpt lat="47.84595" lon="6.9604">
        <ele>1042</ele>
        <time>2014-03-06T13:06:59Z</time>
      </trkpt>
      <trkpt lat="47.84594" lon="6.96028">
        <ele>1047</ele>
        <time>2014-03-06T13:07:07Z</time>
      </trkpt>
      <trkpt lat="47.84598" lon="6.9602">
        <ele>1049</ele>
        <time>2014-03-06T13:07:11Z</time>
      </trkpt>
      <trkpt lat="47.846" lon="6.96016">
        <ele>1050</ele>
        <time>2014-03-06T13:07:14Z</time>
      </trkpt>
      <trkpt lat="47.84609" lon="6.96006">
        <ele>1049</ele>
        <time>2014-03-06T13:07:26Z</time>
      </trkpt>
      <trkpt lat="47.84613" lon="6.95999">
        <ele>1065</ele>
        <time>2014-03-06T13:07:34Z</time>
      </trkpt>
      <trkpt lat="47.84617" lon="6.95997">
        <ele>1065</ele>
        <time>2014-03-06T13:07:40Z</time>
      </trkpt>
      <trkpt lat="47.84619" lon="6.95993">
        <ele>1065</ele>
        <time>2014-03-06T13:07:44Z</time>
      </trkpt>
      <trkpt lat="47.8462" lon="6.9599">
        <ele>1065</ele>
        <time>2014-03-06T13:07:47Z</time>
      </trkpt>
      <trkpt lat="47.84622" lon="6.95986">
        <ele>1065</ele>
        <time>2014-03-06T13:07:49Z</time>
      </trkpt>
      <trkpt lat="47.84631" lon="6.95974">
        <ele>1064</ele>
        <time>2014-03-06T13:08:01Z</time>
      </trkpt>
      <trkpt lat="47.84636" lon="6.95962">
        <ele>1066</ele>
        <time>2014-03-06T13:08:10Z</time>
      </trkpt>
      <trkpt lat="47.84641" lon="6.95959">
        <ele>1066</ele>
        <time>2014-03-06T13:08:23Z</time>
      </trkpt>
      <trkpt lat="47.84643" lon="6.95949">
        <ele>1067</ele>
        <time>2014-03-06T13:08:35Z</time>
      </trkpt>
      <trkpt lat="47.84643" lon="6.95941">
        <ele>1069</ele>
        <time>2014-03-06T13:08:49Z</time>
      </trkpt>
      <trkpt lat="47.84649" lon="6.95931">
        <ele>1070</ele>
        <time>2014-03-06T13:08:59Z</time>
      </trkpt>
      <trkpt lat="47.84651" lon="6.95929">
        <ele>1071</ele>
        <time>2014-03-06T13:09:04Z</time>
      </trkpt>
      <trkpt lat="47.84658" lon="6.95923">
        <ele>1072</ele>
        <time>2014-03-06T13:09:08Z</time>
      </trkpt>
      <trkpt lat="47.84661" lon="6.95922">
        <ele>1073</ele>
        <time>2014-03-06T13:09:09Z</time>
      </trkpt>
      <trkpt lat="47.84667" lon="6.95919">
        <ele>1072</ele>
        <time>2014-03-06T13:09:15Z</time>
      </trkpt>
      <trkpt lat="47.84671" lon="6.95917">
        <ele>1070</ele>
        <time>2014-03-06T13:09:29Z</time>
      </trkpt>
      <trkpt lat="47.84677" lon="6.95916">
        <ele>1072</ele>
        <time>2014-03-06T13:09:31Z</time>
      </trkpt>
      <trkpt lat="47.84694" lon="6.95908">
        <ele>1067</ele>
        <time>2014-03-06T13:09:42Z</time>
      </trkpt>
      <trkpt lat="47.84709" lon="6.95905">
        <ele>1064</ele>
        <time>2014-03-06T13:09:51Z</time>
      </trkpt>
      <trkpt lat="47.84716" lon="6.95907">
        <ele>1062</ele>
        <time>2014-03-06T13:10:00Z</time>
      </trkpt>
      <trkpt lat="47.84719" lon="6.95906">
        <ele>1061</ele>
        <time>2014-03-06T13:10:09Z</time>
      </trkpt>
      <trkpt lat="47.84722" lon="6.95904">
        <ele>1060</ele>
        <time>2014-03-06T13:10:32Z</time>
      </trkpt>
      <trkpt lat="47.84726" lon="6.95906">
        <ele>1058</ele>
        <time>2014-03-06T13:10:42Z</time>
      </trkpt>
      <trkpt lat="47.84731" lon="6.95902">
        <ele>1057</ele>
        <time>2014-03-06T13:10:54Z</time>
      </trkpt>
      <trkpt lat="47.84736" lon="6.95897">
        <ele>1057</ele>
        <time>2014-03-06T13:11:07Z</time>
      </trkpt>
      <trkpt lat="47.84738" lon="6.95894">
        <ele>1057</ele>
        <time>2014-03-06T13:11:14Z</time>
      </trkpt>
      <trkpt lat="47.84741" lon="6.95891">
        <ele>1058</ele>
        <time>2014-03-06T13:12:10Z</time>
      </trkpt>
      <trkpt lat="47.84742" lon="6.95887">
        <ele>1058</ele>
        <time>2014-03-06T13:12:13Z</time>
      </trkpt>
      <trkpt lat="47.84749" lon="6.9588">
        <ele>1059</ele>
        <time>2014-03-06T13:14:07Z</time>
      </trkpt>
      <trkpt lat="47.84751" lon="6.95877">
        <ele>1034</ele>
        <time>2014-03-06T13:14:15Z</time>
      </trkpt>
      <trkpt lat="47.84751" lon="6.95872">
        <ele>1035</ele>
        <time>2014-03-06T13:19:02Z</time>
      </trkpt>
      <trkpt lat="47.8475" lon="6.95863">
        <ele>1060</ele>
        <time>2014-03-06T13:19:14Z</time>
      </trkpt>
      <trkpt lat="47.8475" lon="6.95844">
        <ele>1058</ele>
        <time>2014-03-06T13:19:28Z</time>
      </trkpt>
      <trkpt lat="47.84745" lon="6.9584">
        <ele>1058</ele>
        <time>2014-03-06T13:19:52Z</time>
      </trkpt>
      <trkpt lat="47.84737" lon="6.95826">
        <ele>1062</ele>
        <time>2014-03-06T13:20:06Z</time>
      </trkpt>
      <trkpt lat="47.8473" lon="6.95805">
        <ele>1065</ele>
        <time>2014-03-06T13:20:17Z</time>
      </trkpt>
      <trkpt lat="47.84726" lon="6.95796">
        <ele>1066</ele>
        <time>2014-03-06T13:20:23Z</time>
      </trkpt>
      <trkpt lat="47.8472" lon="6.95777">
        <ele>1066</ele>
        <time>2014-03-06T13:20:34Z</time>
      </trkpt>
      <trkpt lat="47.84716" lon="6.95769">
        <ele>1067</ele>
        <time>2014-03-06T13:20:39Z</time>
      </trkpt>
      <trkpt lat="47.84713" lon="6.95765">
        <ele>1068</ele>
        <time>2014-03-06T13:20:41Z</time>
      </trkpt>
      <trkpt lat="47.8471" lon="6.95746">
        <ele>1063</ele>
        <time>2014-03-06T13:20:52Z</time>
      </trkpt>
      <trkpt lat="47.84708" lon="6.95742">
        <ele>1064</ele>
        <time>2014-03-06T13:20:57Z</time>
      </trkpt>
      <trkpt lat="47.84705" lon="6.95739">
        <ele>1064</ele>
        <time>2014-03-06T13:20:59Z</time>
      </trkpt>
      <trkpt lat="47.84698" lon="6.95729">
        <ele>1066</ele>
        <time>2014-03-06T13:21:11Z</time>
      </trkpt>
      <trkpt lat="47.84698" lon="6.95724">
        <ele>1066</ele>
        <time>2014-03-06T13:21:24Z</time>
      </trkpt>
      <trkpt lat="47.8469" lon="6.95714">
        <ele>1066</ele>
        <time>2014-03-06T13:21:34Z</time>
      </trkpt>
      <trkpt lat="47.84688" lon="6.95711">
        <ele>1067</ele>
        <time>2014-03-06T13:21:37Z</time>
      </trkpt>
      <trkpt lat="47.84686" lon="6.95709">
        <ele>1067</ele>
        <time>2014-03-06T13:21:41Z</time>
      </trkpt>
      <trkpt lat="47.84681" lon="6.95703">
        <ele>1067</ele>
        <time>2014-03-06T13:21:53Z</time>
      </trkpt>
      <trkpt lat="47.84683" lon="6.95698">
        <ele>1067</ele>
        <time>2014-03-06T13:22:05Z</time>
      </trkpt>
      <trkpt lat="47.84679" lon="6.95669">
        <ele>1070</ele>
        <time>2014-03-06T13:22:15Z</time>
      </trkpt>
      <trkpt lat="47.84676" lon="6.95663">
        <ele>1068</ele>
        <time>2014-03-06T13:22:17Z</time>
      </trkpt>
      <trkpt lat="47.84678" lon="6.95658">
        <ele>1066</ele>
        <time>2014-03-06T13:22:19Z</time>
      </trkpt>
      <trkpt lat="47.84678" lon="6.95654">
        <ele>1064</ele>
        <time>2014-03-06T13:22:21Z</time>
      </trkpt>
      <trkpt lat="47.84677" lon="6.95647">
        <ele>1062</ele>
        <time>2014-03-06T13:22:29Z</time>
      </trkpt>
      <trkpt lat="47.84669" lon="6.95635">
        <ele>1060</ele>
        <time>2014-03-06T13:22:35Z</time>
      </trkpt>
      <trkpt lat="47.84666" lon="6.95633">
        <ele>1070</ele>
        <time>2014-03-06T13:22:37Z</time>
      </trkpt>
      <trkpt lat="47.84657" lon="6.9561">
        <ele>1068</ele>
        <time>2014-03-06T13:22:47Z</time>
      </trkpt>
      <trkpt lat="47.84659" lon="6.95606">
        <ele>1068</ele>
        <time>2014-03-06T13:22:49Z</time>
      </trkpt>
      <trkpt lat="47.84661" lon="6.95603">
        <ele>1068</ele>
        <time>2014-03-06T13:22:51Z</time>
      </trkpt>
      <trkpt lat="47.84668" lon="6.95594">
        <ele>1063</ele>
        <time>2014-03-06T13:23:03Z</time>
      </trkpt>
      <trkpt lat="47.84665" lon="6.95578">
        <ele>1066</ele>
        <time>2014-03-06T13:23:11Z</time>
      </trkpt>
      <trkpt lat="47.84666" lon="6.95574">
        <ele>1065</ele>
        <time>2014-03-06T13:23:13Z</time>
      </trkpt>
      <trkpt lat="47.84665" lon="6.95565">
        <ele>1064</ele>
        <time>2014-03-06T13:23:18Z</time>
      </trkpt>
      <trkpt lat="47.84663" lon="6.95561">
        <ele>1063</ele>
        <time>2014-03-06T13:23:20Z</time>
      </trkpt>
      <trkpt lat="47.8466" lon="6.95559">
        <ele>1063</ele>
        <time>2014-03-06T13:23:22Z</time>
      </trkpt>
      <trkpt lat="47.84663" lon="6.9554">
        <ele>1061</ele>
        <time>2014-03-06T13:23:34Z</time>
      </trkpt>
      <trkpt lat="47.84665" lon="6.95531">
        <ele>1061</ele>
        <time>2014-03-06T13:23:40Z</time>
      </trkpt>
      <trkpt lat="47.84662" lon="6.95519">
        <ele>1061</ele>
        <time>2014-03-06T13:24:05Z</time>
      </trkpt>
      <trkpt lat="47.84659" lon="6.95516">
        <ele>1061</ele>
        <time>2014-03-06T13:24:08Z</time>
      </trkpt>
      <trkpt lat="47.84657" lon="6.95513">
        <ele>1061</ele>
        <time>2014-03-06T13:24:19Z</time>
      </trkpt>
      <trkpt lat="47.84656" lon="6.95508">
        <ele>1061</ele>
        <time>2014-03-06T13:24:22Z</time>
      </trkpt>
      <trkpt lat="47.84657" lon="6.95504">
        <ele>1061</ele>
        <time>2014-03-06T13:24:24Z</time>
      </trkpt>
      <trkpt lat="47.84659" lon="6.95499">
        <ele>1059</ele>
        <time>2014-03-06T13:24:27Z</time>
      </trkpt>
      <trkpt lat="47.84661" lon="6.95491">
        <ele>1059</ele>
        <time>2014-03-06T13:24:37Z</time>
      </trkpt>
      <trkpt lat="47.84663" lon="6.95478">
        <ele>1056</ele>
        <time>2014-03-06T13:24:47Z</time>
      </trkpt>
      <trkpt lat="47.8466" lon="6.95462">
        <ele>1055</ele>
        <time>2014-03-06T13:25:04Z</time>
      </trkpt>
      <trkpt lat="47.84663" lon="6.95451">
        <ele>1054</ele>
        <time>2014-03-06T13:25:15Z</time>
      </trkpt>
      <trkpt lat="47.84657" lon="6.95433">
        <ele>1053</ele>
        <time>2014-03-06T13:25:27Z</time>
      </trkpt>
      <trkpt lat="47.84657" lon="6.95429">
        <ele>1053</ele>
        <time>2014-03-06T13:25:29Z</time>
      </trkpt>
      <trkpt lat="47.84662" lon="6.95419">
        <ele>1053</ele>
        <time>2014-03-06T13:25:34Z</time>
      </trkpt>
      <trkpt lat="47.84664" lon="6.95411">
        <ele>1051</ele>
        <time>2014-03-06T13:25:38Z</time>
      </trkpt>
      <trkpt lat="47.84666" lon="6.95405">
        <ele>1051</ele>
        <time>2014-03-06T13:25:41Z</time>
      </trkpt>
      <trkpt lat="47.8467" lon="6.95395">
        <ele>1043</ele>
        <time>2014-03-06T13:25:51Z</time>
      </trkpt>
      <trkpt lat="47.84672" lon="6.95392">
        <ele>1043</ele>
        <time>2014-03-06T13:25:54Z</time>
      </trkpt>
      <trkpt lat="47.84674" lon="6.95365">
        <ele>1041</ele>
        <time>2014-03-06T13:26:06Z</time>
      </trkpt>
      <trkpt lat="47.84677" lon="6.9535">
        <ele>1043</ele>
        <time>2014-03-06T13:26:13Z</time>
      </trkpt>
      <trkpt lat="47.84679" lon="6.95336">
        <ele>1044</ele>
        <time>2014-03-06T13:26:23Z</time>
      </trkpt>
      <trkpt lat="47.8468" lon="6.95332">
        <ele>1045</ele>
        <time>2014-03-06T13:26:27Z</time>
      </trkpt>
      <trkpt lat="47.84683" lon="6.9532">
        <ele>1042</ele>
        <time>2014-03-06T13:26:57Z</time>
      </trkpt>
      <trkpt lat="47.84687" lon="6.95314">
        <ele>1041</ele>
        <time>2014-03-06T13:27:09Z</time>
      </trkpt>
      <trkpt lat="47.8469" lon="6.95297">
        <ele>1039</ele>
        <time>2014-03-06T13:27:29Z</time>
      </trkpt>
      <trkpt lat="47.84691" lon="6.95292">
        <ele>1039</ele>
        <time>2014-03-06T13:27:49Z</time>
      </trkpt>
      <trkpt lat="47.84695" lon="6.95272">
        <ele>1039</ele>
        <time>2014-03-06T13:28:00Z</time>
      </trkpt>
      <trkpt lat="47.84698" lon="6.95255">
        <ele>1039</ele>
        <time>2014-03-06T13:28:12Z</time>
      </trkpt>
      <trkpt lat="47.84701" lon="6.9525">
        <ele>1039</ele>
        <time>2014-03-06T13:28:14Z</time>
      </trkpt>
      <trkpt lat="47.84702" lon="6.95245">
        <ele>1041</ele>
        <time>2014-03-06T13:28:16Z</time>
      </trkpt>
      <trkpt lat="47.84702" lon="6.95231">
        <ele>1040</ele>
        <time>2014-03-06T13:28:26Z</time>
      </trkpt>
      <trkpt lat="47.84702" lon="6.95219">
        <ele>1041</ele>
        <time>2014-03-06T13:28:36Z</time>
      </trkpt>
      <trkpt lat="47.84697" lon="6.952">
        <ele>1041</ele>
        <time>2014-03-06T13:28:49Z</time>
      </trkpt>
      <trkpt lat="47.84694" lon="6.95172">
        <ele>1043</ele>
        <time>2014-03-06T13:29:01Z</time>
      </trkpt>
      <trkpt lat="47.84694" lon="6.95167">
        <ele>1043</ele>
        <time>2014-03-06T13:29:03Z</time>
      </trkpt>
      <trkpt lat="47.84699" lon="6.95159">
        <ele>1045</ele>
        <time>2014-03-06T13:29:09Z</time>
      </trkpt>
      <trkpt lat="47.84701" lon="6.95155">
        <ele>1045</ele>
        <time>2014-03-06T13:29:18Z</time>
      </trkpt>
      <trkpt lat="47.84704" lon="6.95141">
        <ele>1045</ele>
        <time>2014-03-06T13:29:29Z</time>
      </trkpt>
      <trkpt lat="47.84706" lon="6.95133">
        <ele>1045</ele>
        <time>2014-03-06T13:29:35Z</time>
      </trkpt>
      <trkpt lat="47.8471" lon="6.95114">
        <ele>1046</ele>
        <time>2014-03-06T13:29:46Z</time>
      </trkpt>
      <trkpt lat="47.84718" lon="6.95103">
        <ele>1046</ele>
        <time>2014-03-06T13:29:58Z</time>
      </trkpt>
      <trkpt lat="47.84721" lon="6.95102">
        <ele>1046</ele>
        <time>2014-03-06T13:30:00Z</time>
      </trkpt>
      <trkpt lat="47.84725" lon="6.95099">
        <ele>1046</ele>
        <time>2014-03-06T13:30:03Z</time>
      </trkpt>
      <trkpt lat="47.84728" lon="6.95095">
        <ele>1046</ele>
        <time>2014-03-06T13:30:06Z</time>
      </trkpt>
      <trkpt lat="47.8473" lon="6.95087">
        <ele>1046</ele>
        <time>2014-03-06T13:30:13Z</time>
      </trkpt>
      <trkpt lat="47.84731" lon="6.95082">
        <ele>1050</ele>
        <time>2014-03-06T13:30:24Z</time>
      </trkpt>
      <trkpt lat="47.84732" lon="6.95063">
        <ele>1051</ele>
        <time>2014-03-06T13:30:35Z</time>
      </trkpt>
      <trkpt lat="47.84737" lon="6.95049">
        <ele>1051</ele>
        <time>2014-03-06T13:30:43Z</time>
      </trkpt>
      <trkpt lat="47.84741" lon="6.95041">
        <ele>1052</ele>
        <time>2014-03-06T13:30:46Z</time>
      </trkpt>
      <trkpt lat="47.84744" lon="6.95037">
        <ele>1052</ele>
        <time>2014-03-06T13:30:48Z</time>
      </trkpt>
      <trkpt lat="47.84746" lon="6.95035">
        <ele>1052</ele>
        <time>2014-03-06T13:30:51Z</time>
      </trkpt>
      <trkpt lat="47.84747" lon="6.95022">
        <ele>1053</ele>
        <time>2014-03-06T13:31:03Z</time>
      </trkpt>
      <trkpt lat="47.84748" lon="6.95017">
        <ele>1053</ele>
        <time>2014-03-06T13:31:07Z</time>
      </trkpt>
      <trkpt lat="47.8475" lon="6.95012">
        <ele>1045</ele>
        <time>2014-03-06T13:31:10Z</time>
      </trkpt>
      <trkpt lat="47.84752" lon="6.95008">
        <ele>1047</ele>
        <time>2014-03-06T13:31:13Z</time>
      </trkpt>
      <trkpt lat="47.84756" lon="6.94979">
        <ele>1041</ele>
        <time>2014-03-06T13:31:24Z</time>
      </trkpt>
      <trkpt lat="47.84754" lon="6.94976">
        <ele>1040</ele>
        <time>2014-03-06T13:31:25Z</time>
      </trkpt>
      <trkpt lat="47.84744" lon="6.94961">
        <ele>1054</ele>
        <time>2014-03-06T13:31:30Z</time>
      </trkpt>
      <trkpt lat="47.8474" lon="6.94956">
        <ele>1053</ele>
        <time>2014-03-06T13:31:32Z</time>
      </trkpt>
      <trkpt lat="47.84737" lon="6.94952">
        <ele>1053</ele>
        <time>2014-03-06T13:31:34Z</time>
      </trkpt>
      <trkpt lat="47.84738" lon="6.94948">
        <ele>1053</ele>
        <time>2014-03-06T13:31:37Z</time>
      </trkpt>
      <trkpt lat="47.84739" lon="6.94943">
        <ele>1053</ele>
        <time>2014-03-06T13:31:40Z</time>
      </trkpt>
      <trkpt lat="47.84736" lon="6.9492">
        <ele>1052</ele>
        <time>2014-03-06T13:31:50Z</time>
      </trkpt>
      <trkpt lat="47.84738" lon="6.94918">
        <ele>1052</ele>
        <time>2014-03-06T13:31:54Z</time>
      </trkpt>
      <trkpt lat="47.84738" lon="6.94913">
        <ele>1050</ele>
        <time>2014-03-06T13:31:58Z</time>
      </trkpt>
      <trkpt lat="47.84738" lon="6.94909">
        <ele>1050</ele>
        <time>2014-03-06T13:32:01Z</time>
      </trkpt>
      <trkpt lat="47.84739" lon="6.94905">
        <ele>1050</ele>
        <time>2014-03-06T13:32:05Z</time>
      </trkpt>
      <trkpt lat="47.84748" lon="6.94885">
        <ele>1049</ele>
        <time>2014-03-06T13:32:18Z</time>
      </trkpt>
      <trkpt lat="47.84747" lon="6.94881">
        <ele>1049</ele>
        <time>2014-03-06T13:32:22Z</time>
      </trkpt>
      <trkpt lat="47.84746" lon="6.94877">
        <ele>1048</ele>
        <time>2014-03-06T13:32:26Z</time>
      </trkpt>
      <trkpt lat="47.84744" lon="6.9486">
        <ele>1047</ele>
        <time>2014-03-06T13:32:38Z</time>
      </trkpt>
      <trkpt lat="47.84742" lon="6.94839">
        <ele>1046</ele>
        <time>2014-03-06T13:32:49Z</time>
      </trkpt>
      <trkpt lat="47.84748" lon="6.94835">
        <ele>1045</ele>
        <time>2014-03-06T13:33:02Z</time>
      </trkpt>
      <trkpt lat="47.84745" lon="6.94833">
        <ele>1045</ele>
        <time>2014-03-06T13:33:29Z</time>
      </trkpt>
      <trkpt lat="47.84746" lon="6.94816">
        <ele>1044</ele>
        <time>2014-03-06T13:33:40Z</time>
      </trkpt>
      <trkpt lat="47.84752" lon="6.94795">
        <ele>1039</ele>
        <time>2014-03-06T13:33:49Z</time>
      </trkpt>
      <trkpt lat="47.84755" lon="6.94795">
        <ele>1039</ele>
        <time>2014-03-06T13:33:52Z</time>
      </trkpt>
      <trkpt lat="47.84763" lon="6.94787">
        <ele>1038</ele>
        <time>2014-03-06T13:34:03Z</time>
      </trkpt>
      <trkpt lat="47.84765" lon="6.94784">
        <ele>1038</ele>
        <time>2014-03-06T13:34:06Z</time>
      </trkpt>
      <trkpt lat="47.84769" lon="6.94771">
        <ele>1039</ele>
        <time>2014-03-06T13:34:23Z</time>
      </trkpt>
      <trkpt lat="47.84775" lon="6.94757">
        <ele>1040</ele>
        <time>2014-03-06T13:34:32Z</time>
      </trkpt>
      <trkpt lat="47.84776" lon="6.94753">
        <ele>1039</ele>
        <time>2014-03-06T13:34:34Z</time>
      </trkpt>
      <trkpt lat="47.84778" lon="6.94749">
        <ele>1046</ele>
        <time>2014-03-06T13:34:35Z</time>
      </trkpt>
      <trkpt lat="47.8478" lon="6.94746">
        <ele>1046</ele>
        <time>2014-03-06T13:34:37Z</time>
      </trkpt>
      <trkpt lat="47.84781" lon="6.94742">
        <ele>1046</ele>
        <time>2014-03-06T13:34:41Z</time>
      </trkpt>
      <trkpt lat="47.84782" lon="6.9473">
        <ele>1046</ele>
        <time>2014-03-06T13:34:52Z</time>
      </trkpt>
      <trkpt lat="47.84785" lon="6.94718">
        <ele>1046</ele>
        <time>2014-03-06T13:35:02Z</time>
      </trkpt>
      <trkpt lat="47.84784" lon="6.94705">
        <ele>1047</ele>
        <time>2014-03-06T13:35:15Z</time>
      </trkpt>
      <trkpt lat="47.84789" lon="6.94686">
        <ele>1049</ele>
        <time>2014-03-06T13:35:26Z</time>
      </trkpt>
      <trkpt lat="47.84788" lon="6.94681">
        <ele>1049</ele>
        <time>2014-03-06T13:35:28Z</time>
      </trkpt>
      <trkpt lat="47.84789" lon="6.94677">
        <ele>1049</ele>
        <time>2014-03-06T13:35:30Z</time>
      </trkpt>
      <trkpt lat="47.84789" lon="6.94662">
        <ele>1062</ele>
        <time>2014-03-06T13:35:39Z</time>
      </trkpt>
      <trkpt lat="47.84791" lon="6.94657">
        <ele>1062</ele>
        <time>2014-03-06T13:35:43Z</time>
      </trkpt>
      <trkpt lat="47.84792" lon="6.94653">
        <ele>1062</ele>
        <time>2014-03-06T13:35:46Z</time>
      </trkpt>
      <trkpt lat="47.84791" lon="6.94641">
        <ele>1064</ele>
        <time>2014-03-06T13:35:56Z</time>
      </trkpt>
      <trkpt lat="47.84792" lon="6.94635">
        <ele>1065</ele>
        <time>2014-03-06T13:36:01Z</time>
      </trkpt>
      <trkpt lat="47.84788" lon="6.94638">
        <ele>1065</ele>
        <time>2014-03-06T13:36:24Z</time>
      </trkpt>
      <trkpt lat="47.84788" lon="6.94633">
        <ele>1065</ele>
        <time>2014-03-06T13:37:43Z</time>
      </trkpt>
      <trkpt lat="47.84789" lon="6.94619">
        <ele>1067</ele>
        <time>2014-03-06T13:37:56Z</time>
      </trkpt>
      <trkpt lat="47.84789" lon="6.94615">
        <ele>1068</ele>
        <time>2014-03-06T13:38:01Z</time>
      </trkpt>
      <trkpt lat="47.84783" lon="6.94614">
        <ele>1069</ele>
        <time>2014-03-06T13:38:12Z</time>
      </trkpt>
      <trkpt lat="47.84777" lon="6.94623">
        <ele>1068</ele>
        <time>2014-03-06T13:38:21Z</time>
      </trkpt>
      <trkpt lat="47.84774" lon="6.94625">
        <ele>1068</ele>
        <time>2014-03-06T13:38:26Z</time>
      </trkpt>
      <trkpt lat="47.84773" lon="6.9463">
        <ele>1067</ele>
        <time>2014-03-06T13:38:29Z</time>
      </trkpt>
      <trkpt lat="47.84773" lon="6.94626">
        <ele>1068</ele>
        <time>2014-03-06T13:38:37Z</time>
      </trkpt>
      <trkpt lat="47.84776" lon="6.94618">
        <ele>1069</ele>
        <time>2014-03-06T13:38:48Z</time>
      </trkpt>
      <trkpt lat="47.84772" lon="6.94607">
        <ele>1071</ele>
        <time>2014-03-06T13:38:58Z</time>
      </trkpt>
      <trkpt lat="47.84768" lon="6.94603">
        <ele>1073</ele>
        <time>2014-03-06T13:39:12Z</time>
      </trkpt>
      <trkpt lat="47.84768" lon="6.94597">
        <ele>1073</ele>
        <time>2014-03-06T13:39:17Z</time>
      </trkpt>
      <trkpt lat="47.84776" lon="6.94592">
        <ele>1073</ele>
        <time>2014-03-06T13:39:30Z</time>
      </trkpt>
      <trkpt lat="47.84778" lon="6.94589">
        <ele>1073</ele>
        <time>2014-03-06T13:40:43Z</time>
      </trkpt>
      <trkpt lat="47.84782" lon="6.94569">
        <ele>1087</ele>
        <time>2014-03-06T13:40:54Z</time>
      </trkpt>
      <trkpt lat="47.84785" lon="6.94555">
        <ele>1088</ele>
        <time>2014-03-06T13:41:06Z</time>
      </trkpt>
      <trkpt lat="47.84786" lon="6.94546">
        <ele>1089</ele>
        <time>2014-03-06T13:41:17Z</time>
      </trkpt>
      <trkpt lat="47.84791" lon="6.94539">
        <ele>1090</ele>
        <time>2014-03-06T13:41:24Z</time>
      </trkpt>
      <trkpt lat="47.84794" lon="6.94531">
        <ele>1091</ele>
        <time>2014-03-06T13:41:35Z</time>
      </trkpt>
      <trkpt lat="47.84795" lon="6.94522">
        <ele>1092</ele>
        <time>2014-03-06T13:41:48Z</time>
      </trkpt>
      <trkpt lat="47.84801" lon="6.94509">
        <ele>1094</ele>
        <time>2014-03-06T13:42:01Z</time>
      </trkpt>
      <trkpt lat="47.84814" lon="6.94488">
        <ele>1106</ele>
        <time>2014-03-06T13:42:12Z</time>
      </trkpt>
      <trkpt lat="47.84816" lon="6.94485">
        <ele>1107</ele>
        <time>2014-03-06T13:42:15Z</time>
      </trkpt>
      <trkpt lat="47.84818" lon="6.94482">
        <ele>1107</ele>
        <time>2014-03-06T13:42:18Z</time>
      </trkpt>
      <trkpt lat="47.84823" lon="6.94471">
        <ele>1108</ele>
        <time>2014-03-06T13:42:30Z</time>
      </trkpt>
      <trkpt lat="47.84825" lon="6.94466">
        <ele>1109</ele>
        <time>2014-03-06T13:42:34Z</time>
      </trkpt>
      <trkpt lat="47.84834" lon="6.94456">
        <ele>1102</ele>
        <time>2014-03-06T13:42:49Z</time>
      </trkpt>
      <trkpt lat="47.84837" lon="6.94455">
        <ele>1102</ele>
        <time>2014-03-06T13:43:04Z</time>
      </trkpt>
      <trkpt lat="47.8484" lon="6.94454">
        <ele>1102</ele>
        <time>2014-03-06T13:43:24Z</time>
      </trkpt>
      <trkpt lat="47.84841" lon="6.9445">
        <ele>1103</ele>
        <time>2014-03-06T13:44:17Z</time>
      </trkpt>
      <trkpt lat="47.84847" lon="6.94443">
        <ele>1104</ele>
        <time>2014-03-06T13:44:23Z</time>
      </trkpt>
      <trkpt lat="47.84855" lon="6.94434">
        <ele>1104</ele>
        <time>2014-03-06T13:44:32Z</time>
      </trkpt>
      <trkpt lat="47.84857" lon="6.94431">
        <ele>1104</ele>
        <time>2014-03-06T13:44:34Z</time>
      </trkpt>
      <trkpt lat="47.84858" lon="6.94427">
        <ele>1104</ele>
        <time>2014-03-06T13:44:36Z</time>
      </trkpt>
      <trkpt lat="47.84859" lon="6.94422">
        <ele>1105</ele>
        <time>2014-03-06T13:44:38Z</time>
      </trkpt>
      <trkpt lat="47.84865" lon="6.94399">
        <ele>1115</ele>
        <time>2014-03-06T13:44:51Z</time>
      </trkpt>
      <trkpt lat="47.84866" lon="6.94386">
        <ele>1116</ele>
        <time>2014-03-06T13:45:01Z</time>
      </trkpt>
      <trkpt lat="47.84868" lon="6.94382">
        <ele>1116</ele>
        <time>2014-03-06T13:45:03Z</time>
      </trkpt>
      <trkpt lat="47.84875" lon="6.94362">
        <ele>1117</ele>
        <time>2014-03-06T13:45:14Z</time>
      </trkpt>
      <trkpt lat="47.84877" lon="6.9435">
        <ele>1117</ele>
        <time>2014-03-06T13:45:32Z</time>
      </trkpt>
      <trkpt lat="47.84878" lon="6.94346">
        <ele>1118</ele>
        <time>2014-03-06T13:45:43Z</time>
      </trkpt>
      <trkpt lat="47.84881" lon="6.94334">
        <ele>1118</ele>
        <time>2014-03-06T13:45:54Z</time>
      </trkpt>
      <trkpt lat="47.84888" lon="6.94321">
        <ele>1124</ele>
        <time>2014-03-06T13:46:05Z</time>
      </trkpt>
      <trkpt lat="47.84897" lon="6.94316">
        <ele>1123</ele>
        <time>2014-03-06T13:46:16Z</time>
      </trkpt>
      <trkpt lat="47.84899" lon="6.94314">
        <ele>1123</ele>
        <time>2014-03-06T13:46:19Z</time>
      </trkpt>
      <trkpt lat="47.84902" lon="6.94312">
        <ele>1123</ele>
        <time>2014-03-06T13:46:26Z</time>
      </trkpt>
      <trkpt lat="47.84908" lon="6.94299">
        <ele>1124</ele>
        <time>2014-03-06T13:46:39Z</time>
      </trkpt>
      <trkpt lat="47.8491" lon="6.94295">
        <ele>1124</ele>
        <time>2014-03-06T13:46:42Z</time>
      </trkpt>
      <trkpt lat="47.84916" lon="6.94285">
        <ele>1125</ele>
        <time>2014-03-06T13:46:56Z</time>
      </trkpt>
      <trkpt lat="47.84931" lon="6.94269">
        <ele>1120</ele>
        <time>2014-03-06T13:47:07Z</time>
      </trkpt>
      <trkpt lat="47.84933" lon="6.94265">
        <ele>1121</ele>
        <time>2014-03-06T13:47:10Z</time>
      </trkpt>
      <trkpt lat="47.84936" lon="6.94263">
        <ele>1121</ele>
        <time>2014-03-06T13:47:13Z</time>
      </trkpt>
      <trkpt lat="47.84944" lon="6.94255">
        <ele>1120</ele>
        <time>2014-03-06T13:47:24Z</time>
      </trkpt>
      <trkpt lat="47.84955" lon="6.94243">
        <ele>1132</ele>
        <time>2014-03-06T13:47:35Z</time>
      </trkpt>
      <trkpt lat="47.84959" lon="6.94238">
        <ele>1132</ele>
        <time>2014-03-06T13:47:40Z</time>
      </trkpt>
      <trkpt lat="47.84963" lon="6.94234">
        <ele>1133</ele>
        <time>2014-03-06T13:47:51Z</time>
      </trkpt>
      <trkpt lat="47.84964" lon="6.9423">
        <ele>1133</ele>
        <time>2014-03-06T13:48:03Z</time>
      </trkpt>
      <trkpt lat="47.84975" lon="6.94227">
        <ele>1133</ele>
        <time>2014-03-06T13:48:13Z</time>
      </trkpt>
      <trkpt lat="47.84978" lon="6.94226">
        <ele>1133</ele>
        <time>2014-03-06T13:48:15Z</time>
      </trkpt>
      <trkpt lat="47.84984" lon="6.94223">
        <ele>1133</ele>
        <time>2014-03-06T13:48:19Z</time>
      </trkpt>
      <trkpt lat="47.84992" lon="6.94217">
        <ele>1134</ele>
        <time>2014-03-06T13:48:28Z</time>
      </trkpt>
      <trkpt lat="47.85001" lon="6.9421">
        <ele>1136</ele>
        <time>2014-03-06T13:48:38Z</time>
      </trkpt>
      <trkpt lat="47.85009" lon="6.94205">
        <ele>1137</ele>
        <time>2014-03-06T13:48:49Z</time>
      </trkpt>
      <trkpt lat="47.85018" lon="6.94203">
        <ele>1137</ele>
        <time>2014-03-06T13:49:02Z</time>
      </trkpt>
      <trkpt lat="47.85021" lon="6.942">
        <ele>1137</ele>
        <time>2014-03-06T13:49:05Z</time>
      </trkpt>
      <trkpt lat="47.85027" lon="6.94198">
        <ele>1138</ele>
        <time>2014-03-06T13:49:09Z</time>
      </trkpt>
      <trkpt lat="47.85031" lon="6.94198">
        <ele>1137</ele>
        <time>2014-03-06T13:49:12Z</time>
      </trkpt>
      <trkpt lat="47.85033" lon="6.94196">
        <ele>1138</ele>
        <time>2014-03-06T13:49:21Z</time>
      </trkpt>
      <trkpt lat="47.85036" lon="6.94195">
        <ele>1138</ele>
        <time>2014-03-06T13:50:27Z</time>
      </trkpt>
      <trkpt lat="47.8504" lon="6.94197">
        <ele>1137</ele>
        <time>2014-03-06T13:50:57Z</time>
      </trkpt>
      <trkpt lat="47.85051" lon="6.94192">
        <ele>1138</ele>
        <time>2014-03-06T13:51:12Z</time>
      </trkpt>
      <trkpt lat="47.85053" lon="6.94192">
        <ele>1138</ele>
        <time>2014-03-06T13:51:16Z</time>
      </trkpt>
      <trkpt lat="47.85059" lon="6.94189">
        <ele>1139</ele>
        <time>2014-03-06T13:51:31Z</time>
      </trkpt>
      <trkpt lat="47.85062" lon="6.94189">
        <ele>1139</ele>
        <time>2014-03-06T13:51:34Z</time>
      </trkpt>
      <trkpt lat="47.85065" lon="6.94189">
        <ele>1139</ele>
        <time>2014-03-06T13:51:38Z</time>
      </trkpt>
      <trkpt lat="47.85068" lon="6.94181">
        <ele>1142</ele>
        <time>2014-03-06T13:51:49Z</time>
      </trkpt>
      <trkpt lat="47.85079" lon="6.94149">
        <ele>1158</ele>
        <time>2014-03-06T13:52:00Z</time>
      </trkpt>
      <trkpt lat="47.85084" lon="6.94144">
        <ele>1154</ele>
        <time>2014-03-06T13:52:10Z</time>
      </trkpt>
      <trkpt lat="47.85089" lon="6.9414">
        <ele>1154</ele>
        <time>2014-03-06T13:52:22Z</time>
      </trkpt>
      <trkpt lat="47.85092" lon="6.94141">
        <ele>1154</ele>
        <time>2014-03-06T13:53:16Z</time>
      </trkpt>
      <trkpt lat="47.85094" lon="6.94137">
        <ele>1155</ele>
        <time>2014-03-06T13:53:23Z</time>
      </trkpt>
      <trkpt lat="47.85095" lon="6.94132">
        <ele>1155</ele>
        <time>2014-03-06T13:53:27Z</time>
      </trkpt>
      <trkpt lat="47.85095" lon="6.94128">
        <ele>1156</ele>
        <time>2014-03-06T13:53:30Z</time>
      </trkpt>
      <trkpt lat="47.85097" lon="6.94119">
        <ele>1158</ele>
        <time>2014-03-06T13:53:40Z</time>
      </trkpt>
      <trkpt lat="47.85107" lon="6.9411">
        <ele>1159</ele>
        <time>2014-03-06T13:53:52Z</time>
      </trkpt>
      <trkpt lat="47.85108" lon="6.94105">
        <ele>1159</ele>
        <time>2014-03-06T13:53:56Z</time>
      </trkpt>
      <trkpt lat="47.85122" lon="6.94091">
        <ele>1158</ele>
        <time>2014-03-06T13:54:07Z</time>
      </trkpt>
      <trkpt lat="47.8512" lon="6.94088">
        <ele>1159</ele>
        <time>2014-03-06T13:54:13Z</time>
      </trkpt>
      <trkpt lat="47.85122" lon="6.94084">
        <ele>1159</ele>
        <time>2014-03-06T13:54:19Z</time>
      </trkpt>
      <trkpt lat="47.85127" lon="6.94078">
        <ele>1171</ele>
        <time>2014-03-06T13:54:26Z</time>
      </trkpt>
      <trkpt lat="47.85132" lon="6.94074">
        <ele>1170</ele>
        <time>2014-03-06T13:54:45Z</time>
      </trkpt>
      <trkpt lat="47.85134" lon="6.94071">
        <ele>1170</ele>
        <time>2014-03-06T13:54:56Z</time>
      </trkpt>
      <trkpt lat="47.85142" lon="6.94062">
        <ele>1170</ele>
        <time>2014-03-06T13:55:06Z</time>
      </trkpt>
      <trkpt lat="47.85147" lon="6.94059">
        <ele>1169</ele>
        <time>2014-03-06T13:55:08Z</time>
      </trkpt>
      <trkpt lat="47.8515" lon="6.94057">
        <ele>1169</ele>
        <time>2014-03-06T13:55:11Z</time>
      </trkpt>
      <trkpt lat="47.85151" lon="6.94053">
        <ele>1170</ele>
        <time>2014-03-06T13:55:17Z</time>
      </trkpt>
      <trkpt lat="47.85153" lon="6.94043">
        <ele>1171</ele>
        <time>2014-03-06T13:55:28Z</time>
      </trkpt>
      <trkpt lat="47.85162" lon="6.94028">
        <ele>1173</ele>
        <time>2014-03-06T13:55:39Z</time>
      </trkpt>
      <trkpt lat="47.85163" lon="6.9402">
        <ele>1173</ele>
        <time>2014-03-06T13:55:50Z</time>
      </trkpt>
      <trkpt lat="47.85163" lon="6.94014">
        <ele>1174</ele>
        <time>2014-03-06T13:55:54Z</time>
      </trkpt>
      <trkpt lat="47.85167" lon="6.94006">
        <ele>1169</ele>
        <time>2014-03-06T13:56:00Z</time>
      </trkpt>
      <trkpt lat="47.85167" lon="6.93998">
        <ele>1173</ele>
        <time>2014-03-06T13:57:55Z</time>
      </trkpt>
      <trkpt lat="47.85165" lon="6.93976">
        <ele>1178</ele>
        <time>2014-03-06T13:58:07Z</time>
      </trkpt>
      <trkpt lat="47.85164" lon="6.93972">
        <ele>1179</ele>
        <time>2014-03-06T13:58:12Z</time>
      </trkpt>
      <trkpt lat="47.85163" lon="6.93957">
        <ele>1179</ele>
        <time>2014-03-06T13:58:24Z</time>
      </trkpt>
      <trkpt lat="47.85162" lon="6.93951">
        <ele>1179</ele>
        <time>2014-03-06T13:58:26Z</time>
      </trkpt>
      <trkpt lat="47.85159" lon="6.93947">
        <ele>1179</ele>
        <time>2014-03-06T13:58:29Z</time>
      </trkpt>
      <trkpt lat="47.85159" lon="6.93938">
        <ele>1179</ele>
        <time>2014-03-06T13:58:35Z</time>
      </trkpt>
      <trkpt lat="47.85155" lon="6.9392">
        <ele>1178</ele>
        <time>2014-03-06T13:58:48Z</time>
      </trkpt>
      <trkpt lat="47.85149" lon="6.9391">
        <ele>1177</ele>
        <time>2014-03-06T13:59:06Z</time>
      </trkpt>
      <trkpt lat="47.8514" lon="6.93905">
        <ele>1178</ele>
        <time>2014-03-06T13:59:17Z</time>
      </trkpt>
      <trkpt lat="47.8514" lon="6.93897">
        <ele>1177</ele>
        <time>2014-03-06T13:59:19Z</time>
      </trkpt>
      <trkpt lat="47.8514" lon="6.93892">
        <ele>1177</ele>
        <time>2014-03-06T13:59:20Z</time>
      </trkpt>
      <trkpt lat="47.85139" lon="6.93887">
        <ele>1177</ele>
        <time>2014-03-06T13:59:22Z</time>
      </trkpt>
      <trkpt lat="47.85138" lon="6.93883">
        <ele>1177</ele>
        <time>2014-03-06T13:59:25Z</time>
      </trkpt>
      <trkpt lat="47.85134" lon="6.93872">
        <ele>1177</ele>
        <time>2014-03-06T13:59:29Z</time>
      </trkpt>
      <trkpt lat="47.85133" lon="6.93869">
        <ele>1177</ele>
        <time>2014-03-06T13:59:30Z</time>
      </trkpt>
      <trkpt lat="47.85131" lon="6.93863">
        <ele>1176</ele>
        <time>2014-03-06T13:59:33Z</time>
      </trkpt>
      <trkpt lat="47.85129" lon="6.93858">
        <ele>1176</ele>
        <time>2014-03-06T13:59:35Z</time>
      </trkpt>
      <trkpt lat="47.85127" lon="6.9385">
        <ele>1176</ele>
        <time>2014-03-06T13:59:39Z</time>
      </trkpt>
      <trkpt lat="47.85124" lon="6.93846">
        <ele>1176</ele>
        <time>2014-03-06T13:59:43Z</time>
      </trkpt>
      <trkpt lat="47.85116" lon="6.93841">
        <ele>1177</ele>
        <time>2014-03-06T13:59:57Z</time>
      </trkpt>
      <trkpt lat="47.85113" lon="6.93835">
        <ele>1177</ele>
        <time>2014-03-06T14:00:01Z</time>
      </trkpt>
      <trkpt lat="47.85109" lon="6.93825">
        <ele>1174</ele>
        <time>2014-03-06T14:00:14Z</time>
      </trkpt>
      <trkpt lat="47.85102" lon="6.93811">
        <ele>1174</ele>
        <time>2014-03-06T14:00:30Z</time>
      </trkpt>
      <trkpt lat="47.851" lon="6.93801">
        <ele>1174</ele>
        <time>2014-03-06T14:00:43Z</time>
      </trkpt>
      <trkpt lat="47.85097" lon="6.93798">
        <ele>1174</ele>
        <time>2014-03-06T14:00:46Z</time>
      </trkpt>
      <trkpt lat="47.85095" lon="6.93797">
        <ele>1174</ele>
        <time>2014-03-06T14:00:59Z</time>
      </trkpt>
      <trkpt lat="47.8509" lon="6.93792">
        <ele>1174</ele>
        <time>2014-03-06T14:01:10Z</time>
      </trkpt>
      <trkpt lat="47.85084" lon="6.93785">
        <ele>1174</ele>
        <time>2014-03-06T14:01:23Z</time>
      </trkpt>
      <trkpt lat="47.85082" lon="6.93777">
        <ele>1177</ele>
        <time>2014-03-06T14:01:28Z</time>
      </trkpt>
      <trkpt lat="47.8508" lon="6.93773">
        <ele>1177</ele>
        <time>2014-03-06T14:01:30Z</time>
      </trkpt>
      <trkpt lat="47.85078" lon="6.93767">
        <ele>1177</ele>
        <time>2014-03-06T14:01:34Z</time>
      </trkpt>
      <trkpt lat="47.85075" lon="6.93754">
        <ele>1178</ele>
        <time>2014-03-06T14:01:46Z</time>
      </trkpt>
      <trkpt lat="47.85074" lon="6.93749">
        <ele>1179</ele>
        <time>2014-03-06T14:01:58Z</time>
      </trkpt>
      <trkpt lat="47.85073" lon="6.93745">
        <ele>1178</ele>
        <time>2014-03-06T14:02:03Z</time>
      </trkpt>
      <trkpt lat="47.85069" lon="6.9374">
        <ele>1178</ele>
        <time>2014-03-06T14:02:14Z</time>
      </trkpt>
      <trkpt lat="47.85065" lon="6.93733">
        <ele>1177</ele>
        <time>2014-03-06T14:02:26Z</time>
      </trkpt>
      <trkpt lat="47.85061" lon="6.93726">
        <ele>1177</ele>
        <time>2014-03-06T14:02:37Z</time>
      </trkpt>
      <trkpt lat="47.8506" lon="6.93722">
        <ele>1176</ele>
        <time>2014-03-06T14:02:39Z</time>
      </trkpt>
      <trkpt lat="47.85054" lon="6.93708">
        <ele>1176</ele>
        <time>2014-03-06T14:02:43Z</time>
      </trkpt>
      <trkpt lat="47.85052" lon="6.93705">
        <ele>1176</ele>
        <time>2014-03-06T14:02:44Z</time>
      </trkpt>
      <trkpt lat="47.8505" lon="6.937">
        <ele>1176</ele>
        <time>2014-03-06T14:02:47Z</time>
      </trkpt>
      <trkpt lat="47.85048" lon="6.93695">
        <ele>1176</ele>
        <time>2014-03-06T14:02:50Z</time>
      </trkpt>
      <trkpt lat="47.85046" lon="6.93692">
        <ele>1176</ele>
        <time>2014-03-06T14:02:53Z</time>
      </trkpt>
      <trkpt lat="47.85044" lon="6.93688">
        <ele>1176</ele>
        <time>2014-03-06T14:02:57Z</time>
      </trkpt>
      <trkpt lat="47.85033" lon="6.93677">
        <ele>1176</ele>
        <time>2014-03-06T14:03:08Z</time>
      </trkpt>
      <trkpt lat="47.85021" lon="6.93654">
        <ele>1174</ele>
        <time>2014-03-06T14:03:14Z</time>
      </trkpt>
      <trkpt lat="47.85019" lon="6.93649">
        <ele>1174</ele>
        <time>2014-03-06T14:03:15Z</time>
      </trkpt>
      <trkpt lat="47.85017" lon="6.93645">
        <ele>1174</ele>
        <time>2014-03-06T14:03:16Z</time>
      </trkpt>
      <trkpt lat="47.85014" lon="6.93641">
        <ele>1174</ele>
        <time>2014-03-06T14:03:18Z</time>
      </trkpt>
      <trkpt lat="47.85013" lon="6.93634">
        <ele>1174</ele>
        <time>2014-03-06T14:03:30Z</time>
      </trkpt>
      <trkpt lat="47.85005" lon="6.93615">
        <ele>1174</ele>
        <time>2014-03-06T14:03:40Z</time>
      </trkpt>
      <trkpt lat="47.85002" lon="6.93608">
        <ele>1174</ele>
        <time>2014-03-06T14:03:46Z</time>
      </trkpt>
      <trkpt lat="47.84999" lon="6.93605">
        <ele>1171</ele>
        <time>2014-03-06T14:03:51Z</time>
      </trkpt>
      <trkpt lat="47.84992" lon="6.93594">
        <ele>1173</ele>
        <time>2014-03-06T14:04:01Z</time>
      </trkpt>
      <trkpt lat="47.84991" lon="6.93589">
        <ele>1173</ele>
        <time>2014-03-06T14:04:03Z</time>
      </trkpt>
      <trkpt lat="47.84989" lon="6.93581">
        <ele>1174</ele>
        <time>2014-03-06T14:04:07Z</time>
      </trkpt>
      <trkpt lat="47.84982" lon="6.93572">
        <ele>1173</ele>
        <time>2014-03-06T14:04:18Z</time>
      </trkpt>
      <trkpt lat="47.84981" lon="6.93568">
        <ele>1172</ele>
        <time>2014-03-06T14:04:20Z</time>
      </trkpt>
      <trkpt lat="47.84978" lon="6.93566">
        <ele>1172</ele>
        <time>2014-03-06T14:04:23Z</time>
      </trkpt>
      <trkpt lat="47.84976" lon="6.93562">
        <ele>1172</ele>
        <time>2014-03-06T14:04:26Z</time>
      </trkpt>
      <trkpt lat="47.84969" lon="6.93546">
        <ele>1171</ele>
        <time>2014-03-06T14:04:38Z</time>
      </trkpt>
      <trkpt lat="47.84968" lon="6.93537">
        <ele>1171</ele>
        <time>2014-03-06T14:04:47Z</time>
      </trkpt>
      <trkpt lat="47.84965" lon="6.93517">
        <ele>1171</ele>
        <time>2014-03-06T14:05:07Z</time>
      </trkpt>
      <trkpt lat="47.8496" lon="6.93504">
        <ele>1171</ele>
        <time>2014-03-06T14:05:21Z</time>
      </trkpt>
      <trkpt lat="47.84957" lon="6.93502">
        <ele>1171</ele>
        <time>2014-03-06T14:05:31Z</time>
      </trkpt>
      <trkpt lat="47.84954" lon="6.93502">
        <ele>1171</ele>
        <time>2014-03-06T14:05:42Z</time>
      </trkpt>
      <trkpt lat="47.84951" lon="6.93496">
        <ele>1171</ele>
        <time>2014-03-06T14:05:56Z</time>
      </trkpt>
      <trkpt lat="47.84948" lon="6.9349">
        <ele>1171</ele>
        <time>2014-03-06T14:06:01Z</time>
      </trkpt>
      <trkpt lat="47.84946" lon="6.93487">
        <ele>1171</ele>
        <time>2014-03-06T14:06:04Z</time>
      </trkpt>
      <trkpt lat="47.84946" lon="6.93474">
        <ele>1171</ele>
        <time>2014-03-06T14:06:13Z</time>
      </trkpt>
      <trkpt lat="47.84945" lon="6.93469">
        <ele>1171</ele>
        <time>2014-03-06T14:06:17Z</time>
      </trkpt>
      <trkpt lat="47.8494" lon="6.93458">
        <ele>1171</ele>
        <time>2014-03-06T14:06:29Z</time>
      </trkpt>
      <trkpt lat="47.84941" lon="6.93444">
        <ele>1171</ele>
        <time>2014-03-06T14:06:41Z</time>
      </trkpt>
      <trkpt lat="47.84935" lon="6.93433">
        <ele>1173</ele>
        <time>2014-03-06T14:06:52Z</time>
      </trkpt>
      <trkpt lat="47.84927" lon="6.93413">
        <ele>1173</ele>
        <time>2014-03-06T14:06:57Z</time>
      </trkpt>
      <trkpt lat="47.84923" lon="6.93404">
        <ele>1173</ele>
        <time>2014-03-06T14:06:59Z</time>
      </trkpt>
      <trkpt lat="47.84921" lon="6.934">
        <ele>1172</ele>
        <time>2014-03-06T14:07:00Z</time>
      </trkpt>
      <trkpt lat="47.8492" lon="6.93396">
        <ele>1171</ele>
        <time>2014-03-06T14:07:01Z</time>
      </trkpt>
      <trkpt lat="47.84919" lon="6.93391">
        <ele>1170</ele>
        <time>2014-03-06T14:07:03Z</time>
      </trkpt>
      <trkpt lat="47.84918" lon="6.93388">
        <ele>1169</ele>
        <time>2014-03-06T14:07:06Z</time>
      </trkpt>
      <trkpt lat="47.84919" lon="6.93384">
        <ele>1169</ele>
        <time>2014-03-06T14:07:16Z</time>
      </trkpt>
      <trkpt lat="47.8492" lon="6.93372">
        <ele>1168</ele>
        <time>2014-03-06T14:07:22Z</time>
      </trkpt>
      <trkpt lat="47.84917" lon="6.93364">
        <ele>1169</ele>
        <time>2014-03-06T14:07:28Z</time>
      </trkpt>
      <trkpt lat="47.84914" lon="6.93351">
        <ele>1176</ele>
        <time>2014-03-06T14:07:43Z</time>
      </trkpt>
      <trkpt lat="47.84911" lon="6.93329">
        <ele>1176</ele>
        <time>2014-03-06T14:07:53Z</time>
      </trkpt>
      <trkpt lat="47.84908" lon="6.9331">
        <ele>1176</ele>
        <time>2014-03-06T14:08:01Z</time>
      </trkpt>
      <trkpt lat="47.849" lon="6.93295">
        <ele>1175</ele>
        <time>2014-03-06T14:08:11Z</time>
      </trkpt>
      <trkpt lat="47.84899" lon="6.93287">
        <ele>1175</ele>
        <time>2014-03-06T14:08:17Z</time>
      </trkpt>
      <trkpt lat="47.84897" lon="6.93276">
        <ele>1174</ele>
        <time>2014-03-06T14:08:26Z</time>
      </trkpt>
      <trkpt lat="47.84895" lon="6.93259">
        <ele>1173</ele>
        <time>2014-03-06T14:08:37Z</time>
      </trkpt>
      <trkpt lat="47.84895" lon="6.93253">
        <ele>1173</ele>
        <time>2014-03-06T14:08:39Z</time>
      </trkpt>
      <trkpt lat="47.84893" lon="6.93247">
        <ele>1168</ele>
        <time>2014-03-06T14:08:41Z</time>
      </trkpt>
      <trkpt lat="47.84892" lon="6.93243">
        <ele>1168</ele>
        <time>2014-03-06T14:08:42Z</time>
      </trkpt>
      <trkpt lat="47.84891" lon="6.93239">
        <ele>1168</ele>
        <time>2014-03-06T14:08:45Z</time>
      </trkpt>
      <trkpt lat="47.84888" lon="6.9323">
        <ele>1168</ele>
        <time>2014-03-06T14:08:56Z</time>
      </trkpt>
      <trkpt lat="47.84887" lon="6.93225">
        <ele>1167</ele>
        <time>2014-03-06T14:09:00Z</time>
      </trkpt>
      <trkpt lat="47.84886" lon="6.93211">
        <ele>1166</ele>
        <time>2014-03-06T14:09:10Z</time>
      </trkpt>
      <trkpt lat="47.84881" lon="6.93196">
        <ele>1165</ele>
        <time>2014-03-06T14:09:18Z</time>
      </trkpt>
      <trkpt lat="47.84878" lon="6.93189">
        <ele>1165</ele>
        <time>2014-03-06T14:09:26Z</time>
      </trkpt>
      <trkpt lat="47.84873" lon="6.93171">
        <ele>1165</ele>
        <time>2014-03-06T14:09:37Z</time>
      </trkpt>
      <trkpt lat="47.84871" lon="6.93165">
        <ele>1154</ele>
        <time>2014-03-06T14:09:39Z</time>
      </trkpt>
      <trkpt lat="47.84869" lon="6.93162">
        <ele>1154</ele>
        <time>2014-03-06T14:09:46Z</time>
      </trkpt>
      <trkpt lat="47.84869" lon="6.93157">
        <ele>1154</ele>
        <time>2014-03-06T14:10:38Z</time>
      </trkpt>
      <trkpt lat="47.84867" lon="6.93153">
        <ele>1154</ele>
        <time>2014-03-06T14:10:42Z</time>
      </trkpt>
      <trkpt lat="47.84864" lon="6.9315">
        <ele>1154</ele>
        <time>2014-03-06T14:10:43Z</time>
      </trkpt>
      <trkpt lat="47.84859" lon="6.93126">
        <ele>1152</ele>
        <time>2014-03-06T14:10:56Z</time>
      </trkpt>
      <trkpt lat="47.84856" lon="6.93122">
        <ele>1152</ele>
        <time>2014-03-06T14:11:00Z</time>
      </trkpt>
      <trkpt lat="47.84853" lon="6.93113">
        <ele>1151</ele>
        <time>2014-03-06T14:11:06Z</time>
      </trkpt>
      <trkpt lat="47.84847" lon="6.93111">
        <ele>1151</ele>
        <time>2014-03-06T14:11:21Z</time>
      </trkpt>
      <trkpt lat="47.84846" lon="6.93107">
        <ele>1151</ele>
        <time>2014-03-06T14:11:23Z</time>
      </trkpt>
      <trkpt lat="47.84842" lon="6.93099">
        <ele>1151</ele>
        <time>2014-03-06T14:11:27Z</time>
      </trkpt>
      <trkpt lat="47.8484" lon="6.93097">
        <ele>1151</ele>
        <time>2014-03-06T14:11:30Z</time>
      </trkpt>
      <trkpt lat="47.84839" lon="6.93093">
        <ele>1151</ele>
        <time>2014-03-06T14:11:33Z</time>
      </trkpt>
      <trkpt lat="47.84838" lon="6.9308">
        <ele>1147</ele>
        <time>2014-03-06T14:11:44Z</time>
      </trkpt>
      <trkpt lat="47.84837" lon="6.93077">
        <ele>1146</ele>
        <time>2014-03-06T14:11:53Z</time>
      </trkpt>
      <trkpt lat="47.84842" lon="6.93071">
        <ele>1143</ele>
        <time>2014-03-06T14:12:05Z</time>
      </trkpt>
      <trkpt lat="47.84844" lon="6.93063">
        <ele>1140</ele>
        <time>2014-03-06T14:12:16Z</time>
      </trkpt>
      <trkpt lat="47.8484" lon="6.93063">
        <ele>1141</ele>
        <time>2014-03-06T14:12:35Z</time>
      </trkpt>
      <trkpt lat="47.84843" lon="6.93064">
        <ele>1140</ele>
        <time>2014-03-06T14:14:15Z</time>
      </trkpt>
      <trkpt lat="47.8484" lon="6.93066">
        <ele>1142</ele>
        <time>2014-03-06T14:14:45Z</time>
      </trkpt>
      <trkpt lat="47.84835" lon="6.93063">
        <ele>1141</ele>
        <time>2014-03-06T14:15:09Z</time>
      </trkpt>
      <trkpt lat="47.84836" lon="6.93054">
        <ele>1139</ele>
        <time>2014-03-06T14:15:21Z</time>
      </trkpt>
      <trkpt lat="47.84833" lon="6.93047">
        <ele>1141</ele>
        <time>2014-03-06T14:15:32Z</time>
      </trkpt>
      <trkpt lat="47.8483" lon="6.93044">
        <ele>1141</ele>
        <time>2014-03-06T14:15:35Z</time>
      </trkpt>
      <trkpt lat="47.84828" lon="6.93037">
        <ele>1140</ele>
        <time>2014-03-06T14:15:46Z</time>
      </trkpt>
      <trkpt lat="47.84829" lon="6.93034">
        <ele>1140</ele>
        <time>2014-03-06T14:15:56Z</time>
      </trkpt>
      <trkpt lat="47.84831" lon="6.93029">
        <ele>1139</ele>
        <time>2014-03-06T14:16:31Z</time>
      </trkpt>
      <trkpt lat="47.8483" lon="6.93016">
        <ele>1138</ele>
        <time>2014-03-06T14:16:44Z</time>
      </trkpt>
      <trkpt lat="47.84833" lon="6.93002">
        <ele>1137</ele>
        <time>2014-03-06T14:17:02Z</time>
      </trkpt>
      <trkpt lat="47.84833" lon="6.92998">
        <ele>1136</ele>
        <time>2014-03-06T14:17:16Z</time>
      </trkpt>
      <trkpt lat="47.84834" lon="6.92985">
        <ele>1130</ele>
        <time>2014-03-06T14:17:28Z</time>
      </trkpt>
      <trkpt lat="47.84834" lon="6.92979">
        <ele>1129</ele>
        <time>2014-03-06T14:17:30Z</time>
      </trkpt>
      <trkpt lat="47.84834" lon="6.92976">
        <ele>1128</ele>
        <time>2014-03-06T14:17:32Z</time>
      </trkpt>
      <trkpt lat="47.84834" lon="6.92971">
        <ele>1127</ele>
        <time>2014-03-06T14:17:41Z</time>
      </trkpt>
      <trkpt lat="47.84833" lon="6.92958">
        <ele>1130</ele>
        <time>2014-03-06T14:17:53Z</time>
      </trkpt>
      <trkpt lat="47.84837" lon="6.92939">
        <ele>1125</ele>
        <time>2014-03-06T14:18:06Z</time>
      </trkpt>
      <trkpt lat="47.84838" lon="6.92935">
        <ele>1125</ele>
        <time>2014-03-06T14:18:08Z</time>
      </trkpt>
      <trkpt lat="47.84839" lon="6.92931">
        <ele>1125</ele>
        <time>2014-03-06T14:18:10Z</time>
      </trkpt>
      <trkpt lat="47.84838" lon="6.92917">
        <ele>1127</ele>
        <time>2014-03-06T14:18:19Z</time>
      </trkpt>
      <trkpt lat="47.84835" lon="6.92907">
        <ele>1123</ele>
        <time>2014-03-06T14:18:23Z</time>
      </trkpt>
      <trkpt lat="47.84833" lon="6.92904">
        <ele>1124</ele>
        <time>2014-03-06T14:18:27Z</time>
      </trkpt>
      <trkpt lat="47.84844" lon="6.92889">
        <ele>1118</ele>
        <time>2014-03-06T14:18:37Z</time>
      </trkpt>
      <trkpt lat="47.84843" lon="6.92878">
        <ele>1117</ele>
        <time>2014-03-06T14:18:41Z</time>
      </trkpt>
      <trkpt lat="47.84845" lon="6.9287">
        <ele>1116</ele>
        <time>2014-03-06T14:18:48Z</time>
      </trkpt>
      <trkpt lat="47.8485" lon="6.92863">
        <ele>1115</ele>
        <time>2014-03-06T14:18:59Z</time>
      </trkpt>
      <trkpt lat="47.84858" lon="6.92851">
        <ele>1114</ele>
        <time>2014-03-06T14:19:12Z</time>
      </trkpt>
      <trkpt lat="47.84869" lon="6.92835">
        <ele>1112</ele>
        <time>2014-03-06T14:19:22Z</time>
      </trkpt>
      <trkpt lat="47.84863" lon="6.92822">
        <ele>1105</ele>
        <time>2014-03-06T14:19:33Z</time>
      </trkpt>
      <trkpt lat="47.84855" lon="6.92801">
        <ele>1104</ele>
        <time>2014-03-06T14:19:45Z</time>
      </trkpt>
      <trkpt lat="47.84854" lon="6.92796">
        <ele>1104</ele>
        <time>2014-03-06T14:19:47Z</time>
      </trkpt>
      <trkpt lat="47.84854" lon="6.92792">
        <ele>1103</ele>
        <time>2014-03-06T14:19:49Z</time>
      </trkpt>
      <trkpt lat="47.84854" lon="6.92788">
        <ele>1103</ele>
        <time>2014-03-06T14:19:52Z</time>
      </trkpt>
      <trkpt lat="47.84853" lon="6.92779">
        <ele>1102</ele>
        <time>2014-03-06T14:19:57Z</time>
      </trkpt>
      <trkpt lat="47.84853" lon="6.92775">
        <ele>1102</ele>
        <time>2014-03-06T14:20:00Z</time>
      </trkpt>
      <trkpt lat="47.84852" lon="6.92771">
        <ele>1102</ele>
        <time>2014-03-06T14:20:02Z</time>
      </trkpt>
      <trkpt lat="47.84843" lon="6.92761">
        <ele>1103</ele>
        <time>2014-03-06T14:20:15Z</time>
      </trkpt>
      <trkpt lat="47.84846" lon="6.9275">
        <ele>1103</ele>
        <time>2014-03-06T14:20:25Z</time>
      </trkpt>
      <trkpt lat="47.84846" lon="6.92723">
        <ele>1094</ele>
        <time>2014-03-06T14:20:35Z</time>
      </trkpt>
      <trkpt lat="47.84846" lon="6.92712">
        <ele>1093</ele>
        <time>2014-03-06T14:20:39Z</time>
      </trkpt>
      <trkpt lat="47.84847" lon="6.92708">
        <ele>1092</ele>
        <time>2014-03-06T14:20:40Z</time>
      </trkpt>
      <trkpt lat="47.84847" lon="6.92704">
        <ele>1092</ele>
        <time>2014-03-06T14:20:41Z</time>
      </trkpt>
      <trkpt lat="47.84847" lon="6.92699">
        <ele>1092</ele>
        <time>2014-03-06T14:20:42Z</time>
      </trkpt>
      <trkpt lat="47.84847" lon="6.92692">
        <ele>1092</ele>
        <time>2014-03-06T14:20:44Z</time>
      </trkpt>
      <trkpt lat="47.8485" lon="6.92684">
        <ele>1092</ele>
        <time>2014-03-06T14:20:50Z</time>
      </trkpt>
      <trkpt lat="47.84849" lon="6.92674">
        <ele>1094</ele>
        <time>2014-03-06T14:21:02Z</time>
      </trkpt>
      <trkpt lat="47.8485" lon="6.9267">
        <ele>1094</ele>
        <time>2014-03-06T14:22:13Z</time>
      </trkpt>
      <trkpt lat="47.84851" lon="6.92665">
        <ele>1090</ele>
        <time>2014-03-06T14:22:20Z</time>
      </trkpt>
      <trkpt lat="47.84852" lon="6.92653">
        <ele>1088</ele>
        <time>2014-03-06T14:22:39Z</time>
      </trkpt>
      <trkpt lat="47.84853" lon="6.92644">
        <ele>1086</ele>
        <time>2014-03-06T14:22:48Z</time>
      </trkpt>
      <trkpt lat="47.84853" lon="6.92635">
        <ele>1085</ele>
        <time>2014-03-06T14:23:01Z</time>
      </trkpt>
      <trkpt lat="47.84853" lon="6.92628">
        <ele>1085</ele>
        <time>2014-03-06T14:23:05Z</time>
      </trkpt>
      <trkpt lat="47.84858" lon="6.92614">
        <ele>1084</ele>
        <time>2014-03-06T14:23:17Z</time>
      </trkpt>
      <trkpt lat="47.84859" lon="6.926">
        <ele>1084</ele>
        <time>2014-03-06T14:23:31Z</time>
      </trkpt>
      <trkpt lat="47.84856" lon="6.92586">
        <ele>1085</ele>
        <time>2014-03-06T14:23:35Z</time>
      </trkpt>
      <trkpt lat="47.84851" lon="6.92575">
        <ele>1083</ele>
        <time>2014-03-06T14:23:42Z</time>
      </trkpt>
      <trkpt lat="47.84848" lon="6.92562">
        <ele>1081</ele>
        <time>2014-03-06T14:23:53Z</time>
      </trkpt>
      <trkpt lat="47.84839" lon="6.92549">
        <ele>1079</ele>
        <time>2014-03-06T14:24:06Z</time>
      </trkpt>
      <trkpt lat="47.84831" lon="6.92533">
        <ele>1075</ele>
        <time>2014-03-06T14:24:20Z</time>
      </trkpt>
      <trkpt lat="47.84829" lon="6.92531">
        <ele>1074</ele>
        <time>2014-03-06T14:24:29Z</time>
      </trkpt>
      <trkpt lat="47.84827" lon="6.92527">
        <ele>1073</ele>
        <time>2014-03-06T14:24:56Z</time>
      </trkpt>
      <trkpt lat="47.84831" lon="6.9252">
        <ele>1073</ele>
        <time>2014-03-06T14:25:02Z</time>
      </trkpt>
      <trkpt lat="47.84835" lon="6.92517">
        <ele>1074</ele>
        <time>2014-03-06T14:25:12Z</time>
      </trkpt>
      <trkpt lat="47.84855" lon="6.92517">
        <ele>1075</ele>
        <time>2014-03-06T14:25:24Z</time>
      </trkpt>
      <trkpt lat="47.84858" lon="6.92517">
        <ele>1075</ele>
        <time>2014-03-06T14:25:27Z</time>
      </trkpt>
      <trkpt lat="47.84866" lon="6.92501">
        <ele>1075</ele>
        <time>2014-03-06T14:25:42Z</time>
      </trkpt>
      <trkpt lat="47.84865" lon="6.92492">
        <ele>1072</ele>
        <time>2014-03-06T14:25:55Z</time>
      </trkpt>
      <trkpt lat="47.84863" lon="6.92472">
        <ele>1072</ele>
        <time>2014-03-06T14:26:06Z</time>
      </trkpt>
      <trkpt lat="47.84863" lon="6.92463">
        <ele>1072</ele>
        <time>2014-03-06T14:26:39Z</time>
      </trkpt>
      <trkpt lat="47.84862" lon="6.92458">
        <ele>1071</ele>
        <time>2014-03-06T14:26:57Z</time>
      </trkpt>
      <trkpt lat="47.84856" lon="6.9246">
        <ele>1071</ele>
        <time>2014-03-06T14:27:07Z</time>
      </trkpt>
      <trkpt lat="47.84853" lon="6.92461">
        <ele>1070</ele>
        <time>2014-03-06T14:27:19Z</time>
      </trkpt>
      <trkpt lat="47.84851" lon="6.92461">
        <ele>1070</ele>
        <time>2014-03-06T14:27:27Z</time>
      </trkpt>
      <trkpt lat="47.84847" lon="6.92461">
        <ele>1070</ele>
        <time>2014-03-06T14:27:37Z</time>
      </trkpt>
      <trkpt lat="47.84845" lon="6.92457">
        <ele>1069</ele>
        <time>2014-03-06T14:27:54Z</time>
      </trkpt>
      <trkpt lat="47.84844" lon="6.92452">
        <ele>1068</ele>
        <time>2014-03-06T14:27:58Z</time>
      </trkpt>
      <trkpt lat="47.84839" lon="6.92438">
        <ele>1064</ele>
        <time>2014-03-06T14:28:09Z</time>
      </trkpt>
      <trkpt lat="47.84843" lon="6.92436">
        <ele>1064</ele>
        <time>2014-03-06T14:28:11Z</time>
      </trkpt>
      <trkpt lat="47.84839" lon="6.92428">
        <ele>1060</ele>
        <time>2014-03-06T14:28:24Z</time>
      </trkpt>
      <trkpt lat="47.84834" lon="6.92433">
        <ele>1062</ele>
        <time>2014-03-06T14:28:41Z</time>
      </trkpt>
      <trkpt lat="47.84828" lon="6.92435">
        <ele>1050</ele>
        <time>2014-03-06T14:28:52Z</time>
      </trkpt>
      <trkpt lat="47.84819" lon="6.92436">
        <ele>1049</ele>
        <time>2014-03-06T14:29:05Z</time>
      </trkpt>
      <trkpt lat="47.84811" lon="6.92436">
        <ele>1048</ele>
        <time>2014-03-06T14:29:14Z</time>
      </trkpt>
      <trkpt lat="47.84803" lon="6.9244">
        <ele>1048</ele>
        <time>2014-03-06T14:29:28Z</time>
      </trkpt>
      <trkpt lat="47.84818" lon="6.92408">
        <ele>1040</ele>
        <time>2014-03-06T14:29:38Z</time>
      </trkpt>
      <trkpt lat="47.8482" lon="6.92403">
        <ele>1040</ele>
        <time>2014-03-06T14:29:40Z</time>
      </trkpt>
      <trkpt lat="47.84819" lon="6.924">
        <ele>1038</ele>
        <time>2014-03-06T14:29:43Z</time>
      </trkpt>
      <trkpt lat="47.84806" lon="6.92404">
        <ele>1035</ele>
        <time>2014-03-06T14:29:55Z</time>
      </trkpt>
      <trkpt lat="47.84805" lon="6.92412">
        <ele>1036</ele>
        <time>2014-03-06T14:30:05Z</time>
      </trkpt>
      <trkpt lat="47.84804" lon="6.92416">
        <ele>1035</ele>
        <time>2014-03-06T14:30:07Z</time>
      </trkpt>
      <trkpt lat="47.84794" lon="6.92407">
        <ele>1032</ele>
        <time>2014-03-06T14:30:17Z</time>
      </trkpt>
      <trkpt lat="47.84805" lon="6.92382">
        <ele>1032</ele>
        <time>2014-03-06T14:30:28Z</time>
      </trkpt>
      <trkpt lat="47.84795" lon="6.92393">
        <ele>1031</ele>
        <time>2014-03-06T14:30:36Z</time>
      </trkpt>
      <trkpt lat="47.84791" lon="6.92394">
        <ele>1030</ele>
        <time>2014-03-06T14:30:41Z</time>
      </trkpt>
      <trkpt lat="47.84785" lon="6.924">
        <ele>1029</ele>
        <time>2014-03-06T14:30:51Z</time>
      </trkpt>
      <trkpt lat="47.84786" lon="6.92396">
        <ele>1029</ele>
        <time>2014-03-06T14:31:00Z</time>
      </trkpt>
      <trkpt lat="47.84791" lon="6.92384">
        <ele>1029</ele>
        <time>2014-03-06T14:31:03Z</time>
      </trkpt>
      <trkpt lat="47.84794" lon="6.92381">
        <ele>1030</ele>
        <time>2014-03-06T14:31:05Z</time>
      </trkpt>
      <trkpt lat="47.84792" lon="6.92378">
        <ele>1029</ele>
        <time>2014-03-06T14:31:09Z</time>
      </trkpt>
      <trkpt lat="47.84789" lon="6.92378">
        <ele>1028</ele>
        <time>2014-03-06T14:31:20Z</time>
      </trkpt>
      <trkpt lat="47.84785" lon="6.92378">
        <ele>1028</ele>
        <time>2014-03-06T14:31:24Z</time>
      </trkpt>
      <trkpt lat="47.84782" lon="6.92378">
        <ele>1027</ele>
        <time>2014-03-06T14:31:28Z</time>
      </trkpt>
      <trkpt lat="47.84766" lon="6.92381">
        <ele>1025</ele>
        <time>2014-03-06T14:31:39Z</time>
      </trkpt>
      <trkpt lat="47.84765" lon="6.92385">
        <ele>1025</ele>
        <time>2014-03-06T14:31:44Z</time>
      </trkpt>
      <trkpt lat="47.84759" lon="6.9239">
        <ele>1025</ele>
        <time>2014-03-06T14:31:51Z</time>
      </trkpt>
      <trkpt lat="47.84757" lon="6.92381">
        <ele>1024</ele>
        <time>2014-03-06T14:32:02Z</time>
      </trkpt>
      <trkpt lat="47.84748" lon="6.92384">
        <ele>1008</ele>
        <time>2014-03-06T14:32:13Z</time>
      </trkpt>
      <trkpt lat="47.84736" lon="6.92391">
        <ele>1009</ele>
        <time>2014-03-06T14:32:26Z</time>
      </trkpt>
      <trkpt lat="47.84733" lon="6.9239">
        <ele>1008</ele>
        <time>2014-03-06T14:32:32Z</time>
      </trkpt>
      <trkpt lat="47.84711" lon="6.92398">
        <ele>1006</ele>
        <time>2014-03-06T14:32:52Z</time>
      </trkpt>
      <trkpt lat="47.84712" lon="6.9239">
        <ele>1006</ele>
        <time>2014-03-06T14:33:03Z</time>
      </trkpt>
      <trkpt lat="47.84715" lon="6.92391">
        <ele>1006</ele>
        <time>2014-03-06T14:34:11Z</time>
      </trkpt>
      <trkpt lat="47.84714" lon="6.92395">
        <ele>1006</ele>
        <time>2014-03-06T14:34:14Z</time>
      </trkpt>
      <trkpt lat="47.84712" lon="6.92398">
        <ele>1006</ele>
        <time>2014-03-06T14:34:19Z</time>
      </trkpt>
      <trkpt lat="47.8471" lon="6.92401">
        <ele>1006</ele>
        <time>2014-03-06T14:34:29Z</time>
      </trkpt>
      <trkpt lat="47.84705" lon="6.92405">
        <ele>1006</ele>
        <time>2014-03-06T14:34:40Z</time>
      </trkpt>
      <trkpt lat="47.84702" lon="6.92406">
        <ele>1005</ele>
        <time>2014-03-06T14:34:44Z</time>
      </trkpt>
      <trkpt lat="47.84697" lon="6.92409">
        <ele>1005</ele>
        <time>2014-03-06T14:34:57Z</time>
      </trkpt>
      <trkpt lat="47.84687" lon="6.92412">
        <ele>1004</ele>
        <time>2014-03-06T14:35:07Z</time>
      </trkpt>
      <trkpt lat="47.84675" lon="6.92415">
        <ele>1003</ele>
        <time>2014-03-06T14:35:17Z</time>
      </trkpt>
      <trkpt lat="47.84672" lon="6.92417">
        <ele>1007</ele>
        <time>2014-03-06T14:35:19Z</time>
      </trkpt>
      <trkpt lat="47.84669" lon="6.92419">
        <ele>1005</ele>
        <time>2014-03-06T14:35:21Z</time>
      </trkpt>
      <trkpt lat="47.84666" lon="6.9242">
        <ele>1004</ele>
        <time>2014-03-06T14:35:23Z</time>
      </trkpt>
      <trkpt lat="47.84663" lon="6.92422">
        <ele>1005</ele>
        <time>2014-03-06T14:35:26Z</time>
      </trkpt>
      <trkpt lat="47.84658" lon="6.92424">
        <ele>1006</ele>
        <time>2014-03-06T14:35:36Z</time>
      </trkpt>
      <trkpt lat="47.84654" lon="6.92423">
        <ele>1006</ele>
        <time>2014-03-06T14:35:39Z</time>
      </trkpt>
      <trkpt lat="47.8464" lon="6.92421">
        <ele>1007</ele>
        <time>2014-03-06T14:35:50Z</time>
      </trkpt>
      <trkpt lat="47.84626" lon="6.92418">
        <ele>1006</ele>
        <time>2014-03-06T14:35:57Z</time>
      </trkpt>
      <trkpt lat="47.84623" lon="6.92417">
        <ele>1006</ele>
        <time>2014-03-06T14:36:00Z</time>
      </trkpt>
      <trkpt lat="47.84609" lon="6.92419">
        <ele>1004</ele>
        <time>2014-03-06T14:36:10Z</time>
      </trkpt>
      <trkpt lat="47.84606" lon="6.92419">
        <ele>1003</ele>
        <time>2014-03-06T14:36:13Z</time>
      </trkpt>
      <trkpt lat="47.84597" lon="6.92417">
        <ele>1001</ele>
        <time>2014-03-06T14:36:21Z</time>
      </trkpt>
      <trkpt lat="47.84591" lon="6.92408">
        <ele>995</ele>
        <time>2014-03-06T14:36:36Z</time>
      </trkpt>
      <trkpt lat="47.84588" lon="6.92407">
        <ele>995</ele>
        <time>2014-03-06T14:36:48Z</time>
      </trkpt>
      <trkpt lat="47.84586" lon="6.92406">
        <ele>995</ele>
        <time>2014-03-06T14:36:54Z</time>
      </trkpt>
      <trkpt lat="47.84586" lon="6.92398">
        <ele>994</ele>
        <time>2014-03-06T14:37:07Z</time>
      </trkpt>
      <trkpt lat="47.84588" lon="6.92395">
        <ele>994</ele>
        <time>2014-03-06T14:37:11Z</time>
      </trkpt>
      <trkpt lat="47.84591" lon="6.92396">
        <ele>994</ele>
        <time>2014-03-06T14:37:14Z</time>
      </trkpt>
      <trkpt lat="47.84588" lon="6.92395">
        <ele>994</ele>
        <time>2014-03-06T14:37:22Z</time>
      </trkpt>
      <trkpt lat="47.84586" lon="6.92394">
        <ele>994</ele>
        <time>2014-03-06T14:37:31Z</time>
      </trkpt>
      <trkpt lat="47.84575" lon="6.92392">
        <ele>993</ele>
        <time>2014-03-06T14:40:01Z</time>
      </trkpt>
      <trkpt lat="47.84573" lon="6.9239">
        <ele>993</ele>
        <time>2014-03-06T14:40:03Z</time>
      </trkpt>
      <trkpt lat="47.8457" lon="6.92386">
        <ele>992</ele>
        <time>2014-03-06T14:40:05Z</time>
      </trkpt>
      <trkpt lat="47.84568" lon="6.92384">
        <ele>992</ele>
        <time>2014-03-06T14:40:07Z</time>
      </trkpt>
      <trkpt lat="47.84559" lon="6.92371">
        <ele>992</ele>
        <time>2014-03-06T14:40:16Z</time>
      </trkpt>
      <trkpt lat="47.84552" lon="6.92362">
        <ele>992</ele>
        <time>2014-03-06T14:40:28Z</time>
      </trkpt>
      <trkpt lat="47.84555" lon="6.92365">
        <ele>992</ele>
        <time>2014-03-06T14:42:36Z</time>
      </trkpt>
      <trkpt lat="47.84556" lon="6.92374">
        <ele>992</ele>
        <time>2014-03-06T14:42:47Z</time>
      </trkpt>
      <trkpt lat="47.84556" lon="6.92387">
        <ele>992</ele>
        <time>2014-03-06T14:42:59Z</time>
      </trkpt>
      <trkpt lat="47.84555" lon="6.92392">
        <ele>993</ele>
        <time>2014-03-06T14:43:01Z</time>
      </trkpt>
      <trkpt lat="47.84553" lon="6.92401">
        <ele>993</ele>
        <time>2014-03-06T14:43:05Z</time>
      </trkpt>
      <trkpt lat="47.84552" lon="6.92406">
        <ele>993</ele>
        <time>2014-03-06T14:43:08Z</time>
      </trkpt>
      <trkpt lat="47.84551" lon="6.9241">
        <ele>993</ele>
        <time>2014-03-06T14:43:11Z</time>
      </trkpt>
      <trkpt lat="47.8455" lon="6.92419">
        <ele>994</ele>
        <time>2014-03-06T14:43:21Z</time>
      </trkpt>
      <trkpt lat="47.8455" lon="6.92423">
        <ele>994</ele>
        <time>2014-03-06T14:43:28Z</time>
      </trkpt>
      <trkpt lat="47.84545" lon="6.92433">
        <ele>994</ele>
        <time>2014-03-06T14:43:48Z</time>
      </trkpt>
      <trkpt lat="47.84544" lon="6.92438">
        <ele>994</ele>
        <time>2014-03-06T14:44:01Z</time>
      </trkpt>
      <trkpt lat="47.84544" lon="6.92442">
        <ele>994</ele>
        <time>2014-03-06T14:44:04Z</time>
      </trkpt>
      <trkpt lat="47.84542" lon="6.92454">
        <ele>994</ele>
        <time>2014-03-06T14:44:15Z</time>
      </trkpt>
      <trkpt lat="47.84537" lon="6.92478">
        <ele>994</ele>
        <time>2014-03-06T14:44:27Z</time>
      </trkpt>
      <trkpt lat="47.8453" lon="6.92495">
        <ele>992</ele>
        <time>2014-03-06T14:44:31Z</time>
      </trkpt>
      <trkpt lat="47.84531" lon="6.9251">
        <ele>991</ele>
        <time>2014-03-06T14:44:45Z</time>
      </trkpt>
      <trkpt lat="47.84528" lon="6.92528">
        <ele>991</ele>
        <time>2014-03-06T14:44:59Z</time>
      </trkpt>
      <trkpt lat="47.84528" lon="6.92538">
        <ele>990</ele>
        <time>2014-03-06T14:45:07Z</time>
      </trkpt>
      <trkpt lat="47.8453" lon="6.92553">
        <ele>990</ele>
        <time>2014-03-06T14:45:18Z</time>
      </trkpt>
      <trkpt lat="47.84531" lon="6.92563">
        <ele>989</ele>
        <time>2014-03-06T14:45:24Z</time>
      </trkpt>
      <trkpt lat="47.8453" lon="6.92574">
        <ele>988</ele>
        <time>2014-03-06T14:45:34Z</time>
      </trkpt>
      <trkpt lat="47.84532" lon="6.92585">
        <ele>983</ele>
        <time>2014-03-06T14:45:40Z</time>
      </trkpt>
      <trkpt lat="47.84533" lon="6.92596">
        <ele>983</ele>
        <time>2014-03-06T14:47:34Z</time>
      </trkpt>
      <trkpt lat="47.84531" lon="6.92599">
        <ele>982</ele>
        <time>2014-03-06T14:48:48Z</time>
      </trkpt>
      <trkpt lat="47.84542" lon="6.9261">
        <ele>985</ele>
        <time>2014-03-06T14:48:59Z</time>
      </trkpt>
      <trkpt lat="47.84544" lon="6.92616">
        <ele>985</ele>
        <time>2014-03-06T14:49:01Z</time>
      </trkpt>
      <trkpt lat="47.84545" lon="6.92621">
        <ele>985</ele>
        <time>2014-03-06T14:49:03Z</time>
      </trkpt>
      <trkpt lat="47.84551" lon="6.92628">
        <ele>986</ele>
        <time>2014-03-06T14:49:14Z</time>
      </trkpt>
      <trkpt lat="47.84553" lon="6.9263">
        <ele>986</ele>
        <time>2014-03-06T14:49:17Z</time>
      </trkpt>
      <trkpt lat="47.84555" lon="6.92643">
        <ele>986</ele>
        <time>2014-03-06T14:49:29Z</time>
      </trkpt>
      <trkpt lat="47.84557" lon="6.92654">
        <ele>987</ele>
        <time>2014-03-06T14:49:42Z</time>
      </trkpt>
      <trkpt lat="47.84555" lon="6.92669">
        <ele>985</ele>
        <time>2014-03-06T14:49:54Z</time>
      </trkpt>
      <trkpt lat="47.84554" lon="6.92674">
        <ele>985</ele>
        <time>2014-03-06T14:49:57Z</time>
      </trkpt>
      <trkpt lat="47.84554" lon="6.9268">
        <ele>985</ele>
        <time>2014-03-06T14:50:00Z</time>
      </trkpt>
      <trkpt lat="47.84553" lon="6.92702">
        <ele>984</ele>
        <time>2014-03-06T14:50:10Z</time>
      </trkpt>
      <trkpt lat="47.84552" lon="6.92715">
        <ele>984</ele>
        <time>2014-03-06T14:50:20Z</time>
      </trkpt>
      <trkpt lat="47.84542" lon="6.92742">
        <ele>983</ele>
        <time>2014-03-06T14:50:29Z</time>
      </trkpt>
      <trkpt lat="47.8454" lon="6.92747">
        <ele>982</ele>
        <time>2014-03-06T14:50:31Z</time>
      </trkpt>
      <trkpt lat="47.84538" lon="6.92751">
        <ele>988</ele>
        <time>2014-03-06T14:50:33Z</time>
      </trkpt>
      <trkpt lat="47.84535" lon="6.92756">
        <ele>987</ele>
        <time>2014-03-06T14:50:35Z</time>
      </trkpt>
      <trkpt lat="47.84524" lon="6.92775">
        <ele>986</ele>
        <time>2014-03-06T14:50:47Z</time>
      </trkpt>
      <trkpt lat="47.8452" lon="6.92784">
        <ele>986</ele>
        <time>2014-03-06T14:50:54Z</time>
      </trkpt>
      <trkpt lat="47.84519" lon="6.9279">
        <ele>987</ele>
        <time>2014-03-06T14:50:57Z</time>
      </trkpt>
      <trkpt lat="47.84517" lon="6.92808">
        <ele>987</ele>
        <time>2014-03-06T14:51:09Z</time>
      </trkpt>
      <trkpt lat="47.84515" lon="6.92817">
        <ele>985</ele>
        <time>2014-03-06T14:51:18Z</time>
      </trkpt>
      <trkpt lat="47.84513" lon="6.92831">
        <ele>983</ele>
        <time>2014-03-06T14:51:28Z</time>
      </trkpt>
      <trkpt lat="47.84511" lon="6.92844">
        <ele>988</ele>
        <time>2014-03-06T14:51:40Z</time>
      </trkpt>
      <trkpt lat="47.84509" lon="6.92872">
        <ele>996</ele>
        <time>2014-03-06T14:51:51Z</time>
      </trkpt>
      <trkpt lat="47.84506" lon="6.92884">
        <ele>996</ele>
        <time>2014-03-06T14:51:55Z</time>
      </trkpt>
      <trkpt lat="47.84502" lon="6.92892">
        <ele>994</ele>
        <time>2014-03-06T14:51:59Z</time>
      </trkpt>
      <trkpt lat="47.84497" lon="6.92899">
        <ele>971</ele>
        <time>2014-03-06T14:52:03Z</time>
      </trkpt>
      <trkpt lat="47.84481" lon="6.92911">
        <ele>969</ele>
        <time>2014-03-06T14:52:11Z</time>
      </trkpt>
      <trkpt lat="47.84479" lon="6.92915">
        <ele>969</ele>
        <time>2014-03-06T14:52:14Z</time>
      </trkpt>
      <trkpt lat="47.84478" lon="6.9292">
        <ele>973</ele>
        <time>2014-03-06T14:52:17Z</time>
      </trkpt>
      <trkpt lat="47.84474" lon="6.92936">
        <ele>971</ele>
        <time>2014-03-06T14:52:26Z</time>
      </trkpt>
      <trkpt lat="47.84472" lon="6.9294">
        <ele>971</ele>
        <time>2014-03-06T14:52:30Z</time>
      </trkpt>
      <trkpt lat="47.84469" lon="6.92948">
        <ele>971</ele>
        <time>2014-03-06T14:52:36Z</time>
      </trkpt>
      <trkpt lat="47.84455" lon="6.92971">
        <ele>969</ele>
        <time>2014-03-06T14:52:50Z</time>
      </trkpt>
      <trkpt lat="47.84448" lon="6.92985">
        <ele>967</ele>
        <time>2014-03-06T14:53:01Z</time>
      </trkpt>
      <trkpt lat="47.84441" lon="6.92998">
        <ele>965</ele>
        <time>2014-03-06T14:53:13Z</time>
      </trkpt>
      <trkpt lat="47.84434" lon="6.93016">
        <ele>968</ele>
        <time>2014-03-06T14:53:24Z</time>
      </trkpt>
      <trkpt lat="47.84425" lon="6.93028">
        <ele>968</ele>
        <time>2014-03-06T14:53:39Z</time>
      </trkpt>
      <trkpt lat="47.8442" lon="6.93046">
        <ele>969</ele>
        <time>2014-03-06T14:53:50Z</time>
      </trkpt>
      <trkpt lat="47.8442" lon="6.93051">
        <ele>969</ele>
        <time>2014-03-06T14:53:53Z</time>
      </trkpt>
      <trkpt lat="47.84418" lon="6.9306">
        <ele>967</ele>
        <time>2014-03-06T14:53:58Z</time>
      </trkpt>
      <trkpt lat="47.84415" lon="6.93074">
        <ele>950</ele>
        <time>2014-03-06T14:54:09Z</time>
      </trkpt>
      <trkpt lat="47.84413" lon="6.93078">
        <ele>952</ele>
        <time>2014-03-06T14:54:12Z</time>
      </trkpt>
      <trkpt lat="47.8441" lon="6.93092">
        <ele>949</ele>
        <time>2014-03-06T14:54:20Z</time>
      </trkpt>
      <trkpt lat="47.84407" lon="6.93105">
        <ele>944</ele>
        <time>2014-03-06T14:54:31Z</time>
      </trkpt>
      <trkpt lat="47.84406" lon="6.93119">
        <ele>942</ele>
        <time>2014-03-06T14:54:41Z</time>
      </trkpt>
      <trkpt lat="47.84409" lon="6.93132">
        <ele>942</ele>
        <time>2014-03-06T14:54:53Z</time>
      </trkpt>
      <trkpt lat="47.8441" lon="6.93145">
        <ele>944</ele>
        <time>2014-03-06T14:55:05Z</time>
      </trkpt>
      <trkpt lat="47.84418" lon="6.93166">
        <ele>955</ele>
        <time>2014-03-06T14:55:14Z</time>
      </trkpt>
      <trkpt lat="47.84417" lon="6.93185">
        <ele>963</ele>
        <time>2014-03-06T14:55:23Z</time>
      </trkpt>
      <trkpt lat="47.84418" lon="6.9319">
        <ele>965</ele>
        <time>2014-03-06T14:55:27Z</time>
      </trkpt>
      <trkpt lat="47.84415" lon="6.93207">
        <ele>941</ele>
        <time>2014-03-06T14:55:36Z</time>
      </trkpt>
      <trkpt lat="47.84412" lon="6.93212">
        <ele>940</ele>
        <time>2014-03-06T14:55:38Z</time>
      </trkpt>
      <trkpt lat="47.84402" lon="6.93232">
        <ele>941</ele>
        <time>2014-03-06T14:55:49Z</time>
      </trkpt>
      <trkpt lat="47.84397" lon="6.93239">
        <ele>941</ele>
        <time>2014-03-06T14:55:52Z</time>
      </trkpt>
      <trkpt lat="47.8439" lon="6.93257">
        <ele>937</ele>
        <time>2014-03-06T14:56:03Z</time>
      </trkpt>
      <trkpt lat="47.84382" lon="6.93281">
        <ele>933</ele>
        <time>2014-03-06T14:56:14Z</time>
      </trkpt>
      <trkpt lat="47.84377" lon="6.93293">
        <ele>931</ele>
        <time>2014-03-06T14:56:19Z</time>
      </trkpt>
      <trkpt lat="47.84375" lon="6.93297">
        <ele>931</ele>
        <time>2014-03-06T14:56:20Z</time>
      </trkpt>
      <trkpt lat="47.8437" lon="6.93307">
        <ele>929</ele>
        <time>2014-03-06T14:56:23Z</time>
      </trkpt>
      <trkpt lat="47.84369" lon="6.93311">
        <ele>929</ele>
        <time>2014-03-06T14:56:25Z</time>
      </trkpt>
      <trkpt lat="47.84368" lon="6.93315">
        <ele>928</ele>
        <time>2014-03-06T14:56:27Z</time>
      </trkpt>
      <trkpt lat="47.84367" lon="6.9332">
        <ele>928</ele>
        <time>2014-03-06T14:56:29Z</time>
      </trkpt>
      <trkpt lat="47.84366" lon="6.93329">
        <ele>927</ele>
        <time>2014-03-06T14:56:35Z</time>
      </trkpt>
      <trkpt lat="47.84363" lon="6.93343">
        <ele>924</ele>
        <time>2014-03-06T14:56:46Z</time>
      </trkpt>
      <trkpt lat="47.84362" lon="6.93356">
        <ele>925</ele>
        <time>2014-03-06T14:57:03Z</time>
      </trkpt>
      <trkpt lat="47.84362" lon="6.93364">
        <ele>925</ele>
        <time>2014-03-06T14:57:12Z</time>
      </trkpt>
      <trkpt lat="47.84361" lon="6.93378">
        <ele>925</ele>
        <time>2014-03-06T14:57:24Z</time>
      </trkpt>
      <trkpt lat="47.84362" lon="6.93396">
        <ele>924</ele>
        <time>2014-03-06T14:57:34Z</time>
      </trkpt>
      <trkpt lat="47.84365" lon="6.93409">
        <ele>924</ele>
        <time>2014-03-06T14:57:47Z</time>
      </trkpt>
      <trkpt lat="47.8436" lon="6.93416">
        <ele>922</ele>
        <time>2014-03-06T14:58:17Z</time>
      </trkpt>
      <trkpt lat="47.84354" lon="6.93425">
        <ele>914</ele>
        <time>2014-03-06T14:58:19Z</time>
      </trkpt>
      <trkpt lat="47.8435" lon="6.93431">
        <ele>913</ele>
        <time>2014-03-06T14:58:20Z</time>
      </trkpt>
      <trkpt lat="47.84345" lon="6.93438">
        <ele>913</ele>
        <time>2014-03-06T14:58:21Z</time>
      </trkpt>
      <trkpt lat="47.84343" lon="6.93442">
        <ele>913</ele>
        <time>2014-03-06T14:58:22Z</time>
      </trkpt>
      <trkpt lat="47.84337" lon="6.93449">
        <ele>912</ele>
        <time>2014-03-06T14:58:25Z</time>
      </trkpt>
      <trkpt lat="47.84334" lon="6.93452">
        <ele>911</ele>
        <time>2014-03-06T14:58:27Z</time>
      </trkpt>
      <trkpt lat="47.84331" lon="6.93454">
        <ele>881</ele>
        <time>2014-03-06T14:58:30Z</time>
      </trkpt>
      <trkpt lat="47.84335" lon="6.93454">
        <ele>911</ele>
        <time>2014-03-06T14:58:57Z</time>
      </trkpt>
      <trkpt lat="47.84351" lon="6.93463">
        <ele>913</ele>
        <time>2014-03-06T14:59:08Z</time>
      </trkpt>
      <trkpt lat="47.84358" lon="6.93481">
        <ele>912</ele>
        <time>2014-03-06T14:59:20Z</time>
      </trkpt>
      <trkpt lat="47.84359" lon="6.93486">
        <ele>911</ele>
        <time>2014-03-06T14:59:23Z</time>
      </trkpt>
      <trkpt lat="47.84361" lon="6.93491">
        <ele>911</ele>
        <time>2014-03-06T14:59:26Z</time>
      </trkpt>
      <trkpt lat="47.84361" lon="6.93509">
        <ele>901</ele>
        <time>2014-03-06T14:59:38Z</time>
      </trkpt>
      <trkpt lat="47.84362" lon="6.93513">
        <ele>901</ele>
        <time>2014-03-06T14:59:41Z</time>
      </trkpt>
      <trkpt lat="47.84359" lon="6.93528">
        <ele>900</ele>
        <time>2014-03-06T14:59:51Z</time>
      </trkpt>
      <trkpt lat="47.84357" lon="6.93543">
        <ele>899</ele>
        <time>2014-03-06T15:00:01Z</time>
      </trkpt>
      <trkpt lat="47.84357" lon="6.93558">
        <ele>896</ele>
        <time>2014-03-06T15:00:11Z</time>
      </trkpt>
      <trkpt lat="47.84359" lon="6.93573">
        <ele>894</ele>
        <time>2014-03-06T15:00:21Z</time>
      </trkpt>
      <trkpt lat="47.84359" lon="6.93578">
        <ele>894</ele>
        <time>2014-03-06T15:00:24Z</time>
      </trkpt>
      <trkpt lat="47.84359" lon="6.93589">
        <ele>884</ele>
        <time>2014-03-06T15:00:33Z</time>
      </trkpt>
      <trkpt lat="47.84358" lon="6.93603">
        <ele>884</ele>
        <time>2014-03-06T15:00:43Z</time>
      </trkpt>
      <trkpt lat="47.8436" lon="6.93606">
        <ele>884</ele>
        <time>2014-03-06T15:00:47Z</time>
      </trkpt>
      <trkpt lat="47.84363" lon="6.93614">
        <ele>885</ele>
        <time>2014-03-06T15:00:59Z</time>
      </trkpt>
      <trkpt lat="47.84364" lon="6.93619">
        <ele>885</ele>
        <time>2014-03-06T15:01:09Z</time>
      </trkpt>
      <trkpt lat="47.84362" lon="6.93637">
        <ele>882</ele>
        <time>2014-03-06T15:01:19Z</time>
      </trkpt>
      <trkpt lat="47.84363" lon="6.93641">
        <ele>882</ele>
        <time>2014-03-06T15:01:22Z</time>
      </trkpt>
      <trkpt lat="47.84364" lon="6.93645">
        <ele>881</ele>
        <time>2014-03-06T15:01:24Z</time>
      </trkpt>
      <trkpt lat="47.84363" lon="6.93654">
        <ele>880</ele>
        <time>2014-03-06T15:01:40Z</time>
      </trkpt>
      <trkpt lat="47.84362" lon="6.9366">
        <ele>879</ele>
        <time>2014-03-06T15:01:43Z</time>
      </trkpt>
      <trkpt lat="47.84364" lon="6.9367">
        <ele>870</ele>
        <time>2014-03-06T15:01:53Z</time>
      </trkpt>
      <trkpt lat="47.8437" lon="6.93684">
        <ele>872</ele>
        <time>2014-03-06T15:02:04Z</time>
      </trkpt>
      <trkpt lat="47.84366" lon="6.93706">
        <ele>869</ele>
        <time>2014-03-06T15:02:14Z</time>
      </trkpt>
      <trkpt lat="47.84372" lon="6.93725">
        <ele>869</ele>
        <time>2014-03-06T15:02:22Z</time>
      </trkpt>
      <trkpt lat="47.8439" lon="6.93761">
        <ele>867</ele>
        <time>2014-03-06T15:02:32Z</time>
      </trkpt>
      <trkpt lat="47.84392" lon="6.93766">
        <ele>867</ele>
        <time>2014-03-06T15:02:34Z</time>
      </trkpt>
      <trkpt lat="47.84394" lon="6.93769">
        <ele>867</ele>
        <time>2014-03-06T15:02:36Z</time>
      </trkpt>
      <trkpt lat="47.84396" lon="6.93772">
        <ele>867</ele>
        <time>2014-03-06T15:02:38Z</time>
      </trkpt>
      <trkpt lat="47.84398" lon="6.93776">
        <ele>867</ele>
        <time>2014-03-06T15:02:40Z</time>
      </trkpt>
      <trkpt lat="47.84402" lon="6.93781">
        <ele>867</ele>
        <time>2014-03-06T15:02:42Z</time>
      </trkpt>
      <trkpt lat="47.84405" lon="6.93784">
        <ele>867</ele>
        <time>2014-03-06T15:02:44Z</time>
      </trkpt>
      <trkpt lat="47.84408" lon="6.93787">
        <ele>867</ele>
        <time>2014-03-06T15:02:48Z</time>
      </trkpt>
      <trkpt lat="47.84412" lon="6.93798">
        <ele>867</ele>
        <time>2014-03-06T15:03:00Z</time>
      </trkpt>
      <trkpt lat="47.84413" lon="6.93802">
        <ele>867</ele>
        <time>2014-03-06T15:03:03Z</time>
      </trkpt>
      <trkpt lat="47.84413" lon="6.93814">
        <ele>868</ele>
        <time>2014-03-06T15:03:16Z</time>
      </trkpt>
      <trkpt lat="47.84422" lon="6.93835">
        <ele>878</ele>
        <time>2014-03-06T15:03:26Z</time>
      </trkpt>
      <trkpt lat="47.84427" lon="6.93842">
        <ele>883</ele>
        <time>2014-03-06T15:03:30Z</time>
      </trkpt>
      <trkpt lat="47.84429" lon="6.93847">
        <ele>884</ele>
        <time>2014-03-06T15:03:33Z</time>
      </trkpt>
      <trkpt lat="47.84423" lon="6.93863">
        <ele>887</ele>
        <time>2014-03-06T15:03:44Z</time>
      </trkpt>
      <trkpt lat="47.84421" lon="6.93867">
        <ele>887</ele>
        <time>2014-03-06T15:03:49Z</time>
      </trkpt>
      <trkpt lat="47.84419" lon="6.9387">
        <ele>887</ele>
        <time>2014-03-06T15:03:53Z</time>
      </trkpt>
      <trkpt lat="47.84415" lon="6.93877">
        <ele>868</ele>
        <time>2014-03-06T15:04:03Z</time>
      </trkpt>
      <trkpt lat="47.84406" lon="6.93883">
        <ele>867</ele>
        <time>2014-03-06T15:04:11Z</time>
      </trkpt>
      <trkpt lat="47.84388" lon="6.93885">
        <ele>865</ele>
        <time>2014-03-06T15:04:20Z</time>
      </trkpt>
      <trkpt lat="47.84384" lon="6.93881">
        <ele>864</ele>
        <time>2014-03-06T15:04:28Z</time>
      </trkpt>
      <trkpt lat="47.84377" lon="6.93882">
        <ele>862</ele>
        <time>2014-03-06T15:04:39Z</time>
      </trkpt>
      <trkpt lat="47.8436" lon="6.93887">
        <ele>859</ele>
        <time>2014-03-06T15:04:49Z</time>
      </trkpt>
      <trkpt lat="47.84354" lon="6.9389">
        <ele>858</ele>
        <time>2014-03-06T15:05:02Z</time>
      </trkpt>
      <trkpt lat="47.84351" lon="6.93891">
        <ele>857</ele>
        <time>2014-03-06T15:05:07Z</time>
      </trkpt>
      <trkpt lat="47.84336" lon="6.93897">
        <ele>854</ele>
        <time>2014-03-06T15:05:19Z</time>
      </trkpt>
      <trkpt lat="47.84319" lon="6.93905">
        <ele>837</ele>
        <time>2014-03-06T15:05:37Z</time>
      </trkpt>
      <trkpt lat="47.84313" lon="6.93909">
        <ele>835</ele>
        <time>2014-03-06T15:05:48Z</time>
      </trkpt>
      <trkpt lat="47.84297" lon="6.93919">
        <ele>835</ele>
        <time>2014-03-06T15:05:57Z</time>
      </trkpt>
      <trkpt lat="47.84294" lon="6.93923">
        <ele>834</ele>
        <time>2014-03-06T15:05:59Z</time>
      </trkpt>
      <trkpt lat="47.84291" lon="6.93936">
        <ele>834</ele>
        <time>2014-03-06T15:06:11Z</time>
      </trkpt>
      <trkpt lat="47.84288" lon="6.93944">
        <ele>833</ele>
        <time>2014-03-06T15:06:16Z</time>
      </trkpt>
      <trkpt lat="47.84278" lon="6.93955">
        <ele>832</ele>
        <time>2014-03-06T15:06:27Z</time>
      </trkpt>
      <trkpt lat="47.84266" lon="6.93978">
        <ele>830</ele>
        <time>2014-03-06T15:06:36Z</time>
      </trkpt>
      <trkpt lat="47.84248" lon="6.94">
        <ele>819</ele>
        <time>2014-03-06T15:06:48Z</time>
      </trkpt>
      <trkpt lat="47.84244" lon="6.94004">
        <ele>816</ele>
        <time>2014-03-06T15:06:53Z</time>
      </trkpt>
      <trkpt lat="47.84242" lon="6.94007">
        <ele>815</ele>
        <time>2014-03-06T15:06:55Z</time>
      </trkpt>
      <trkpt lat="47.8424" lon="6.94011">
        <ele>813</ele>
        <time>2014-03-06T15:06:57Z</time>
      </trkpt>
      <trkpt lat="47.84238" lon="6.94014">
        <ele>812</ele>
        <time>2014-03-06T15:07:00Z</time>
      </trkpt>
      <trkpt lat="47.84227" lon="6.94023">
        <ele>808</ele>
        <time>2014-03-06T15:07:09Z</time>
      </trkpt>
      <trkpt lat="47.84213" lon="6.94029">
        <ele>804</ele>
        <time>2014-03-06T15:07:21Z</time>
      </trkpt>
      <trkpt lat="47.8421" lon="6.94029">
        <ele>803</ele>
        <time>2014-03-06T15:07:22Z</time>
      </trkpt>
      <trkpt lat="47.84198" lon="6.94049">
        <ele>800</ele>
        <time>2014-03-06T15:07:30Z</time>
      </trkpt>
      <trkpt lat="47.84196" lon="6.94059">
        <ele>800</ele>
        <time>2014-03-06T15:07:36Z</time>
      </trkpt>
      <trkpt lat="47.84197" lon="6.94064">
        <ele>800</ele>
        <time>2014-03-06T15:07:40Z</time>
      </trkpt>
      <trkpt lat="47.84193" lon="6.9407">
        <ele>798</ele>
        <time>2014-03-06T15:07:48Z</time>
      </trkpt>
      <trkpt lat="47.8419" lon="6.94071">
        <ele>797</ele>
        <time>2014-03-06T15:07:50Z</time>
      </trkpt>
      <trkpt lat="47.84187" lon="6.94073">
        <ele>796</ele>
        <time>2014-03-06T15:07:53Z</time>
      </trkpt>
      <trkpt lat="47.84183" lon="6.94085">
        <ele>797</ele>
        <time>2014-03-06T15:08:03Z</time>
      </trkpt>
      <trkpt lat="47.84182" lon="6.94091">
        <ele>798</ele>
        <time>2014-03-06T15:08:06Z</time>
      </trkpt>
      <trkpt lat="47.84181" lon="6.94094">
        <ele>798</ele>
        <time>2014-03-06T15:08:09Z</time>
      </trkpt>
      <trkpt lat="47.84178" lon="6.94096">
        <ele>797</ele>
        <time>2014-03-06T15:08:12Z</time>
      </trkpt>
      <trkpt lat="47.8417" lon="6.94113">
        <ele>801</ele>
        <time>2014-03-06T15:08:24Z</time>
      </trkpt>
      <trkpt lat="47.84169" lon="6.9412">
        <ele>802</ele>
        <time>2014-03-06T15:08:25Z</time>
      </trkpt>
      <trkpt lat="47.84165" lon="6.94124">
        <ele>774</ele>
        <time>2014-03-06T15:08:49Z</time>
      </trkpt>
      <trkpt lat="47.84161" lon="6.94123">
        <ele>773</ele>
        <time>2014-03-06T15:09:13Z</time>
      </trkpt>
      <trkpt lat="47.84162" lon="6.94131">
        <ele>774</ele>
        <time>2014-03-06T15:09:25Z</time>
      </trkpt>
      <trkpt lat="47.84158" lon="6.94147">
        <ele>777</ele>
        <time>2014-03-06T15:09:33Z</time>
      </trkpt>
      <trkpt lat="47.84155" lon="6.94156">
        <ele>780</ele>
        <time>2014-03-06T15:09:39Z</time>
      </trkpt>
      <trkpt lat="47.8415" lon="6.94164">
        <ele>779</ele>
        <time>2014-03-06T15:09:44Z</time>
      </trkpt>
      <trkpt lat="47.84148" lon="6.9417">
        <ele>782</ele>
        <time>2014-03-06T15:09:46Z</time>
      </trkpt>
      <trkpt lat="47.84141" lon="6.94186">
        <ele>778</ele>
        <time>2014-03-06T15:09:56Z</time>
      </trkpt>
      <trkpt lat="47.84133" lon="6.94188">
        <ele>776</ele>
        <time>2014-03-06T15:10:08Z</time>
      </trkpt>
      <trkpt lat="47.84128" lon="6.94206">
        <ele>775</ele>
        <time>2014-03-06T15:10:19Z</time>
      </trkpt>
      <trkpt lat="47.84125" lon="6.94212">
        <ele>774</ele>
        <time>2014-03-06T15:10:58Z</time>
      </trkpt>
      <trkpt lat="47.8412" lon="6.94226">
        <ele>774</ele>
        <time>2014-03-06T15:11:09Z</time>
      </trkpt>
      <trkpt lat="47.84117" lon="6.94229">
        <ele>773</ele>
        <time>2014-03-06T15:11:13Z</time>
      </trkpt>
      <trkpt lat="47.84114" lon="6.94227">
        <ele>772</ele>
        <time>2014-03-06T15:11:22Z</time>
      </trkpt>
      <trkpt lat="47.84102" lon="6.94228">
        <ele>768</ele>
        <time>2014-03-06T15:11:33Z</time>
      </trkpt>
      <trkpt lat="47.84079" lon="6.94259">
        <ele>758</ele>
        <time>2014-03-06T15:11:41Z</time>
      </trkpt>
      <trkpt lat="47.84066" lon="6.94282">
        <ele>761</ele>
        <time>2014-03-06T15:11:46Z</time>
      </trkpt>
      <trkpt lat="47.84063" lon="6.94287">
        <ele>762</ele>
        <time>2014-03-06T15:11:47Z</time>
      </trkpt>
      <trkpt lat="47.8406" lon="6.94293">
        <ele>762</ele>
        <time>2014-03-06T15:11:48Z</time>
      </trkpt>
      <trkpt lat="47.84057" lon="6.94298">
        <ele>763</ele>
        <time>2014-03-06T15:11:49Z</time>
      </trkpt>
      <trkpt lat="47.84054" lon="6.94295">
        <ele>763</ele>
        <time>2014-03-06T15:11:52Z</time>
      </trkpt>
      <trkpt lat="47.84055" lon="6.94289">
        <ele>762</ele>
        <time>2014-03-06T15:11:54Z</time>
      </trkpt>
      <trkpt lat="47.84055" lon="6.94283">
        <ele>761</ele>
        <time>2014-03-06T15:11:57Z</time>
      </trkpt>
      <trkpt lat="47.84057" lon="6.94279">
        <ele>761</ele>
        <time>2014-03-06T15:12:07Z</time>
      </trkpt>
      <trkpt lat="47.84064" lon="6.94267">
        <ele>760</ele>
        <time>2014-03-06T15:12:15Z</time>
      </trkpt>
      <trkpt lat="47.84063" lon="6.94271">
        <ele>760</ele>
        <time>2014-03-06T15:12:31Z</time>
      </trkpt>
      <trkpt lat="47.8406" lon="6.94273">
        <ele>760</ele>
        <time>2014-03-06T15:12:34Z</time>
      </trkpt>
      <trkpt lat="47.84046" lon="6.94275">
        <ele>760</ele>
        <time>2014-03-06T15:12:46Z</time>
      </trkpt>
      <trkpt lat="47.84043" lon="6.94273">
        <ele>759</ele>
        <time>2014-03-06T15:12:49Z</time>
      </trkpt>
      <trkpt lat="47.84033" lon="6.94277">
        <ele>759</ele>
        <time>2014-03-06T15:13:50Z</time>
      </trkpt>
      <trkpt lat="47.84025" lon="6.94275">
        <ele>758</ele>
        <time>2014-03-06T15:13:51Z</time>
      </trkpt>
      <trkpt lat="47.84002" lon="6.94271">
        <ele>755</ele>
        <time>2014-03-06T15:13:58Z</time>
      </trkpt>
      <trkpt lat="47.83999" lon="6.94271">
        <ele>753</ele>
        <time>2014-03-06T15:13:59Z</time>
      </trkpt>
      <trkpt lat="47.83996" lon="6.94269">
        <ele>753</ele>
        <time>2014-03-06T15:14:00Z</time>
      </trkpt>
      <trkpt lat="47.83993" lon="6.9427">
        <ele>753</ele>
        <time>2014-03-06T15:14:01Z</time>
      </trkpt>
      <trkpt lat="47.83987" lon="6.9427">
        <ele>754</ele>
        <time>2014-03-06T15:14:02Z</time>
      </trkpt>
      <trkpt lat="47.83982" lon="6.94269">
        <ele>754</ele>
        <time>2014-03-06T15:14:03Z</time>
      </trkpt>
      <trkpt lat="47.83978" lon="6.94267">
        <ele>754</ele>
        <time>2014-03-06T15:14:04Z</time>
      </trkpt>
      <trkpt lat="47.83973" lon="6.94266">
        <ele>754</ele>
        <time>2014-03-06T15:14:05Z</time>
      </trkpt>
      <trkpt lat="47.83969" lon="6.94266">
        <ele>755</ele>
        <time>2014-03-06T15:14:06Z</time>
      </trkpt>
      <trkpt lat="47.83957" lon="6.94264">
        <ele>755</ele>
        <time>2014-03-06T15:14:10Z</time>
      </trkpt>
      <trkpt lat="47.83954" lon="6.94262">
        <ele>755</ele>
        <time>2014-03-06T15:14:12Z</time>
      </trkpt>
      <trkpt lat="47.83952" lon="6.9426">
        <ele>754</ele>
        <time>2014-03-06T15:14:14Z</time>
      </trkpt>
      <trkpt lat="47.8394" lon="6.94255">
        <ele>753</ele>
        <time>2014-03-06T15:14:22Z</time>
      </trkpt>
      <trkpt lat="47.83924" lon="6.94253">
        <ele>750</ele>
        <time>2014-03-06T15:14:30Z</time>
      </trkpt>
      <trkpt lat="47.83913" lon="6.94248">
        <ele>745</ele>
        <time>2014-03-06T15:14:40Z</time>
      </trkpt>
      <trkpt lat="47.83909" lon="6.94246">
        <ele>744</ele>
        <time>2014-03-06T15:14:42Z</time>
      </trkpt>
      <trkpt lat="47.83905" lon="6.94245">
        <ele>742</ele>
        <time>2014-03-06T15:14:44Z</time>
      </trkpt>
      <trkpt lat="47.83903" lon="6.94244">
        <ele>742</ele>
        <time>2014-03-06T15:14:47Z</time>
      </trkpt>
      <trkpt lat="47.83887" lon="6.94255">
        <ele>753</ele>
        <time>2014-03-06T15:14:58Z</time>
      </trkpt>
      <trkpt lat="47.83885" lon="6.94252">
        <ele>753</ele>
        <time>2014-03-06T15:15:02Z</time>
      </trkpt>
      <trkpt lat="47.83872" lon="6.94246">
        <ele>739</ele>
        <time>2014-03-06T15:15:11Z</time>
      </trkpt>
      <trkpt lat="47.83867" lon="6.94245">
        <ele>738</ele>
        <time>2014-03-06T15:15:13Z</time>
      </trkpt>
      <trkpt lat="47.83853" lon="6.9424">
        <ele>739</ele>
        <time>2014-03-06T15:15:24Z</time>
      </trkpt>
      <trkpt lat="47.83837" lon="6.9424">
        <ele>740</ele>
        <time>2014-03-06T15:15:35Z</time>
      </trkpt>
      <trkpt lat="47.83831" lon="6.94236">
        <ele>735</ele>
        <time>2014-03-06T15:15:40Z</time>
      </trkpt>
      <trkpt lat="47.83822" lon="6.94232">
        <ele>731</ele>
        <time>2014-03-06T15:15:48Z</time>
      </trkpt>
      <trkpt lat="47.83816" lon="6.94228">
        <ele>729</ele>
        <time>2014-03-06T15:16:04Z</time>
      </trkpt>
      <trkpt lat="47.83813" lon="6.94227">
        <ele>728</ele>
        <time>2014-03-06T15:16:06Z</time>
      </trkpt>
      <trkpt lat="47.83802" lon="6.94226">
        <ele>727</ele>
        <time>2014-03-06T15:16:14Z</time>
      </trkpt>
      <trkpt lat="47.83787" lon="6.94233">
        <ele>725</ele>
        <time>2014-03-06T15:16:27Z</time>
      </trkpt>
      <trkpt lat="47.83785" lon="6.94234">
        <ele>724</ele>
        <time>2014-03-06T15:16:30Z</time>
      </trkpt>
      <trkpt lat="47.83776" lon="6.94238">
        <ele>723</ele>
        <time>2014-03-06T15:16:40Z</time>
      </trkpt>
      <trkpt lat="47.83773" lon="6.94242">
        <ele>723</ele>
        <time>2014-03-06T15:16:45Z</time>
      </trkpt>
      <trkpt lat="47.83758" lon="6.94252">
        <ele>728</ele>
        <time>2014-03-06T15:16:56Z</time>
      </trkpt>
      <trkpt lat="47.83747" lon="6.94253">
        <ele>721</ele>
        <time>2014-03-06T15:17:05Z</time>
      </trkpt>
      <trkpt lat="47.8374" lon="6.94255">
        <ele>721</ele>
        <time>2014-03-06T15:17:10Z</time>
      </trkpt>
      <trkpt lat="47.83736" lon="6.94256">
        <ele>721</ele>
        <time>2014-03-06T15:17:13Z</time>
      </trkpt>
      <trkpt lat="47.83723" lon="6.94256">
        <ele>720</ele>
        <time>2014-03-06T15:17:25Z</time>
      </trkpt>
      <trkpt lat="47.83711" lon="6.94259">
        <ele>719</ele>
        <time>2014-03-06T15:17:37Z</time>
      </trkpt>
      <trkpt lat="47.83708" lon="6.94263">
        <ele>718</ele>
        <time>2014-03-06T15:17:40Z</time>
      </trkpt>
      <trkpt lat="47.83693" lon="6.94274">
        <ele>717</ele>
        <time>2014-03-06T15:17:51Z</time>
      </trkpt>
      <trkpt lat="47.83691" lon="6.94274">
        <ele>716</ele>
        <time>2014-03-06T15:17:54Z</time>
      </trkpt>
      <trkpt lat="47.83673" lon="6.94287">
        <ele>717</ele>
        <time>2014-03-06T15:18:05Z</time>
      </trkpt>
      <trkpt lat="47.8366" lon="6.94308">
        <ele>702</ele>
        <time>2014-03-06T15:18:15Z</time>
      </trkpt>
      <trkpt lat="47.83657" lon="6.9431">
        <ele>702</ele>
        <time>2014-03-06T15:18:19Z</time>
      </trkpt>
      <trkpt lat="47.83652" lon="6.94311">
        <ele>701</ele>
        <time>2014-03-06T15:18:40Z</time>
      </trkpt>
      <trkpt lat="47.83638" lon="6.94334">
        <ele>707</ele>
        <time>2014-03-06T15:18:51Z</time>
      </trkpt>
      <trkpt lat="47.83634" lon="6.94337">
        <ele>706</ele>
        <time>2014-03-06T15:18:53Z</time>
      </trkpt>
      <trkpt lat="47.83629" lon="6.94339">
        <ele>704</ele>
        <time>2014-03-06T15:18:55Z</time>
      </trkpt>
      <trkpt lat="47.83625" lon="6.94341">
        <ele>702</ele>
        <time>2014-03-06T15:18:57Z</time>
      </trkpt>
      <trkpt lat="47.8361" lon="6.94362">
        <ele>699</ele>
        <time>2014-03-06T15:19:07Z</time>
      </trkpt>
      <trkpt lat="47.83606" lon="6.94366">
        <ele>699</ele>
        <time>2014-03-06T15:19:09Z</time>
      </trkpt>
      <trkpt lat="47.83595" lon="6.94385">
        <ele>698</ele>
        <time>2014-03-06T15:19:20Z</time>
      </trkpt>
      <trkpt lat="47.83591" lon="6.94391">
        <ele>697</ele>
        <time>2014-03-06T15:19:31Z</time>
      </trkpt>
      <trkpt lat="47.83584" lon="6.94401">
        <ele>695</ele>
        <time>2014-03-06T15:19:42Z</time>
      </trkpt>
      <trkpt lat="47.83575" lon="6.94417">
        <ele>687</ele>
        <time>2014-03-06T15:19:52Z</time>
      </trkpt>
      <trkpt lat="47.83566" lon="6.94427">
        <ele>686</ele>
        <time>2014-03-06T15:19:58Z</time>
      </trkpt>
      <trkpt lat="47.83554" lon="6.94439">
        <ele>685</ele>
        <time>2014-03-06T15:20:06Z</time>
      </trkpt>
      <trkpt lat="47.8355" lon="6.94446">
        <ele>685</ele>
        <time>2014-03-06T15:20:09Z</time>
      </trkpt>
      <trkpt lat="47.83529" lon="6.94454">
        <ele>682</ele>
        <time>2014-03-06T15:20:21Z</time>
      </trkpt>
      <trkpt lat="47.83526" lon="6.94456">
        <ele>682</ele>
        <time>2014-03-06T15:20:23Z</time>
      </trkpt>
      <trkpt lat="47.83522" lon="6.94463">
        <ele>682</ele>
        <time>2014-03-06T15:20:33Z</time>
      </trkpt>
      <trkpt lat="47.83516" lon="6.94475">
        <ele>681</ele>
        <time>2014-03-06T15:20:43Z</time>
      </trkpt>
      <trkpt lat="47.83506" lon="6.94483">
        <ele>680</ele>
        <time>2014-03-06T15:20:50Z</time>
      </trkpt>
      <trkpt lat="47.835" lon="6.94487">
        <ele>668</ele>
        <time>2014-03-06T15:20:54Z</time>
      </trkpt>
      <trkpt lat="47.83492" lon="6.945">
        <ele>671</ele>
        <time>2014-03-06T15:21:02Z</time>
      </trkpt>
      <trkpt lat="47.83491" lon="6.94504">
        <ele>674</ele>
        <time>2014-03-06T15:21:04Z</time>
      </trkpt>
      <trkpt lat="47.83488" lon="6.94512">
        <ele>674</ele>
        <time>2014-03-06T15:21:09Z</time>
      </trkpt>
      <trkpt lat="47.83475" lon="6.9452">
        <ele>672</ele>
        <time>2014-03-06T15:21:20Z</time>
      </trkpt>
      <trkpt lat="47.83461" lon="6.94532">
        <ele>671</ele>
        <time>2014-03-06T15:21:29Z</time>
      </trkpt>
      <trkpt lat="47.83459" lon="6.94535">
        <ele>671</ele>
        <time>2014-03-06T15:21:32Z</time>
      </trkpt>
      <trkpt lat="47.83449" lon="6.94546">
        <ele>670</ele>
        <time>2014-03-06T15:21:42Z</time>
      </trkpt>
      <trkpt lat="47.8344" lon="6.94555">
        <ele>669</ele>
        <time>2014-03-06T15:21:49Z</time>
      </trkpt>
      <trkpt lat="47.83438" lon="6.9456">
        <ele>669</ele>
        <time>2014-03-06T15:21:52Z</time>
      </trkpt>
      <trkpt lat="47.83425" lon="6.94573">
        <ele>667</ele>
        <time>2014-03-06T15:22:03Z</time>
      </trkpt>
      <trkpt lat="47.83423" lon="6.94576">
        <ele>666</ele>
        <time>2014-03-06T15:22:05Z</time>
      </trkpt>
      <trkpt lat="47.83415" lon="6.94598">
        <ele>660</ele>
        <time>2014-03-06T15:22:18Z</time>
      </trkpt>
      <trkpt lat="47.834" lon="6.94614">
        <ele>659</ele>
        <time>2014-03-06T15:22:28Z</time>
      </trkpt>
      <trkpt lat="47.83396" lon="6.94618">
        <ele>658</ele>
        <time>2014-03-06T15:22:30Z</time>
      </trkpt>
      <trkpt lat="47.83379" lon="6.94635">
        <ele>657</ele>
        <time>2014-03-06T15:22:43Z</time>
      </trkpt>
      <trkpt lat="47.83376" lon="6.94647">
        <ele>657</ele>
        <time>2014-03-06T15:22:52Z</time>
      </trkpt>
      <trkpt lat="47.83371" lon="6.94651">
        <ele>656</ele>
        <time>2014-03-06T15:23:05Z</time>
      </trkpt>
      <trkpt lat="47.83344" lon="6.94656">
        <ele>649</ele>
        <time>2014-03-06T15:23:16Z</time>
      </trkpt>
      <trkpt lat="47.8334" lon="6.94658">
        <ele>647</ele>
        <time>2014-03-06T15:23:18Z</time>
      </trkpt>
      <trkpt lat="47.83337" lon="6.9466">
        <ele>646</ele>
        <time>2014-03-06T15:23:20Z</time>
      </trkpt>
      <trkpt lat="47.83321" lon="6.94679">
        <ele>641</ele>
        <time>2014-03-06T15:23:30Z</time>
      </trkpt>
      <trkpt lat="47.83315" lon="6.94679">
        <ele>640</ele>
        <time>2014-03-06T15:23:35Z</time>
      </trkpt>
      <trkpt lat="47.83306" lon="6.94691">
        <ele>640</ele>
        <time>2014-03-06T15:23:42Z</time>
      </trkpt>
      <trkpt lat="47.83306" lon="6.94698">
        <ele>640</ele>
        <time>2014-03-06T15:23:44Z</time>
      </trkpt>
      <trkpt lat="47.83303" lon="6.94706">
        <ele>641</ele>
        <time>2014-03-06T15:23:49Z</time>
      </trkpt>
      <trkpt lat="47.83292" lon="6.94717">
        <ele>640</ele>
        <time>2014-03-06T15:24:00Z</time>
      </trkpt>
      <trkpt lat="47.83275" lon="6.94717">
        <ele>637</ele>
        <time>2014-03-06T15:24:11Z</time>
      </trkpt>
      <trkpt lat="47.83263" lon="6.94721">
        <ele>636</ele>
        <time>2014-03-06T15:24:21Z</time>
      </trkpt>
      <trkpt lat="47.83261" lon="6.94722">
        <ele>635</ele>
        <time>2014-03-06T15:24:23Z</time>
      </trkpt>
      <trkpt lat="47.83257" lon="6.94725">
        <ele>635</ele>
        <time>2014-03-06T15:24:26Z</time>
      </trkpt>
      <trkpt lat="47.83254" lon="6.94726">
        <ele>635</ele>
        <time>2014-03-06T15:24:29Z</time>
      </trkpt>
      <trkpt lat="47.83245" lon="6.94734">
        <ele>625</ele>
        <time>2014-03-06T15:24:38Z</time>
      </trkpt>
      <trkpt lat="47.83242" lon="6.94737">
        <ele>626</ele>
        <time>2014-03-06T15:24:40Z</time>
      </trkpt>
      <trkpt lat="47.83237" lon="6.94744">
        <ele>626</ele>
        <time>2014-03-06T15:24:44Z</time>
      </trkpt>
      <trkpt lat="47.83225" lon="6.94755">
        <ele>630</ele>
        <time>2014-03-06T15:24:56Z</time>
      </trkpt>
      <trkpt lat="47.83223" lon="6.94754">
        <ele>630</ele>
        <time>2014-03-06T15:24:58Z</time>
      </trkpt>
      <trkpt lat="47.8321" lon="6.94754">
        <ele>629</ele>
        <time>2014-03-06T15:25:09Z</time>
      </trkpt>
      <trkpt lat="47.83208" lon="6.94757">
        <ele>629</ele>
        <time>2014-03-06T15:25:12Z</time>
      </trkpt>
      <trkpt lat="47.832" lon="6.94766">
        <ele>628</ele>
        <time>2014-03-06T15:25:22Z</time>
      </trkpt>
      <trkpt lat="47.83197" lon="6.94765">
        <ele>628</ele>
        <time>2014-03-06T15:25:25Z</time>
      </trkpt>
      <trkpt lat="47.83185" lon="6.94755">
        <ele>624</ele>
        <time>2014-03-06T15:25:33Z</time>
      </trkpt>
      <trkpt lat="47.83178" lon="6.94753">
        <ele>622</ele>
        <time>2014-03-06T15:25:37Z</time>
      </trkpt>
      <trkpt lat="47.83174" lon="6.9475">
        <ele>618</ele>
        <time>2014-03-06T15:25:39Z</time>
      </trkpt>
      <trkpt lat="47.83158" lon="6.94754">
        <ele>617</ele>
        <time>2014-03-06T15:25:49Z</time>
      </trkpt>
      <trkpt lat="47.83155" lon="6.94757">
        <ele>617</ele>
        <time>2014-03-06T15:25:51Z</time>
      </trkpt>
      <trkpt lat="47.83153" lon="6.94759">
        <ele>617</ele>
        <time>2014-03-06T15:25:53Z</time>
      </trkpt>
      <trkpt lat="47.83151" lon="6.94763">
        <ele>617</ele>
        <time>2014-03-06T15:25:55Z</time>
      </trkpt>
      <trkpt lat="47.8315" lon="6.94768">
        <ele>617</ele>
        <time>2014-03-06T15:25:57Z</time>
      </trkpt>
      <trkpt lat="47.83147" lon="6.94771">
        <ele>617</ele>
        <time>2014-03-06T15:25:59Z</time>
      </trkpt>
      <trkpt lat="47.83141" lon="6.94767">
        <ele>617</ele>
        <time>2014-03-06T15:26:04Z</time>
      </trkpt>
      <trkpt lat="47.83134" lon="6.9477">
        <ele>617</ele>
        <time>2014-03-06T15:26:17Z</time>
      </trkpt>
      <trkpt lat="47.83131" lon="6.94772">
        <ele>617</ele>
        <time>2014-03-06T15:26:21Z</time>
      </trkpt>
      <trkpt lat="47.83127" lon="6.94774">
        <ele>617</ele>
        <time>2014-03-06T15:26:24Z</time>
      </trkpt>
      <trkpt lat="47.83124" lon="6.94775">
        <ele>616</ele>
        <time>2014-03-06T15:26:27Z</time>
      </trkpt>
      <trkpt lat="47.83115" lon="6.94786">
        <ele>616</ele>
        <time>2014-03-06T15:26:37Z</time>
      </trkpt>
      <trkpt lat="47.83113" lon="6.94789">
        <ele>616</ele>
        <time>2014-03-06T15:26:39Z</time>
      </trkpt>
      <trkpt lat="47.83109" lon="6.94793">
        <ele>616</ele>
        <time>2014-03-06T15:26:41Z</time>
      </trkpt>
      <trkpt lat="47.83095" lon="6.94799">
        <ele>615</ele>
        <time>2014-03-06T15:26:49Z</time>
      </trkpt>
      <trkpt lat="47.83093" lon="6.94801">
        <ele>615</ele>
        <time>2014-03-06T15:26:51Z</time>
      </trkpt>
      <trkpt lat="47.8309" lon="6.948">
        <ele>614</ele>
        <time>2014-03-06T15:26:55Z</time>
      </trkpt>
      <trkpt lat="47.83087" lon="6.94799">
        <ele>614</ele>
        <time>2014-03-06T15:27:02Z</time>
      </trkpt>
      <trkpt lat="47.83081" lon="6.94804">
        <ele>612</ele>
        <time>2014-03-06T15:27:13Z</time>
      </trkpt>
      <trkpt lat="47.83078" lon="6.94805">
        <ele>612</ele>
        <time>2014-03-06T15:27:15Z</time>
      </trkpt>
      <trkpt lat="47.83063" lon="6.94816">
        <ele>611</ele>
        <time>2014-03-06T15:27:27Z</time>
      </trkpt>
      <trkpt lat="47.83058" lon="6.94824">
        <ele>611</ele>
        <time>2014-03-06T15:27:32Z</time>
      </trkpt>
      <trkpt lat="47.83056" lon="6.94828">
        <ele>611</ele>
        <time>2014-03-06T15:27:34Z</time>
      </trkpt>
      <trkpt lat="47.83053" lon="6.9483">
        <ele>611</ele>
        <time>2014-03-06T15:27:36Z</time>
      </trkpt>
      <trkpt lat="47.83043" lon="6.94852">
        <ele>607</ele>
        <time>2014-03-06T15:27:47Z</time>
      </trkpt>
      <trkpt lat="47.83032" lon="6.94864">
        <ele>607</ele>
        <time>2014-03-06T15:27:57Z</time>
      </trkpt>
      <trkpt lat="47.83029" lon="6.94866">
        <ele>607</ele>
        <time>2014-03-06T15:27:59Z</time>
      </trkpt>
      <trkpt lat="47.83023" lon="6.94869">
        <ele>606</ele>
        <time>2014-03-06T15:28:03Z</time>
      </trkpt>
      <trkpt lat="47.83017" lon="6.94871">
        <ele>606</ele>
        <time>2014-03-06T15:28:09Z</time>
      </trkpt>
      <trkpt lat="47.83009" lon="6.94885">
        <ele>605</ele>
        <time>2014-03-06T15:28:21Z</time>
      </trkpt>
      <trkpt lat="47.83002" lon="6.94895">
        <ele>604</ele>
        <time>2014-03-06T15:28:28Z</time>
      </trkpt>
      <trkpt lat="47.83" lon="6.94898">
        <ele>607</ele>
        <time>2014-03-06T15:28:30Z</time>
      </trkpt>
      <trkpt lat="47.82989" lon="6.9491">
        <ele>605</ele>
        <time>2014-03-06T15:28:38Z</time>
      </trkpt>
      <trkpt lat="47.8298" lon="6.94923">
        <ele>601</ele>
        <time>2014-03-06T15:28:48Z</time>
      </trkpt>
      <trkpt lat="47.82972" lon="6.94932">
        <ele>601</ele>
        <time>2014-03-06T15:28:55Z</time>
      </trkpt>
      <trkpt lat="47.82969" lon="6.94941">
        <ele>601</ele>
        <time>2014-03-06T15:29:00Z</time>
      </trkpt>
      <trkpt lat="47.82966" lon="6.94955">
        <ele>601</ele>
        <time>2014-03-06T15:29:07Z</time>
      </trkpt>
      <trkpt lat="47.82958" lon="6.94966">
        <ele>600</ele>
        <time>2014-03-06T15:29:18Z</time>
      </trkpt>
      <trkpt lat="47.82948" lon="6.94979">
        <ele>600</ele>
        <time>2014-03-06T15:29:29Z</time>
      </trkpt>
      <trkpt lat="47.82934" lon="6.94982">
        <ele>599</ele>
        <time>2014-03-06T15:29:40Z</time>
      </trkpt>
      <trkpt lat="47.82932" lon="6.94985">
        <ele>599</ele>
        <time>2014-03-06T15:29:42Z</time>
      </trkpt>
      <trkpt lat="47.82929" lon="6.9499">
        <ele>598</ele>
        <time>2014-03-06T15:29:44Z</time>
      </trkpt>
      <trkpt lat="47.82921" lon="6.95005">
        <ele>594</ele>
        <time>2014-03-06T15:29:57Z</time>
      </trkpt>
      <trkpt lat="47.82916" lon="6.95012">
        <ele>595</ele>
        <time>2014-03-06T15:30:03Z</time>
      </trkpt>
      <trkpt lat="47.82914" lon="6.95017">
        <ele>595</ele>
        <time>2014-03-06T15:30:06Z</time>
      </trkpt>
      <trkpt lat="47.82909" lon="6.95033">
        <ele>595</ele>
        <time>2014-03-06T15:30:16Z</time>
      </trkpt>
      <trkpt lat="47.82906" lon="6.95039">
        <ele>594</ele>
        <time>2014-03-06T15:30:24Z</time>
      </trkpt>
      <trkpt lat="47.82905" lon="6.95044">
        <ele>594</ele>
        <time>2014-03-06T15:30:29Z</time>
      </trkpt>
      <trkpt lat="47.82899" lon="6.95058">
        <ele>593</ele>
        <time>2014-03-06T15:30:38Z</time>
      </trkpt>
      <trkpt lat="47.82895" lon="6.95064">
        <ele>593</ele>
        <time>2014-03-06T15:30:42Z</time>
      </trkpt>
      <trkpt lat="47.82883" lon="6.95072">
        <ele>593</ele>
        <time>2014-03-06T15:30:53Z</time>
      </trkpt>
      <trkpt lat="47.82878" lon="6.95077">
        <ele>593</ele>
        <time>2014-03-06T15:30:58Z</time>
      </trkpt>
      <trkpt lat="47.82872" lon="6.95083">
        <ele>593</ele>
        <time>2014-03-06T15:31:03Z</time>
      </trkpt>
      <trkpt lat="47.82863" lon="6.95092">
        <ele>588</ele>
        <time>2014-03-06T15:31:12Z</time>
      </trkpt>
      <trkpt lat="47.82855" lon="6.95098">
        <ele>588</ele>
        <time>2014-03-06T15:31:18Z</time>
      </trkpt>
      <trkpt lat="47.82841" lon="6.95108">
        <ele>588</ele>
        <time>2014-03-06T15:31:31Z</time>
      </trkpt>
      <trkpt lat="47.8283" lon="6.95114">
        <ele>586</ele>
        <time>2014-03-06T15:31:41Z</time>
      </trkpt>
      <trkpt lat="47.82825" lon="6.95118">
        <ele>586</ele>
        <time>2014-03-06T15:31:48Z</time>
      </trkpt>
      <trkpt lat="47.82822" lon="6.9512">
        <ele>586</ele>
        <time>2014-03-06T15:31:51Z</time>
      </trkpt>
      <trkpt lat="47.82814" lon="6.95128">
        <ele>585</ele>
        <time>2014-03-06T15:32:00Z</time>
      </trkpt>
      <trkpt lat="47.8281" lon="6.95129">
        <ele>585</ele>
        <time>2014-03-06T15:32:03Z</time>
      </trkpt>
      <trkpt lat="47.82799" lon="6.95136">
        <ele>584</ele>
        <time>2014-03-06T15:32:15Z</time>
      </trkpt>
      <trkpt lat="47.82796" lon="6.95138">
        <ele>584</ele>
        <time>2014-03-06T15:32:17Z</time>
      </trkpt>
      <trkpt lat="47.82793" lon="6.95139">
        <ele>584</ele>
        <time>2014-03-06T15:32:19Z</time>
      </trkpt>
      <trkpt lat="47.82789" lon="6.95141">
        <ele>584</ele>
        <time>2014-03-06T15:32:22Z</time>
      </trkpt>
      <trkpt lat="47.82771" lon="6.95149">
        <ele>583</ele>
        <time>2014-03-06T15:32:32Z</time>
      </trkpt>
      <trkpt lat="47.82767" lon="6.95148">
        <ele>582</ele>
        <time>2014-03-06T15:32:34Z</time>
      </trkpt>
      <trkpt lat="47.82763" lon="6.95148">
        <ele>582</ele>
        <time>2014-03-06T15:32:36Z</time>
      </trkpt>
      <trkpt lat="47.82752" lon="6.95147">
        <ele>582</ele>
        <time>2014-03-06T15:32:46Z</time>
      </trkpt>
      <trkpt lat="47.82748" lon="6.95147">
        <ele>578</ele>
        <time>2014-03-06T15:32:49Z</time>
      </trkpt>
      <trkpt lat="47.82732" lon="6.95144">
        <ele>578</ele>
        <time>2014-03-06T15:33:02Z</time>
      </trkpt>
      <trkpt lat="47.82729" lon="6.95143">
        <ele>578</ele>
        <time>2014-03-06T15:33:05Z</time>
      </trkpt>
      <trkpt lat="47.82725" lon="6.95143">
        <ele>578</ele>
        <time>2014-03-06T15:33:08Z</time>
      </trkpt>
      <trkpt lat="47.82709" lon="6.95143">
        <ele>577</ele>
        <time>2014-03-06T15:33:18Z</time>
      </trkpt>
      <trkpt lat="47.82699" lon="6.95141">
        <ele>576</ele>
        <time>2014-03-06T15:33:25Z</time>
      </trkpt>
      <trkpt lat="47.82696" lon="6.9514">
        <ele>576</ele>
        <time>2014-03-06T15:33:28Z</time>
      </trkpt>
      <trkpt lat="47.8268" lon="6.95139">
        <ele>575</ele>
        <time>2014-03-06T15:33:40Z</time>
      </trkpt>
      <trkpt lat="47.82677" lon="6.95136">
        <ele>575</ele>
        <time>2014-03-06T15:33:43Z</time>
      </trkpt>
      <trkpt lat="47.82675" lon="6.95132">
        <ele>575</ele>
        <time>2014-03-06T15:33:45Z</time>
      </trkpt>
      <trkpt lat="47.82661" lon="6.9513">
        <ele>569</ele>
        <time>2014-03-06T15:33:57Z</time>
      </trkpt>
      <trkpt lat="47.82654" lon="6.95128">
        <ele>569</ele>
        <time>2014-03-06T15:34:04Z</time>
      </trkpt>
      <trkpt lat="47.82636" lon="6.95134">
        <ele>568</ele>
        <time>2014-03-06T15:34:23Z</time>
      </trkpt>
      <trkpt lat="47.82633" lon="6.95131">
        <ele>568</ele>
        <time>2014-03-06T15:34:26Z</time>
      </trkpt>
      <trkpt lat="47.82619" lon="6.95114">
        <ele>568</ele>
        <time>2014-03-06T15:34:37Z</time>
      </trkpt>
      <trkpt lat="47.82611" lon="6.95109">
        <ele>568</ele>
        <time>2014-03-06T15:34:45Z</time>
      </trkpt>
      <trkpt lat="47.82598" lon="6.95094">
        <ele>567</ele>
        <time>2014-03-06T15:34:57Z</time>
      </trkpt>
      <trkpt lat="47.82596" lon="6.95092">
        <ele>567</ele>
        <time>2014-03-06T15:34:59Z</time>
      </trkpt>
      <trkpt lat="47.82594" lon="6.95088">
        <ele>567</ele>
        <time>2014-03-06T15:35:05Z</time>
      </trkpt>
      <trkpt lat="47.82591" lon="6.95087">
        <ele>567</ele>
        <time>2014-03-06T15:35:08Z</time>
      </trkpt>
      <trkpt lat="47.82588" lon="6.95085">
        <ele>566</ele>
        <time>2014-03-06T15:35:10Z</time>
      </trkpt>
      <trkpt lat="47.82572" lon="6.95065">
        <ele>567</ele>
        <time>2014-03-06T15:35:22Z</time>
      </trkpt>
      <trkpt lat="47.82569" lon="6.95064">
        <ele>567</ele>
        <time>2014-03-06T15:35:24Z</time>
      </trkpt>
      <trkpt lat="47.82563" lon="6.95061">
        <ele>567</ele>
        <time>2014-03-06T15:35:29Z</time>
      </trkpt>
      <trkpt lat="47.82555" lon="6.95052">
        <ele>567</ele>
        <time>2014-03-06T15:35:50Z</time>
      </trkpt>
      <trkpt lat="47.82538" lon="6.95048">
        <ele>567</ele>
        <time>2014-03-06T15:36:00Z</time>
      </trkpt>
      <trkpt lat="47.82535" lon="6.95046">
        <ele>567</ele>
        <time>2014-03-06T15:36:02Z</time>
      </trkpt>
      <trkpt lat="47.82532" lon="6.95045">
        <ele>567</ele>
        <time>2014-03-06T15:36:04Z</time>
      </trkpt>
      <trkpt lat="47.82522" lon="6.95037">
        <ele>566</ele>
        <time>2014-03-06T15:36:12Z</time>
      </trkpt>
      <trkpt lat="47.82507" lon="6.95026">
        <ele>566</ele>
        <time>2014-03-06T15:36:22Z</time>
      </trkpt>
      <trkpt lat="47.82504" lon="6.95023">
        <ele>566</ele>
        <time>2014-03-06T15:36:24Z</time>
      </trkpt>
      <trkpt lat="47.82501" lon="6.95021">
        <ele>566</ele>
        <time>2014-03-06T15:36:26Z</time>
      </trkpt>
      <trkpt lat="47.82492" lon="6.95021">
        <ele>563</ele>
        <time>2014-03-06T15:36:36Z</time>
      </trkpt>
      <trkpt lat="47.82474" lon="6.95019">
        <ele>563</ele>
        <time>2014-03-06T15:36:47Z</time>
      </trkpt>
      <trkpt lat="47.82454" lon="6.9502">
        <ele>562</ele>
        <time>2014-03-06T15:36:56Z</time>
      </trkpt>
      <trkpt lat="47.82453" lon="6.95015">
        <ele>562</ele>
        <time>2014-03-06T15:36:58Z</time>
      </trkpt>
      <trkpt lat="47.8245" lon="6.95011">
        <ele>562</ele>
        <time>2014-03-06T15:37:01Z</time>
      </trkpt>
      <trkpt lat="47.82451" lon="6.95006">
        <ele>562</ele>
        <time>2014-03-06T15:37:06Z</time>
      </trkpt>
    </trkseg>
  </trk>
</gpx>